GFSCGP_250_rhum_000.txt.gz
RH
19 20 25 30 33 35 37 40 33 43 25 25 26 26 23 19 21 31 46 94 100 100 100 85 67 43 24 19 27 34 32 28 30 28 27 34 40 52 66 69 81 99 91 83
18 18 29 31 32 31 31 33 47 42 30 22 23 24 23 17 19 30 45 89 100 98 99 82 58 34 19 17 24 33 36 40 43 46 48 53 67 78 86 88 89 86 74 73
18 20 29 29 33 36 33 39 40 41 37 20 24 25 24 19 17 28 40 95 100 100 95 72 56 29 18 18 22 34 42 51 66 73 73 76 78 88 91 82 77 81 78 71
18 19 27 27 34 34 36 41 41 40 38 20 30 28 26 22 18 27 34 75 100 100 86 69 54 35 21 20 21 24 34 53 61 71 82 94 100 96 84 75 57 45 41 41
18 18 25 24 32 33 39 36 37 38 38 25 29 29 26 23 18 27 36 39 100 100 89 67 51 35 22 21 22 24 29 44 57 61 69 87 90 83 59 52 56 54 53 54
20 20 21 23 32 33 33 33 32 36 36 31 28 34 24 24 20 23 29 29 56 100 97 80 54 38 26 21 27 31 28 32 52 64 79 91 89 60 62 64 68 72 76 86
19 20 21 24 25 26 28 27 31 37 38 36 28 31 28 24 21 27 29 27 45 100 100 82 56 48 36 24 27 33 35 33 34 39 52 53 60 72 66 74 84 89 90 81
21 17 20 20 22 26 27 30 34 37 38 33 24 30 32 25 22 24 33 23 34 100 100 91 59 51 40 31 33 38 39 39 44 51 61 65 62 66 69 66 68 68 65 68
20 28 25 25 24 25 26 27 30 34 34 31 28 30 33 26 22 21 27 28 39 78 100 98 77 62 53 45 42 41 43 46 52 56 56 57 60 65 74 76 78 85 84 90
20 25 27 27 24 24 26 27 27 32 33 32 30 29 28 25 21 21 26 32 45 49 98 98 80 78 68 57 54 54 57 67 72 73 77 84 88 93 95 100 97 81 68 62
17 20 22 24 25 25 26 26 27 31 34 32 30 27 25 24 22 22 24 32 39 50 66 57 77 90 90 84 84 83 86 87 90 97 98 100 100 100 100 79 55 52 60 57
16 16 17 20 24 25 26 25 23 30 30 26 26 26 23 22 19 25 28 31 34 33 36 38 75 100 100 100 100 100 100 100 100 100 100 100 100 86 62 53 55 55 58 70
16 16 17 18 20 21 22 22 25 29 26 24 23 24 20 19 21 29 30 32 31 29 36 53 66 94 100 100 100 100 92 90 92 89 91 87 70 60 59 58 60 70 72 59
16 17 18 20 23 24 26 26 26 26 23 21 21 21 19 21 23 32 33 33 34 36 42 81 100 100 100 100 96 88 97 90 84 88 74 61 66 69 65 67 71 60 44 39
20 19 18 18 19 18 18 18 17 18 19 19 21 22 22 24 29 34 34 34 37 37 82 100 100 100 100 99 100 96 88 82 74 66 73 75 67 65 66 57 43 37 34 32
20 19 18 17 16 15 15 15 16 18 19 21 20 19 24 30 36 38 37 41 44 68 100 100 100 100 100 99 86 78 75 78 74 73 68 66 64 50 40 35 35 32 34 44
25 23 21 22 20 18 18 19 20 20 20 22 26 26 26 38 43 41 49 64 75 76 100 100 100 96 83 78 70 68 67 72 68 65 64 58 45 38 35 30 34 44 52 61
38 33 29 31 24 25 30 26 27 28 28 32 36 38 39 41 48 59 62 81 93 100 100 99 82 68 68 64 60 61 64 68 71 64 53 43 38 33 33 39 44 51 57 56
38 40 32 31 36 43 35 34 34 38 41 41 48 49 50 63 66 79 79 91 100 100 90 73 64 71 68 59 64 81 77 71 56 49 39 36 36 35 39 42 46 58 67 65
55 51 53 54 45 37 36 41 51 52 50 52 42 44 76 83 81 83 90 90 79 69 66 68 74 64 68 80 80 72 63 53 45 38 50 50 38 42 41 50 61 68 57 29
100 97 88 78 75 82 74 64 71 78 100 83 82 92 90 84 83 71 68 77 87 82 76 66 73 76 76 75 66 58 54 46 54 65 55 42 45 41 49 57 64 55 30 15
100 100 96 100 100 96 95 84 88 85 80 83 80 75 86 96 96 96 95 98 93 77 66 78 76 78 74 68 60 49 50 62 62 53 48 44 39 52 63 68 61 43 16 12
80 88 94 91 86 91 96 100 100 100 89 83 84 80 91 92 88 92 95 74 60 63 69 72 79 72 62 50 50 54 64 67 65 49 40 49 58 65 73 62 47 22 14 9
100 100 93 87 87 83 76 72 83 88 84 83 81 86 93 97 95 85 69 65 69 72 80 87 72 52 49 49 54 62 64 54 44 40 50 57 65 72 73 54 27 15 11 8
61 85 97 100 100 100 100 100 96 96 96 97 96 100 100 98 83 69 73 76 77 83 70 56 50 49 57 63 60 50 43 40 44 48 57 65 70 72 61 44 19 12 8 7
60 59 61 62 68 74 79 85 88 81 78 79 85 84 75 70 72 72 77 78 75 66 53 46 52 61 64 54 43 42 41 42 48 57 66 72 76 62 43 22 14 9 9 8

GFSCGP_250_rhum_003.txt.gz
RH
16 18 20 24 29 25 34 31 24 21 46 43 26 20 29 23 19 20 17 20 27 38 61 95 100 99 79 64 44 33 22 25 29 32 38 33 36 30 31 37 44 51 60 70
16 17 21 26 29 27 30 33 21 28 53 45 35 20 23 27 21 18 18 20 32 36 68 93 96 90 70 65 36 26 20 26 30 32 39 52 55 56 56 60 69 80 88 86
17 18 22 25 29 30 34 40 26 36 58 41 43 27 24 24 21 19 17 20 31 32 62 100 99 97 71 59 46 35 21 19 23 32 42 53 62 73 76 82 88 93 86 79
17 22 22 25 27 33 40 43 25 35 50 34 41 35 27 22 22 21 19 19 21 31 46 90 100 96 87 61 44 36 26 23 22 27 45 61 65 69 74 83 78 75 76 59
16 22 22 25 30 36 47 38 26 31 42 34 40 41 34 26 29 24 21 20 19 23 33 70 100 100 92 71 46 37 30 23 24 26 27 33 37 44 52 59 64 64 52 54
18 24 22 25 29 33 36 30 34 36 37 38 37 42 31 28 32 26 22 22 20 18 24 30 78 100 89 94 55 38 33 30 30 29 26 29 31 36 40 46 50 50 60 63
20 28 23 24 26 32 32 31 32 37 38 42 40 47 27 34 32 26 24 22 20 20 21 27 31 74 92 100 73 48 40 38 35 31 38 41 44 50 56 63 69 70 70 72
18 22 27 23 22 29 35 35 37 40 44 47 39 50 36 30 29 27 25 24 22 23 26 24 19 37 71 100 100 69 50 44 43 46 49 54 60 66 72 77 82 88 85 80
20 25 28 23 21 24 30 29 36 42 40 42 40 45 44 33 29 24 25 27 26 26 24 22 21 24 29 66 94 100 80 58 55 57 63 75 86 90 92 91 90 89 95 98
20 27 31 25 19 20 24 29 26 34 37 39 41 40 41 40 30 25 26 29 28 27 22 19 20 23 28 33 67 75 93 95 86 82 87 90 92 93 95 91 92 94 98 93
19 26 31 24 20 22 23 24 28 31 33 36 36 40 34 34 31 30 28 30 28 27 23 20 24 26 28 30 38 71 87 80 86 93 98 99 96 96 95 86 83 86 86 72
19 25 32 26 24 24 22 23 24 28 28 30 32 33 31 36 36 31 29 27 27 24 24 21 28 29 28 32 36 41 66 80 87 100 100 100 100 92 81 78 73 68 60 61
18 20 28 29 24 20 22 24 25 27 29 30 32 37 31 28 31 34 32 29 26 23 21 22 28 30 30 30 32 33 66 87 92 94 100 99 86 84 78 69 63 69 78 67
16 18 21 28 34 36 35 33 30 26 25 28 30 30 26 28 32 36 31 27 24 22 23 23 28 32 31 30 35 37 68 80 98 100 95 84 84 78 72 68 76 72 70 57
16 16 17 20 27 28 30 30 27 26 26 25 28 28 29 31 35 34 28 23 22 23 26 26 30 32 37 38 35 35 66 90 100 100 91 91 84 82 91 71 66 62 54 49
15 17 16 16 18 21 23 22 22 24 25 28 29 29 28 30 32 28 23 22 24 26 27 27 32 43 39 41 42 63 100 100 98 89 94 99 96 81 60 59 54 52 50 42
14 14 17 19 18 18 18 18 18 20 21 26 27 28 28 28 24 22 23 25 26 29 29 33 41 44 46 45 77 100 100 98 92 100 98 85 61 51 53 53 53 44 34 34
19 16 15 16 16 19 21 19 20 22 22 22 24 24 22 20 20 23 24 28 33 37 40 44 48 52 60 91 100 100 95 98 100 82 58 49 49 52 50 45 40 38 41 48
27 26 25 22 23 24 22 22 21 20 20 20 21 21 20 23 26 27 31 37 43 44 52 50 53 72 98 100 100 100 96 89 66 54 46 51 54 46 44 51 47 51 48 48
36 29 24 26 29 30 26 23 23 22 27 27 27 27 26 26 27 33 36 42 46 45 54 76 94 95 92 88 99 91 83 56 48 51 56 48 41 50 54 52 52 51 45 46
57 60 54 43 43 46 32 27 24 24 35 31 30 34 35 37 38 41 43 48 67 82 97 88 78 88 90 95 92 63 47 53 57 50 42 48 55 52 49 49 47 49 54 62
67 62 60 58 56 56 49 41 42 49 46 49 42 45 48 58 72 77 87 90 84 86 80 87 92 94 91 76 52 56 61 51 40 45 54 54 52 54 46 50 50 56 62 61
100 98 84 86 75 73 70 70 62 69 74 87 96 96 96 83 74 80 78 79 72 97 100 93 85 78 66 61 68 57 36 42 50 61 61 64 52 49 54 53 60 64 64 49
92 93 96 100 100 99 100 100 100 88 93 82 92 92 78 78 99 91 64 83 98 95 89 83 69 68 71 60 40 39 47 60 70 69 63 50 54 56 57 60 65 69 45 16
90 78 87 100 100 94 90 90 96 96 92 80 75 74 78 83 74 76 81 83 78 73 75 72 72 60 42 45 50 56 62 70 67 59 55 58 58 56 60 73 76 52 23 12
72 76 76 78 68 72 70 74 79 79 83 87 86 83 80 75 72 71 71 72 78 84 81 70 54 56 57 59 63 64 64 60 55 57 63 56 54 62 71 72 63 24 12 11

GFSCGP_250_rhum_006.txt.gz
RH
10 9 9 15 24 28 37 52 43 38 44 47 45 33 45 30 27 19 18 17 17 17 20 31 39 63 99 100 99 76 55 35 29 24 19 21 36 40 40 38 35 31 34 38
10 9 12 19 28 30 41 46 38 29 42 46 47 27 43 30 25 19 19 19 17 18 22 28 46 94 99 93 90 66 50 39 31 30 25 22 25 35 46 56 60 62 65 71
9 13 12 20 28 29 37 36 30 27 40 49 50 24 34 26 22 24 22 22 19 20 21 29 35 61 91 100 97 71 63 52 37 27 26 30 31 37 39 46 65 77 82 83
11 13 13 20 28 29 36 35 24 28 40 51 46 29 39 29 22 26 24 22 20 20 20 19 25 34 72 99 90 83 75 55 45 34 33 30 27 25 29 38 42 51 59 62
12 13 14 22 28 30 37 34 20 24 38 53 39 34 37 39 34 26 21 23 22 22 20 18 17 21 27 63 78 87 85 84 59 42 36 32 31 31 30 29 32 35 37 40
16 15 18 28 28 31 34 28 20 24 40 49 33 40 26 39 39 33 23 24 25 24 21 19 15 16 20 28 59 83 96 100 90 68 48 39 38 37 36 38 41 43 46 50
16 13 19 31 27 31 31 25 21 23 37 47 31 43 25 43 40 36 29 29 30 29 24 22 20 18 17 20 28 57 77 98 87 92 94 75 56 48 48 49 52 52 57 62
13 14 21 36 26 28 27 26 24 26 41 48 36 52 24 39 39 38 38 32 29 32 26 22 21 22 22 19 20 25 28 35 52 69 94 100 98 86 67 60 60 61 60 64
12 16 22 32 25 27 24 25 27 32 46 50 45 52 30 38 44 40 39 34 30 31 26 24 24 24 24 23 19 22 25 25 27 30 34 42 71 91 96 100 97 96 93 100
13 16 20 24 24 28 27 28 29 32 47 52 36 44 38 39 42 43 42 38 36 33 28 27 25 24 22 23 25 27 26 24 25 25 27 29 40 57 65 79 90 98 100 100
11 15 20 28 25 28 28 27 31 35 44 48 39 40 42 38 36 37 42 40 38 35 34 31 29 25 26 26 26 25 27 28 29 30 32 33 33 32 47 71 88 96 94 90
13 17 21 30 26 24 25 24 27 31 37 44 48 40 40 40 38 35 33 35 34 36 36 37 35 31 29 27 25 24 24 25 28 30 30 32 32 34 41 70 79 87 92 79
16 17 21 28 22 20 23 25 26 32 36 38 41 44 41 36 31 30 29 31 34 35 33 33 34 31 27 25 23 22 23 22 23 27 31 36 40 49 58 89 92 97 85 76
16 17 20 24 38 35 27 25 23 26 29 33 36 36 33 25 26 29 30 32 32 31 30 31 35 34 27 23 22 23 24 22 22 27 40 40 50 64 78 95 100 82 80 79
16 17 18 22 27 29 31 28 22 21 22 23 24 24 24 25 29 30 31 30 30 30 30 31 34 32 26 23 24 24 23 22 30 42 41 50 77 98 100 98 80 82 74 55
18 18 18 20 22 27 32 34 30 26 23 29 33 34 28 28 30 32 33 31 30 30 30 31 31 29 24 25 26 24 24 29 37 45 72 91 100 100 98 94 77 65 53 50
18 18 18 19 20 21 28 37 37 36 33 34 32 33 32 33 32 31 29 28 28 29 29 29 28 24 25 28 26 26 38 44 51 74 86 100 100 96 80 74 60 52 47 38
15 17 18 19 19 21 25 27 34 37 36 37 38 37 35 34 32 29 26 26 26 28 27 26 24 26 26 26 36 48 52 67 86 100 100 96 81 72 62 49 48 38 42 42
14 16 17 17 19 19 19 20 22 25 27 29 32 31 28 26 25 24 22 24 26 26 24 23 26 30 38 55 66 72 82 97 88 81 90 77 55 49 51 37 39 41 44 49
18 16 16 17 18 18 17 18 18 19 20 21 22 23 22 21 21 22 23 23 22 23 27 33 46 62 74 72 81 80 95 98 96 78 55 51 54 48 34 39 44 50 49 53
28 26 26 23 24 21 18 20 21 23 25 22 22 23 24 24 22 22 24 28 32 39 55 69 78 79 92 83 80 91 99 83 58 55 60 59 47 37 40 50 50 50 56 65
44 45 46 42 48 41 31 29 29 30 32 30 29 29 30 31 31 34 39 46 58 74 92 92 94 87 78 86 89 91 75 64 66 65 58 42 40 45 48 50 54 61 54 54
58 57 46 43 44 40 38 38 41 47 50 45 39 42 45 47 55 56 67 98 86 76 72 70 68 83 81 89 87 71 68 70 68 52 45 43 42 47 54 60 58 52 62 66
63 66 68 67 73 69 63 60 61 62 61 61 61 73 81 90 90 80 70 82 79 58 54 78 89 74 72 69 64 67 72 62 51 44 42 47 56 64 62 53 58 63 61 54
100 98 87 81 78 81 86 87 81 85 84 88 68 68 72 71 73 77 62 57 60 76 79 76 69 64 68 75 76 60 54 51 46 48 54 63 67 57 56 62 63 61 53 32
99 100 100 100 100 100 100 100 100 98 97 100 100 100 99 93 83 70 75 76 74 64 54 52 72 79 72 64 57 55 53 50 54 61 67 62 55 56 62 62 59 49 31 14

GFSCGP_250_rhum_009.txt.gz
RH
9 7 14 21 16 20 23 22 25 35 41 46 55 62 50 53 49 42 33 28 24 22 19 17 16 18 27 39 48 100 96 91 100 73 41 31 30 25 29 38 40 43 43 43
3 4 12 20 17 19 23 22 25 35 46 44 52 56 49 51 45 38 31 25 21 19 18 16 16 19 27 48 82 100 98 93 83 63 54 47 35 27 28 30 31 39 50 56
2 4 11 11 15 15 22 23 28 39 44 40 58 58 54 48 42 36 29 23 20 21 18 17 18 21 25 32 69 76 100 96 85 81 73 62 49 36 33 33 31 30 34 48
2 2 4 10 14 15 23 21 30 45 39 47 55 55 49 46 42 34 27 22 23 24 20 21 19 19 19 21 28 60 81 85 92 78 80 75 61 44 38 37 34 35 32 32
2 2 4 11 13 17 25 26 35 42 36 47 52 51 50 44 47 29 28 24 26 25 22 22 21 21 19 18 18 21 28 36 62 78 76 79 75 68 72 66 59 46 43 42
2 5 11 19 16 21 23 31 38 41 30 49 52 51 41 41 40 28 30 27 26 24 24 23 23 22 20 19 17 16 17 19 24 36 50 56 69 67 68 76 70 66 78 78
5 12 19 19 18 27 27 38 41 29 32 50 47 47 33 38 50 44 46 38 35 28 26 26 26 25 24 23 23 20 19 18 17 18 20 21 23 23 22 23 27 30 32 35
13 19 18 19 23 23 28 37 32 22 37 48 45 41 28 39 52 55 51 48 43 32 30 31 30 29 28 26 28 27 26 24 22 21 19 17 18 20 21 21 22 26 29 31
22 22 21 20 22 20 34 35 30 27 48 44 42 39 31 36 49 51 46 43 39 35 32 33 31 30 30 30 30 31 30 26 24 22 22 20 19 19 20 22 25 27 30 29
28 24 21 19 22 26 34 30 28 35 53 40 34 33 27 31 46 49 41 39 40 37 39 39 37 38 38 36 37 34 32 29 27 25 22 20 20 20 21 20 22 22 27 31
35 30 29 28 25 38 32 29 27 40 43 34 31 33 36 28 41 45 42 44 43 40 41 41 39 39 39 38 36 35 35 33 30 26 23 21 21 22 21 22 22 26 33 37
25 31 26 22 24 34 31 34 30 42 39 35 33 31 37 32 38 39 39 42 42 38 41 40 39 33 30 33 33 32 31 32 32 30 25 22 22 22 23 23 28 36 40 45
17 19 21 23 25 29 23 25 24 36 40 36 31 31 36 35 31 36 39 39 39 38 37 36 31 31 31 31 31 30 28 28 31 31 27 24 21 22 25 27 36 38 48 69
20 16 16 23 32 39 31 34 33 36 40 37 34 30 38 33 32 34 37 39 43 44 38 34 31 29 32 32 29 30 28 28 29 28 25 22 22 26 29 37 45 56 70 92
23 19 20 23 30 36 29 28 24 25 32 32 35 33 31 32 38 42 42 39 38 37 37 33 31 33 32 31 30 28 27 26 27 26 22 23 26 31 38 48 56 78 90 92
32 27 22 26 29 38 28 27 28 31 31 33 35 36 36 35 35 36 37 37 34 29 28 29 32 34 32 30 26 24 26 26 26 24 24 27 42 45 56 66 88 86 70 73
27 27 22 23 24 33 33 28 28 30 31 32 34 35 28 30 32 32 30 27 25 26 29 33 36 35 32 28 24 24 25 25 24 25 34 43 46 72 83 94 90 79 77 51
22 20 18 22 22 24 35 36 32 26 26 26 28 27 26 25 25 25 26 30 33 36 38 38 37 33 29 26 24 25 26 26 30 35 41 64 78 78 94 90 80 56 48 48
22 22 21 19 20 21 22 28 32 35 36 37 43 40 39 36 34 36 38 40 41 41 39 36 33 29 25 26 28 27 30 36 47 52 67 80 86 87 92 56 48 51 44 33
18 20 20 19 20 20 21 21 22 24 29 33 37 38 39 39 40 42 41 41 40 38 34 30 27 28 31 30 32 38 52 60 70 75 84 87 81 66 60 58 52 39 38 36
18 19 19 20 20 19 19 20 20 21 22 22 24 28 32 33 33 34 33 30 28 26 26 29 31 31 37 44 50 68 77 77 79 86 80 61 56 60 58 48 46 44 39 42
24 20 20 20 21 20 20 20 21 21 21 21 22 23 24 25 26 25 26 28 31 32 30 37 45 51 64 67 69 60 65 77 84 72 60 59 63 53 47 48 44 44 46 46
50 43 31 27 27 24 24 24 26 26 26 28 28 29 29 30 31 32 33 35 39 44 51 49 59 64 71 72 73 79 89 82 63 58 66 59 52 51 48 49 50 46 43 49
50 46 47 45 40 33 28 28 30 32 33 36 33 36 42 45 50 52 53 58 60 64 69 65 62 72 70 70 66 60 57 51 57 62 51 50 51 54 57 52 46 46 49 49
65 68 64 64 54 47 46 48 46 45 47 51 58 60 58 62 67 69 68 72 89 89 85 83 82 65 61 55 50 49 52 61 55 47 50 55 63 62 56 55 55 50 43 45
98 88 86 78 86 79 69 70 73 72 70 71 79 72 65 66 79 96 100 96 96 89 72 60 61 54 44 46 54 55 53 50 51 56 65 69 65 64 63 57 51 43 41 35

GFSCGP_250_rhum_012.txt.gz
RH
100 85 73 94 83 50 22 22 17 21 20 18 25 44 37 33 35 46 73 91 84 64 56 38 28 22 20 19 17 21 23 29 72 86 85 87 99 81 52 47 42 30 30 29
80 62 95 70 58 22 16 18 18 19 21 16 28 45 35 35 42 52 73 71 66 51 37 28 24 22 19 18 17 19 22 47 97 87 74 98 93 73 74 69 61 46 36 36
44 52 23 17 16 11 14 17 20 18 23 21 26 39 37 34 52 52 62 62 51 45 31 25 23 21 21 19 19 21 22 40 70 78 88 77 80 75 75 78 83 68 55 54
14 26 19 15 12 9 17 20 20 20 22 21 27 42 40 31 47 45 59 54 47 40 27 24 26 23 24 21 19 18 18 21 25 31 32 35 50 61 72 74 70 69 64 58
17 14 7 4 7 6 21 23 21 21 21 27 27 37 39 26 47 67 57 50 44 35 26 25 30 26 24 21 20 19 17 18 18 18 18 18 20 22 23 24 23 24 23 22
8 5 5 5 4 6 30 21 21 32 25 24 34 42 37 32 59 61 54 47 41 33 27 32 31 28 27 24 20 20 20 20 21 23 23 22 20 18 18 17 16 16 17 16
3 4 2 2 3 10 8 17 23 21 25 22 23 38 27 42 58 60 52 46 42 32 33 33 32 33 31 26 24 24 24 22 25 28 28 27 26 23 20 19 16 15 16 16
4 2 2 3 6 8 14 21 23 18 21 22 21 30 30 44 62 59 50 43 42 34 31 33 34 37 34 30 28 26 28 31 30 33 35 32 28 26 24 22 21 20 17 16
3 2 4 12 14 17 26 28 36 50 30 45 35 41 50 51 61 56 48 44 38 38 44 47 46 40 36 34 30 30 36 39 38 37 33 29 27 28 29 28 26 24 21 19
4 7 12 19 27 39 36 81 99 61 36 34 43 46 49 53 57 51 47 44 47 52 54 50 44 41 40 40 42 42 40 34 34 34 31 28 25 26 26 25 24 25 24 22
14 19 30 35 37 42 64 70 45 48 44 43 48 48 54 53 53 46 45 49 51 53 45 40 40 39 38 44 46 41 35 34 32 32 29 28 28 27 25 24 25 25 25 22
51 38 44 56 56 48 75 69 34 37 32 40 48 55 58 48 52 46 43 42 48 42 39 38 38 40 42 40 39 38 36 31 30 29 29 29 26 23 23 25 26 25 24 23
68 67 59 61 76 50 65 52 36 40 41 44 53 53 52 44 40 40 39 41 44 39 37 36 38 41 39 41 40 36 35 31 30 30 32 29 26 24 23 24 24 23 23 24
94 71 100 98 80 72 44 31 36 32 44 43 51 55 55 43 32 32 35 39 42 36 36 37 39 41 42 40 36 36 33 31 32 34 33 31 28 24 23 26 24 23 24 28
94 71 67 42 44 34 34 24 26 41 52 45 45 55 50 36 29 28 31 36 37 36 36 39 41 44 44 41 38 32 29 32 35 36 35 32 28 24 25 24 24 24 29 38
57 54 36 38 28 30 28 22 31 36 32 33 40 48 47 32 30 28 28 32 35 37 44 49 49 46 41 38 33 29 34 36 38 36 35 31 26 25 24 24 30 36 41 53
20 20 17 20 24 25 22 32 35 36 38 44 43 46 38 32 28 29 34 38 39 40 40 38 36 36 36 31 27 33 37 38 38 37 32 26 26 27 28 34 36 44 56 67
30 25 23 25 25 24 28 37 39 39 38 45 47 47 34 40 34 36 36 37 38 38 38 37 35 31 27 29 34 39 40 40 37 30 26 29 30 36 38 43 51 65 66 58
41 37 34 31 26 26 28 34 36 33 35 40 41 39 37 42 35 30 34 35 34 33 31 28 26 28 35 42 42 42 40 32 26 29 33 35 40 43 46 62 62 55 57 59
43 36 34 34 30 28 29 36 44 42 32 36 36 33 36 34 34 33 31 29 30 36 37 40 44 45 44 42 38 31 27 32 35 35 42 49 56 61 60 52 58 54 62 47
30 30 28 27 27 28 28 29 36 47 46 40 36 32 33 32 34 33 30 37 43 45 46 46 44 39 34 29 28 34 37 40 49 50 55 60 54 52 54 52 53 55 42 43
24 25 26 24 23 22 24 26 27 28 32 38 41 41 40 39 38 39 38 36 33 30 29 27 27 27 29 32 41 43 48 57 58 56 54 53 48 45 47 51 46 43 45 52
28 26 26 25 26 25 23 22 23 24 24 25 26 26 26 26 26 26 26 26 26 27 26 28 30 31 42 46 53 49 56 61 55 56 53 47 49 55 50 42 44 54 55 51
30 26 24 24 21 22 24 25 25 24 24 24 23 23 23 23 23 24 26 26 26 28 30 42 55 58 57 56 70 72 64 57 51 49 52 60 56 41 43 55 57 54 52 40
61 60 50 40 28 25 23 25 26 25 26 26 25 24 24 25 27 27 32 40 47 55 68 72 65 74 83 76 68 61 58 46 48 66 62 45 43 54 62 63 60 52 44 40
67 65 65 59 60 53 47 49 47 44 42 41 43 46 43 44 49 61 75 78 73 68 71 85 83 75 69 64 59 52 49 67 69 50 44 54 59 65 69 63 63 54 45 38

GFSCGP_250_rhum_015.txt.gz
RH
71 61 65 80 88 83 72 55 43 38 35 21 18 17 28 20 24 26 36 26 40 36 33 51 81 96 81 72 51 36 29 19 17 21 24 27 92 98 95 92 97 93 75 75
76 77 92 86 72 65 55 47 49 45 35 24 23 19 29 21 22 26 36 26 43 42 32 84 91 72 62 43 31 22 20 18 18 22 26 40 92 93 81 87 73 68 72 70
72 76 91 74 68 67 66 50 61 55 38 28 21 18 27 21 20 26 38 28 43 36 51 93 75 57 41 28 24 21 20 23 26 24 22 29 39 41 36 36 42 48 49 47
63 88 88 72 65 66 45 61 57 50 44 26 21 19 25 25 21 23 38 25 43 35 71 71 56 46 30 26 24 25 25 21 19 18 18 19 20 20 19 20 20 19 19 18
63 75 61 46 63 31 33 32 42 38 42 31 17 18 27 25 16 20 34 26 54 64 67 60 46 41 29 28 26 27 26 23 22 20 20 21 21 20 21 21 19 20 21 20
35 27 25 24 25 18 30 24 29 27 41 20 18 19 31 24 19 29 30 26 54 64 66 56 45 36 29 29 30 30 25 24 24 22 22 23 22 22 24 25 26 26 26 24
14 13 15 15 14 15 12 17 21 21 26 30 22 25 40 25 20 33 28 32 61 66 63 54 43 34 29 32 33 32 29 26 28 26 24 27 29 33 32 29 27 26 25 24
9 9 8 7 7 7 9 15 16 24 49 43 27 27 38 27 30 29 28 32 55 67 60 49 42 35 36 35 31 32 35 30 28 28 30 34 34 31 30 28 26 25 24 21
7 7 5 3 2 3 7 9 24 55 73 42 31 25 22 26 34 34 40 44 55 62 56 47 43 39 41 33 30 33 32 33 36 37 38 40 32 29 28 28 26 25 23 22
5 5 3 3 3 4 8 18 23 51 66 59 31 38 27 31 43 42 52 52 55 62 52 47 43 42 37 35 45 41 39 42 39 43 39 33 32 29 27 26 26 26 26 24
4 5 4 3 5 11 12 22 52 97 100 52 27 31 26 30 46 46 50 49 62 60 52 47 47 41 44 46 49 44 46 42 42 42 36 34 33 31 25 26 28 27 29 28
14 12 8 21 26 41 54 97 100 100 100 40 30 26 31 42 56 53 48 50 65 60 50 46 46 50 51 53 52 46 46 44 43 40 39 38 35 27 25 26 28 32 33 30
98 94 100 100 92 94 87 94 100 100 100 38 32 30 40 50 55 55 56 61 63 56 49 44 42 50 50 49 52 51 44 40 45 40 42 37 30 26 26 28 34 36 33 29
100 100 100 100 100 100 100 100 100 100 100 43 35 33 55 50 56 58 59 58 57 53 48 46 47 51 49 50 49 45 42 42 44 44 40 36 31 27 30 36 36 35 28 26
100 100 100 100 100 100 99 100 100 100 100 41 32 36 51 51 52 55 58 55 56 52 47 43 42 48 48 50 50 47 43 43 42 43 38 35 30 30 36 37 34 28 26 27
100 100 100 100 100 100 100 100 93 53 28 28 24 41 48 49 56 56 56 58 58 52 46 43 43 45 49 48 44 42 42 45 46 38 37 30 29 37 39 35 26 25 28 34
93 98 100 85 100 94 86 65 50 31 26 22 27 41 44 53 55 54 62 57 52 51 46 44 42 43 42 39 39 42 43 41 37 34 29 35 41 40 32 24 27 31 39 40
42 59 67 70 76 79 66 32 28 25 22 22 36 48 50 58 57 52 56 51 44 41 39 36 37 39 40 42 41 40 38 34 30 34 41 42 37 26 24 31 39 47 47 54
29 35 68 65 55 45 37 30 23 21 19 35 41 59 62 64 54 50 53 54 46 41 37 36 36 36 37 38 37 33 31 38 41 43 39 27 24 28 36 45 47 54 56 46
56 51 63 64 68 51 40 31 28 23 32 44 39 51 63 59 56 54 61 56 46 41 37 34 35 34 34 33 32 35 44 44 38 27 24 26 34 44 44 58 59 48 46 46
61 54 47 44 43 46 39 27 24 28 43 53 46 46 49 47 51 54 51 50 50 47 44 40 38 38 37 36 41 43 36 26 24 26 33 44 46 64 69 51 49 46 51 63
51 50 43 40 32 35 29 27 25 30 41 52 57 52 50 48 42 43 43 43 41 38 36 37 37 39 41 40 33 25 24 26 32 43 51 61 75 62 50 47 50 62 59 41
40 38 39 36 33 31 31 28 26 27 33 41 47 54 59 59 53 50 53 52 52 53 50 47 43 35 27 24 24 26 34 41 54 57 71 72 57 48 47 59 66 50 42 42
29 32 31 30 32 31 30 29 28 28 29 30 32 35 39 42 44 45 44 42 39 35 30 26 25 25 25 27 36 44 57 60 63 69 59 53 43 50 67 62 46 46 46 50
38 32 28 25 25 26 27 27 27 26 26 26 27 28 28 28 28 27 26 25 25 25 26 27 28 35 42 49 55 60 61 63 60 58 47 46 68 71 52 51 53 53 50 44
69 70 53 43 37 32 31 26 26 27 27 27 27 28 29 29 29 29 30 31 32 34 41 40 44 57 59 58 66 68 64 56 48 44 66 76 59 51 57 57 56 51 50 49

GFSCGP_250_rhum_018.txt.gz
RH
52 58 63 69 58 62 52 48 54 54 54 56 46 35 31 33 22 17 20 20 24 29 26 30 64 69 70 91 89 92 100 100 100 95 74 49 20 19 21 21 48 85 91 83
54 50 62 59 64 79 60 53 67 71 74 74 67 39 32 36 31 22 20 20 24 27 26 31 32 45 54 55 45 57 76 71 62 38 25 19 19 21 21 29 50 48 37 32
56 59 71 62 69 82 69 60 74 81 82 59 57 42 29 36 34 22 24 23 22 29 26 32 34 35 45 47 71 77 64 45 27 22 20 22 26 25 24 27 25 23 20 19
59 90 78 64 74 83 66 69 71 71 77 49 38 38 24 36 32 20 23 25 25 32 27 31 32 37 60 73 79 57 40 28 23 24 27 28 23 21 22 21 20 21 22 20
60 66 59 55 94 60 58 57 53 56 57 50 45 35 43 37 30 24 25 26 30 33 27 26 37 48 80 78 67 44 31 28 28 27 26 24 21 22 24 22 22 23 23 23
56 58 57 61 65 49 46 55 42 41 45 31 52 32 52 42 31 26 25 26 28 32 30 30 46 64 81 68 56 40 32 29 29 28 26 25 25 27 25 24 26 28 28 27
48 52 47 44 39 38 36 43 39 41 36 20 52 26 59 58 33 27 24 30 33 29 34 31 55 63 75 62 49 39 34 32 32 30 30 30 32 29 28 31 32 32 28 26
29 22 26 28 22 21 19 17 16 16 15 22 46 27 70 61 30 23 22 30 27 26 34 26 62 74 68 60 50 39 37 35 31 35 37 35 32 32 34 35 36 32 29 26
27 17 11 10 10 8 9 8 15 12 16 24 32 43 100 29 22 23 23 28 40 28 30 30 65 76 65 60 51 40 38 37 34 38 37 35 35 37 36 36 34 31 29 30
11 11 10 9 8 8 9 9 6 12 18 25 36 72 54 34 30 28 29 36 47 31 28 41 75 74 66 58 49 42 42 42 36 35 37 38 40 38 36 34 33 31 28 29
8 8 7 6 4 5 6 10 12 16 28 65 52 86 71 39 37 37 37 50 47 29 30 41 61 70 63 55 48 46 47 44 36 42 46 44 42 36 36 35 35 33 33 34
12 10 6 7 7 7 14 15 23 62 89 64 99 99 52 41 33 33 37 49 31 31 39 46 65 71 60 52 48 49 49 43 45 53 51 45 42 40 38 38 37 37 40 30
42 26 56 38 44 26 29 28 27 68 100 100 90 82 51 42 40 34 38 42 34 40 49 53 67 70 57 51 51 53 51 48 56 53 50 49 43 40 39 37 40 42 34 29
100 100 100 100 100 100 83 63 65 87 100 100 86 57 41 42 37 37 41 41 46 53 55 56 64 66 56 52 52 54 54 55 56 54 50 45 42 40 41 44 43 36 31 28
100 100 100 100 100 100 100 100 100 100 100 100 100 74 39 46 38 38 37 43 57 63 68 66 68 64 60 53 52 54 52 55 54 50 47 44 42 44 44 42 36 32 29 36
100 100 100 100 100 100 100 100 100 100 100 100 93 96 71 45 34 40 41 48 54 67 72 70 71 69 59 52 52 52 51 49 48 47 46 46 46 43 40 37 31 32 38 30
100 100 100 100 100 100 100 100 100 100 100 79 94 76 53 39 37 44 50 57 64 73 76 71 66 65 63 54 51 49 46 43 44 45 46 42 40 39 36 30 33 39 27 23
100 100 100 100 100 100 100 100 100 99 79 100 65 34 40 42 50 55 61 59 68 76 74 68 67 67 65 62 57 51 46 46 44 41 38 38 38 34 28 32 36 26 23 32
96 100 100 100 100 100 100 100 81 82 75 57 35 40 39 46 62 68 74 71 77 81 75 68 67 65 60 58 56 52 47 41 38 38 37 34 31 28 36 31 24 25 38 42
87 98 84 82 83 86 75 68 63 49 45 41 46 41 35 42 56 61 76 78 78 74 70 68 67 63 54 47 45 46 44 40 36 34 32 31 37 36 26 24 35 41 50 48
76 73 98 91 69 65 50 42 50 42 35 36 42 39 34 44 61 79 80 80 77 72 69 67 68 69 67 59 50 43 37 35 33 34 41 39 30 24 27 39 50 48 43 39
74 76 81 76 87 79 60 60 57 53 60 62 42 39 42 57 69 70 67 67 64 63 61 60 58 56 53 47 41 38 37 41 44 39 32 24 24 35 46 51 45 41 42 60
73 59 57 61 67 65 59 56 54 52 50 34 31 42 59 64 70 74 71 69 69 67 63 57 50 48 46 43 47 50 47 38 30 24 24 32 42 52 48 44 42 59 62 51
58 51 51 52 48 52 50 44 40 38 36 30 28 36 50 61 68 69 68 62 52 46 45 47 50 52 51 46 39 31 26 24 24 32 38 49 52 46 43 47 67 59 54 57
43 39 39 41 39 44 43 40 36 34 33 30 29 36 45 51 53 53 54 55 56 52 48 44 39 33 28 25 24 25 26 34 40 48 49 43 42 44 65 62 54 58 61 56
39 33 31 39 38 35 32 33 33 31 29 27 27 27 28 30 31 31 30 29 28 28 27 26 25 24 25 27 37 47 48 49 45 41 38 39 58 66 62 61 64 61 56 56

GFSCGP_250_rhum_021.txt.gz
RH
68 56 70 66 59 48 51 47 48 50 48 46 51 33 38 33 24 28 29 24 26 21 19 19 22 29 32 32 33 71 100 93 96 99 100 100 97 100 100 100 92 54 20 21
74 64 76 63 60 60 62 57 51 52 50 44 50 42 40 45 47 31 40 28 28 26 22 21 21 30 30 31 36 73 94 100 100 100 100 100 100 96 81 53 30 19 23 27
86 95 97 79 64 48 55 55 52 56 52 43 52 50 39 45 50 52 44 44 30 32 26 26 24 30 31 30 30 57 72 74 87 93 97 87 64 41 31 22 22 29 30 23
76 100 82 64 58 57 54 56 46 52 51 45 46 47 47 43 46 60 60 47 36 33 28 30 32 35 34 30 30 32 42 55 79 83 64 46 31 24 22 28 30 26 22 21
63 83 71 59 69 52 52 53 44 51 50 46 44 27 57 48 55 60 47 42 34 35 31 34 33 32 32 32 30 27 30 67 84 52 41 32 28 26 25 24 24 23 23 25
49 52 52 60 67 50 48 55 52 52 50 30 51 23 47 64 63 72 63 46 35 32 34 34 33 30 35 35 33 28 34 82 67 47 37 34 31 30 28 27 27 26 28 30
39 47 53 57 61 56 51 50 44 39 33 19 47 29 34 75 85 80 70 56 37 29 31 33 33 30 35 33 29 28 46 77 59 46 38 34 32 31 30 31 30 33 32 29
40 47 52 54 43 37 36 39 36 34 28 22 41 18 24 71 93 80 83 66 36 29 32 33 34 30 34 32 32 34 54 71 55 46 40 35 34 31 32 32 33 32 31 32
41 41 42 38 38 35 34 33 37 23 20 22 27 30 35 52 87 77 79 70 41 35 34 35 35 33 38 36 32 36 61 65 56 46 42 40 37 36 34 34 33 33 35 40
39 32 28 25 16 13 12 13 10 7 6 7 16 18 31 57 96 85 68 85 41 36 37 37 35 35 44 41 36 48 60 62 57 49 44 42 42 42 38 36 36 42 44 42
22 19 12 10 7 6 7 7 8 6 8 10 12 13 21 60 75 65 65 61 39 42 40 45 38 39 53 52 46 60 65 60 57 52 48 45 44 46 42 40 46 49 47 42
19 14 11 9 8 6 5 4 6 8 9 8 12 19 25 37 51 50 48 49 38 39 36 40 41 38 51 65 68 64 65 63 58 54 51 48 49 51 47 47 54 50 46 41
28 19 14 21 12 10 8 9 8 8 8 8 13 23 31 41 55 58 56 42 39 39 43 53 50 44 58 71 68 65 67 66 60 55 52 51 53 52 50 52 52 50 44 41
89 100 88 87 99 81 49 28 20 23 21 23 35 46 69 98 100 83 64 42 39 38 45 53 50 46 57 68 70 71 70 66 60 56 54 54 55 55 55 54 54 49 44 41
100 100 100 100 100 100 100 97 62 57 58 78 93 98 98 100 100 74 45 42 38 45 57 60 50 46 60 71 70 73 73 66 58 55 55 56 57 55 52 53 48 43 41 42
100 100 100 100 100 100 100 100 100 100 100 100 100 100 100 100 90 70 39 41 46 48 62 59 54 54 56 68 73 75 75 65 57 55 54 53 53 53 51 46 43 42 40 37
100 100 100 100 100 100 100 100 100 100 100 100 100 100 100 100 86 56 42 43 48 56 60 52 61 72 81 74 71 70 72 67 63 59 55 54 53 51 49 46 45 40 37 38
100 100 100 100 100 100 100 100 99 85 100 99 100 100 100 98 61 62 37 43 51 68 62 69 80 87 80 73 75 77 74 71 70 68 62 58 58 55 51 46 42 41 37 34
100 100 100 100 100 100 100 100 100 100 100 100 100 88 100 98 57 60 35 45 59 72 80 84 86 86 87 84 76 70 67 69 69 66 62 58 52 47 48 47 42 35 38 35
99 87 90 100 100 100 100 100 100 100 100 100 99 100 100 89 75 41 40 53 73 85 86 87 84 81 77 76 76 71 68 65 64 64 60 57 56 54 45 39 39 38 30 25
73 82 82 98 95 100 97 97 100 100 100 96 96 100 92 100 63 43 47 61 72 76 81 82 82 80 78 79 76 73 69 68 70 69 66 58 48 42 41 40 32 26 31 36
89 95 86 78 75 72 74 72 68 65 70 69 69 91 97 81 49 43 45 62 72 79 80 78 77 77 74 70 70 69 70 72 68 56 49 46 45 42 33 27 30 37 36 34
100 92 100 100 99 89 84 79 73 71 71 72 65 55 49 47 41 40 50 65 74 78 82 77 72 70 70 75 75 67 59 55 51 47 49 43 32 28 30 36 36 33 32 44
100 100 100 100 100 100 89 81 76 66 71 70 70 72 58 52 46 39 47 59 69 73 76 77 75 73 69 60 58 56 59 56 49 38 30 28 31 37 36 34 33 40 56 61
96 97 92 80 83 78 71 59 56 55 56 59 65 70 69 67 56 37 35 48 61 67 71 74 74 71 70 71 63 48 38 33 29 27 34 40 36 34 35 48 57 63 66 63
56 60 62 54 52 54 53 52 54 50 47 43 42 44 45 39 43 42 51 62 66 70 73 73 65 54 43 36 31 29 29 33 40 45 40 34 35 48 59 60 69 63 58 50

GFSCGP_250_rhum_024.txt.gz
RH
100 82 100 100 100 91 63 58 59 52 56 48 43 37 45 46 31 28 26 24 24 22 25 24 25 29 26 25 25 29 32 26 24 28 39 60 99 99 100 100 100 100 97 78
100 100 100 100 90 79 70 77 66 52 54 46 45 37 39 45 42 34 32 30 29 26 24 26 25 29 30 31 27 28 32 31 27 25 28 81 95 97 100 100 100 100 95 94
100 97 82 66 70 71 61 54 47 41 49 52 46 37 38 49 44 43 40 38 37 34 28 28 29 28 32 32 33 29 31 34 30 25 30 99 100 100 100 100 100 99 73 44
57 73 72 70 59 71 75 76 69 56 44 46 46 34 44 44 49 58 53 43 51 65 40 35 34 32 32 30 29 35 34 33 33 28 39 80 100 100 100 86 74 52 40 27
71 73 68 55 66 56 59 80 63 52 49 38 47 25 40 47 58 70 74 59 53 72 82 45 39 34 30 32 32 30 38 34 32 28 46 62 92 97 74 56 43 28 28 26
70 61 62 70 74 65 58 61 64 50 40 26 37 25 33 69 74 95 89 70 59 66 86 80 43 35 31 35 38 33 32 36 33 29 31 45 72 78 56 40 32 30 29 27
91 100 92 87 78 52 32 25 25 22 20 20 32 28 25 57 98 95 85 80 70 78 70 66 55 38 35 34 38 35 31 35 32 30 32 43 82 65 46 40 36 33 31 29
86 76 68 58 36 24 26 27 24 24 24 23 27 19 31 47 62 90 97 74 77 80 84 79 62 48 39 33 37 35 32 33 33 31 36 61 79 60 48 43 38 35 34 32
64 54 37 36 45 45 41 30 32 19 19 19 21 25 30 34 55 65 88 88 73 76 81 69 58 42 42 37 40 36 37 36 34 33 44 70 75 59 51 44 41 39 40 40
41 44 44 37 32 29 24 26 25 20 14 12 13 18 24 34 57 56 70 76 63 63 74 70 60 40 41 39 40 42 42 37 35 36 48 64 70 60 53 48 44 44 45 44
41 39 35 30 26 17 11 9 8 7 8 6 6 9 20 27 48 61 65 67 58 64 68 76 73 54 40 38 42 47 43 39 37 41 48 64 70 60 57 53 50 48 46 46
58 54 61 34 25 16 10 5 4 4 4 4 4 6 7 17 30 50 56 48 57 78 87 82 74 45 35 36 46 52 48 44 42 47 59 63 68 62 57 54 53 52 50 52
100 100 90 64 62 39 20 8 5 4 4 4 4 5 4 9 15 24 39 43 70 99 97 90 72 43 37 39 50 51 46 48 48 54 61 66 70 64 61 58 56 55 55 57
100 100 100 91 92 64 31 20 11 9 9 8 8 8 9 10 14 21 30 40 54 78 88 79 71 44 39 44 51 57 52 48 51 58 70 77 74 71 66 62 59 58 57 56
100 100 100 100 100 100 86 55 40 29 22 13 10 9 12 18 22 28 34 43 57 62 61 68 63 40 37 43 55 67 57 50 56 73 86 84 77 74 70 64 60 59 57 55
100 100 100 100 100 100 100 99 97 83 67 47 24 23 36 52 62 71 67 54 50 55 64 65 45 37 45 58 56 63 61 71 83 95 92 90 84 79 71 63 59 57 58 58
100 100 100 100 100 100 100 100 99 91 86 61 84 100 98 100 100 100 85 94 79 58 61 47 35 42 49 58 58 66 80 92 99 100 100 93 91 85 77 70 70 70 66 64
100 100 100 100 100 100 100 100 100 95 100 92 100 100 100 100 100 100 100 82 85 77 53 38 40 48 68 68 70 76 87 98 100 99 89 86 85 80 79 73 67 64 63 59
100 100 100 100 100 100 89 100 100 100 89 100 100 88 92 100 100 96 100 100 86 58 46 45 48 64 74 74 77 80 91 100 95 89 86 86 82 76 70 66 65 65 58 55
90 96 100 100 100 100 100 100 100 100 100 94 100 100 100 100 100 100 83 73 55 48 53 51 52 74 81 88 88 89 96 96 93 90 93 88 80 74 71 69 61 57 56 47
80 98 100 100 100 100 100 96 100 100 100 99 80 100 100 100 100 100 96 68 54 56 57 50 67 80 89 88 94 96 96 96 95 93 86 82 79 73 66 63 58 51 51 36
76 87 100 100 100 100 100 100 100 92 95 94 99 100 100 100 100 100 87 59 60 59 52 55 79 88 91 92 94 99 94 89 86 82 80 72 68 70 61 53 50 36 28 27
89 82 99 92 96 100 100 100 94 85 85 83 82 98 100 100 100 99 84 90 61 53 49 63 78 88 91 93 90 88 89 86 81 76 74 74 63 56 54 37 30 27 38 36
94 100 89 96 95 100 100 89 96 100 100 92 85 83 88 93 98 94 100 90 54 46 52 61 74 82 87 87 90 90 86 79 76 71 63 59 57 37 32 30 38 39 37 49
92 91 100 100 100 98 100 100 96 86 83 88 99 92 78 77 81 70 73 60 49 46 47 60 72 80 83 82 81 79 76 71 63 62 50 37 33 36 40 37 37 49 52 46
87 94 95 92 99 98 85 75 70 68 65 63 63 64 62 63 61 53 51 43 40 42 46 53 57 58 64 71 73 71 67 58 42 34 33 38 45 37 36 55 59 48 50 53

GFSCGP_250_rhum_027.txt.gz
RH
99 99 100 100 94 83 66 75 100 100 100 98 60 42 45 44 42 49 40 34 34 36 31 25 23 23 30 31 26 23 20 17 20 22 25 27 28 34 39 37 40 85 100 100
100 100 100 100 100 88 75 70 84 91 100 87 89 61 58 64 48 52 53 41 42 41 38 31 24 24 26 30 30 26 25 22 21 23 24 25 32 53 28 24 25 52 92 100
100 100 99 93 93 86 86 73 74 67 74 58 62 59 64 72 65 51 63 59 50 51 44 38 30 25 28 28 31 30 26 27 24 25 26 24 30 43 33 27 66 90 99 100
99 93 82 80 88 94 87 97 80 58 55 57 49 37 66 55 59 54 64 67 65 55 50 42 37 31 34 30 29 34 30 30 29 25 27 26 32 40 35 32 69 100 100 100
100 100 100 100 100 82 74 66 61 50 45 39 38 36 43 68 93 90 75 68 68 63 55 47 42 37 36 28 29 36 39 33 34 31 27 28 35 44 34 36 70 100 96 97
93 90 96 87 77 62 54 53 53 53 50 34 50 41 45 77 99 100 87 70 67 65 57 54 51 38 43 40 34 35 41 36 35 36 34 30 41 43 37 42 60 83 81 70
83 78 67 67 60 58 59 64 60 52 44 32 39 36 40 58 84 100 84 66 64 67 64 57 58 45 49 63 50 40 42 39 35 37 39 31 30 32 34 37 50 68 80 58
81 84 77 75 77 84 67 54 53 43 40 34 29 16 23 35 47 68 82 57 51 57 63 66 65 54 54 62 61 44 45 43 39 39 40 35 29 31 36 37 51 78 82 58
100 98 99 79 83 71 72 63 49 26 20 18 21 23 22 46 27 21 56 89 65 52 69 59 65 63 50 52 58 50 51 49 43 43 43 38 34 33 36 38 52 85 81 62
100 99 77 70 60 46 39 32 28 23 15 12 13 14 24 48 20 20 53 82 83 55 72 88 91 81 59 58 58 50 46 53 48 44 48 40 36 36 39 43 58 85 81 66
84 64 55 48 42 32 26 25 17 12 12 9 7 8 12 22 27 24 40 76 78 68 56 81 82 90 73 75 77 62 45 49 47 48 46 44 38 39 41 45 62 84 81 69
59 50 65 64 70 75 63 44 23 9 5 4 3 5 5 11 19 18 26 46 62 66 50 70 91 86 86 91 85 57 46 47 49 47 50 51 44 43 49 54 59 82 82 72
68 80 83 84 84 86 53 43 22 12 7 4 3 4 2 3 13 18 20 33 47 60 56 67 81 80 76 75 73 60 52 44 45 43 53 57 51 49 51 58 74 80 78 75
75 98 90 80 79 62 76 68 36 21 13 9 7 4 2 4 4 11 17 25 39 44 49 54 68 78 66 63 70 64 51 42 45 48 66 64 52 51 63 72 70 79 82 77
99 84 70 82 71 90 94 87 66 39 16 10 9 10 8 7 7 8 11 21 30 34 37 54 71 62 57 62 62 67 49 42 46 53 70 63 62 73 71 67 81 82 86 83
92 71 89 100 100 99 99 99 91 64 50 33 36 22 21 18 16 14 14 17 28 34 34 59 70 61 56 61 66 64 43 42 47 59 73 79 86 77 76 80 80 88 91 92
93 71 100 100 94 100 100 100 100 77 66 66 61 68 34 57 60 34 38 43 38 41 49 60 67 50 56 54 62 65 42 46 54 71 83 82 90 86 82 84 91 98 95 94
95 90 100 100 100 100 100 100 100 100 94 100 89 89 100 91 90 87 99 97 65 55 54 52 50 50 51 59 64 56 43 51 60 78 89 91 90 89 91 95 99 94 93 90
96 80 100 100 100 100 100 98 100 89 98 100 100 100 95 96 100 100 80 84 81 86 83 73 70 69 69 64 51 42 48 57 74 95 94 91 95 98 100 100 95 94 92 83
77 98 100 96 100 95 100 100 100 100 100 100 100 100 100 100 98 100 100 93 94 92 86 81 76 77 73 54 45 50 57 67 91 97 91 98 100 100 97 94 100 91 83 78
81 97 100 92 100 100 100 100 100 100 94 100 100 100 100 100 97 99 100 100 98 89 72 64 61 55 50 50 56 59 80 92 100 95 97 99 100 96 96 95 88 83 77 71
89 97 100 81 100 100 93 100 100 100 100 98 100 100 100 100 100 100 100 99 96 100 90 65 58 56 58 61 64 86 97 98 97 99 98 92 93 94 91 88 84 75 69 59
99 98 100 93 78 84 100 90 100 100 100 100 99 100 100 100 100 100 100 100 100 100 81 64 63 64 64 65 80 98 100 97 96 96 96 94 91 90 85 78 73 64 53 42
100 100 100 100 99 94 100 100 100 90 96 100 100 98 100 100 100 100 100 100 100 99 98 92 73 70 72 78 88 94 97 97 94 92 90 86 82 77 70 64 55 45 34 37
84 100 100 98 100 98 95 94 100 95 87 98 100 100 100 100 100 100 100 100 99 100 99 97 84 83 72 74 82 84 85 88 87 83 78 72 66 62 55 46 36 36 38 33
98 91 80 84 74 83 91 96 100 100 99 92 88 92 90 93 99 100 99 98 93 96 100 96 73 59 55 60 68 75 77 75 70 61 61 61 53 43 35 37 38 33 34 54

GFSCGP_250_rhum_030.txt.gz
RH
100 100 100 97 95 90 88 89 85 84 71 72 85 98 100 100 100 96 66 57 43 40 42 44 36 36 33 33 31 26 23 23 23 22 20 17 17 21 39 29 26 33 27 25
100 100 100 100 100 96 94 94 88 95 90 70 72 89 100 100 100 100 100 85 68 59 41 46 45 36 33 34 36 30 25 22 22 23 22 20 18 20 30 35 33 32 36 27
100 100 100 100 99 100 100 85 100 89 82 78 82 67 90 99 100 100 100 100 93 66 54 47 46 42 32 31 32 32 27 23 21 22 23 23 22 19 27 30 30 30 36 31
100 100 100 100 100 96 81 83 87 86 83 79 74 46 67 94 100 100 94 91 96 70 64 57 50 48 45 35 33 31 27 23 20 20 23 25 24 23 30 40 32 32 34 32
100 100 100 100 91 77 88 87 83 70 66 63 61 46 44 63 80 100 83 72 70 60 53 58 53 47 57 46 42 37 30 27 23 21 23 26 26 27 38 49 33 35 34 35
79 77 85 85 82 86 86 80 74 69 60 45 50 38 33 48 58 74 76 66 57 57 65 61 49 48 69 54 48 48 38 30 27 25 24 27 31 29 49 68 54 46 39 40
66 84 91 99 94 84 76 71 64 56 50 42 43 39 40 61 55 63 61 67 50 40 50 60 57 56 62 66 57 48 40 34 30 29 31 31 33 55 82 68 66 59 39 40
97 100 100 90 76 66 63 66 63 52 56 54 44 40 39 45 43 43 41 44 59 53 40 57 71 73 72 80 78 63 45 35 36 34 38 40 39 44 73 84 78 59 44 45
100 100 83 82 75 77 81 91 76 60 51 38 39 42 41 39 40 40 35 41 58 75 73 67 70 71 75 65 84 72 56 46 41 46 46 53 48 45 51 55 67 55 49 45
98 100 93 82 99 88 73 62 61 53 38 32 28 19 21 17 15 19 28 25 40 57 66 66 78 75 69 62 72 72 61 55 51 53 58 70 65 51 52 63 54 47 43 40
100 100 100 93 82 70 67 56 49 54 48 24 10 13 10 8 7 12 18 14 19 26 29 34 53 75 70 64 69 63 58 61 55 54 57 65 74 63 57 54 57 56 47 42
100 98 80 76 62 56 62 65 58 40 24 14 6 13 3 5 6 6 13 13 17 19 20 26 47 75 76 62 74 64 62 63 61 66 74 64 65 66 57 57 60 62 55 50
92 75 64 55 70 71 71 76 79 80 45 11 8 9 3 3 4 5 10 12 18 22 19 22 47 63 71 62 68 64 59 66 68 78 83 73 58 64 60 58 63 68 62 55
75 57 65 96 73 68 93 100 100 94 52 29 11 8 7 4 3 2 3 11 17 27 19 22 48 55 65 73 72 64 62 72 74 82 93 79 60 55 58 61 64 71 64 59
59 62 100 76 69 71 94 100 96 99 69 36 21 16 11 8 4 3 4 7 16 29 23 28 50 49 61 75 82 74 79 78 80 82 82 76 63 50 52 58 62 71 66 61
64 99 81 64 72 93 100 96 95 78 65 58 52 28 25 16 10 5 5 6 17 30 31 41 50 47 63 78 88 85 87 85 75 81 85 85 65 47 50 59 64 72 72 74
89 96 80 96 66 71 100 96 100 100 82 79 93 99 65 38 26 18 10 10 28 37 42 46 47 55 66 78 77 87 83 76 89 96 92 86 63 47 50 57 64 80 82 83
100 100 80 96 83 100 99 100 100 100 100 96 85 100 84 74 52 36 28 22 35 51 51 50 58 68 82 98 97 88 89 97 88 99 96 80 51 46 53 58 78 93 95 91
100 100 82 90 100 90 88 100 92 100 100 100 100 96 87 86 85 80 80 51 53 68 63 67 77 84 90 100 84 80 88 85 89 97 86 56 46 52 57 70 89 100 99 90
100 98 81 100 90 100 100 91 100 100 100 100 100 100 100 100 100 85 85 92 97 86 86 86 93 99 100 89 97 88 73 82 91 78 57 50 53 56 66 91 100 100 99 97
100 90 77 100 81 100 97 96 90 100 100 100 100 100 100 100 100 100 100 88 95 100 95 95 90 86 86 85 83 83 80 70 63 58 53 55 61 74 98 100 100 99 96 90
96 74 80 100 100 100 93 100 97 100 92 100 100 100 100 100 100 100 100 100 100 100 94 100 98 87 81 79 79 78 74 66 60 57 62 74 89 100 100 100 96 89 78 68
97 77 100 90 84 99 100 98 82 96 100 93 100 100 100 100 100 100 100 100 100 100 100 100 98 92 86 80 75 72 70 69 70 79 94 100 99 100 99 94 83 68 68 75
99 99 93 89 99 91 92 90 100 100 100 100 100 100 100 100 100 100 100 100 100 100 100 100 100 100 85 78 77 78 78 80 88 96 100 100 100 98 88 74 76 77 75 71
100 99 100 100 100 86 72 84 77 84 94 99 89 94 100 100 100 100 100 100 100 100 95 89 85 85 94 96 94 92 92 90 93 97 98 95 92 88 81 76 74 69 57 58
100 100 100 100 92 62 68 75 77 92 81 83 91 88 93 95 100 100 100 100 100 99 99 100 100 100 100 100 100 99 99 97 87 80 79 78 76 72 70 64 53 52 48 41

GFSCGP_250_rhum_033.txt.gz
RH
100 100 100 100 98 98 95 90 88 92 88 80 69 62 66 67 66 69 78 91 100 87 80 68 56 44 39 33 30 31 34 30 24 19 17 18 21 23 22 18 16 16 16 19
98 100 100 100 100 100 100 96 87 83 78 65 70 71 73 75 65 64 73 99 100 100 89 66 64 66 57 40 33 32 30 29 29 28 23 21 21 24 37 29 33 31 22 26
97 100 100 100 100 100 100 98 94 86 78 76 76 72 72 69 78 86 78 98 100 100 100 98 83 79 80 62 51 35 38 35 29 29 29 26 24 23 24 27 25 26 39 67
54 96 100 100 100 100 100 100 99 94 87 86 86 66 80 90 82 97 100 99 100 100 100 100 95 81 69 76 60 38 40 42 38 30 30 29 26 24 23 25 30 29 38 64
66 93 100 100 100 100 100 96 93 87 86 84 94 84 79 100 97 100 100 91 75 76 95 95 100 94 79 76 68 63 44 44 43 38 33 33 28 26 24 24 29 34 37 55
96 98 100 100 100 100 100 100 100 96 93 86 95 83 72 92 76 100 100 78 70 63 59 52 65 65 60 63 71 80 64 66 49 47 41 39 34 29 26 23 28 35 38 56
97 100 100 99 96 99 100 100 100 100 95 81 60 44 55 73 50 62 60 66 63 52 49 54 55 51 64 66 60 70 82 74 60 54 54 49 44 37 29 25 28 40 43 63
99 100 100 100 100 100 100 90 78 54 46 45 46 48 51 54 55 41 42 37 40 45 53 58 60 62 63 62 67 78 72 70 70 63 65 58 53 42 36 34 49 60 74 60
57 60 65 68 62 56 50 52 62 56 55 47 56 61 56 78 56 37 30 22 20 29 37 45 47 46 48 47 54 65 70 78 75 70 64 72 56 49 44 48 46 58 74 100
55 69 82 78 56 52 65 77 76 77 68 71 66 61 68 36 24 21 26 18 23 23 30 33 36 40 40 47 53 62 71 80 86 83 74 78 68 58 64 64 55 56 65 90
84 79 74 59 71 86 85 78 84 81 69 62 58 69 17 15 11 10 8 8 10 19 24 33 40 49 50 52 59 62 66 79 99 98 70 72 75 62 64 60 66 72 85 85
84 90 83 85 76 92 100 80 72 80 74 70 59 42 29 15 6 5 5 5 6 9 17 19 33 44 54 56 58 66 75 88 96 100 74 86 73 62 67 65 68 67 74 80
91 87 80 84 98 75 71 70 68 71 86 99 72 46 11 8 6 6 3 5 6 8 10 14 18 32 43 50 54 57 73 84 90 85 76 85 76 73 69 68 76 87 79 74
96 88 80 100 72 78 69 91 82 77 93 100 88 61 42 10 8 6 4 2 3 6 8 10 14 22 30 34 36 37 54 70 90 74 77 89 86 75 69 70 83 93 88 70
86 81 73 71 78 70 90 78 70 91 100 100 100 84 62 38 12 6 4 3 3 4 8 9 12 18 26 30 24 35 59 98 80 65 82 97 95 80 77 77 90 100 99 80
78 69 66 84 69 81 78 100 100 100 100 97 100 96 90 46 23 11 5 3 3 3 8 11 16 26 32 27 44 78 96 82 65 89 99 100 96 83 88 94 96 98 97 68
76 72 90 78 70 78 99 100 98 100 100 97 91 100 99 75 36 18 8 6 5 6 14 18 30 34 32 54 91 98 82 83 100 97 100 97 87 92 100 99 93 100 90 68
61 90 99 91 90 82 99 100 92 100 100 100 99 94 88 92 77 35 16 9 11 16 31 34 36 32 57 96 98 99 100 100 100 100 92 98 81 100 87 100 100 99 77 61
81 89 98 92 100 96 98 95 79 100 92 100 100 100 100 95 96 79 52 43 41 48 49 43 55 87 98 100 100 100 100 100 100 85 94 100 100 100 100 100 100 92 70 60
99 99 92 93 63 87 78 82 83 100 100 100 100 100 100 100 100 96 100 97 82 68 64 77 94 100 100 100 100 100 100 99 98 97 93 100 100 100 100 99 74 69 68 66
100 100 91 86 69 81 83 96 94 100 99 93 91 100 76 100 100 100 100 100 100 99 100 100 100 100 100 100 100 100 100 93 97 100 100 97 92 88 75 79 86 83 78 77
94 98 94 94 63 95 100 89 83 79 100 100 100 100 100 98 97 100 100 100 100 100 99 100 99 96 90 87 88 87 91 91 97 93 83 76 82 94 98 96 94 92 96 100
93 94 86 82 77 94 100 96 100 99 97 100 100 100 100 100 91 97 96 100 100 97 100 83 98 100 100 99 95 90 84 78 83 93 99 100 100 100 100 100 100 100 98 90
94 97 83 97 88 82 87 68 70 82 99 98 100 100 83 99 96 80 99 100 94 100 98 91 96 98 97 94 90 92 98 100 100 100 100 100 100 100 100 100 98 94 90 86
100 96 95 95 91 75 71 74 79 72 87 97 92 100 79 91 98 91 93 100 97 87 97 100 100 100 100 100 100 100 100 98 98 99 100 100 100 100 100 93 82 78 74 71
89 93 99 100 91 88 86 65 68 67 80 92 98 100 86 72 82 85 94 100 100 98 100 100 100 100 100 100 100 100 100 100 100 100 100 100 100 100 97 90 83 76 72 67

GFSCGP_250_rhum_036.txt.gz
RH
100 100 100 100 97 83 88 100 99 99 83 88 81 76 76 77 69 84 68 67 66 71 72 70 86 98 100 95 67 57 46 40 32 30 27 25 25 27 26 23 18 18 23 23
100 98 98 96 98 100 98 92 91 84 83 79 81 73 74 76 64 64 72 68 69 67 65 61 67 87 93 98 88 71 56 51 44 34 32 26 31 35 36 40 35 24 27 27
100 100 100 100 100 100 98 100 98 93 85 82 72 67 61 67 72 72 77 77 73 67 67 66 63 61 76 93 100 91 73 46 50 49 37 29 37 40 36 30 33 31 28 25
100 99 92 100 100 98 97 100 99 96 94 84 81 71 75 68 75 82 89 78 69 70 73 73 67 55 63 78 100 100 97 74 62 67 46 43 35 40 44 41 32 32 36 28
100 100 98 97 98 100 100 100 94 86 85 85 87 83 88 100 94 87 87 86 84 72 73 77 66 52 58 77 99 100 100 100 79 66 50 58 48 62 63 41 36 35 34 32
87 94 93 91 84 83 85 94 89 90 86 80 96 86 77 100 99 93 80 70 61 62 75 73 58 53 59 74 86 95 100 100 100 86 71 65 64 54 64 44 37 36 34 35
74 78 71 76 66 59 58 65 78 88 89 95 94 88 100 100 100 78 86 79 68 68 79 72 61 57 48 67 81 91 96 99 100 87 70 69 59 70 64 57 44 43 36 34
55 53 54 54 56 54 49 74 86 88 91 98 100 94 98 100 100 94 64 69 69 55 46 34 47 52 45 48 61 64 71 80 87 78 74 66 68 90 76 67 55 51 42 39
65 81 70 69 81 82 92 80 93 96 92 84 100 100 99 85 76 74 46 37 32 25 14 26 34 40 42 48 53 59 61 65 66 59 56 55 67 92 88 82 70 66 56 53
99 96 96 99 97 95 100 100 100 96 87 76 58 50 49 51 47 56 44 38 36 22 15 14 16 28 38 39 50 56 54 57 57 61 60 61 71 76 99 98 85 81 63 66
99 100 96 88 79 74 71 61 54 64 90 63 64 64 60 46 33 39 37 17 16 12 12 13 17 17 26 36 40 42 50 52 59 56 53 61 66 78 95 100 96 82 70 73
85 72 56 42 50 64 92 82 81 71 73 78 66 69 63 71 50 42 27 17 12 9 6 8 11 12 17 28 36 40 39 41 42 45 48 54 62 78 100 99 98 91 83 86
47 40 44 64 91 99 77 69 66 65 78 88 90 86 75 63 53 36 19 11 8 6 5 5 4 8 12 18 32 39 45 40 44 50 54 66 64 77 96 99 99 100 99 97
57 62 71 98 92 85 76 63 73 91 88 79 83 78 98 99 84 36 16 11 7 6 6 5 4 4 7 12 20 30 46 60 62 59 64 67 79 96 100 100 94 95 100 99
66 78 100 84 90 65 66 87 78 95 93 73 88 85 96 93 59 28 15 8 4 4 4 3 4 6 7 11 14 25 44 54 62 63 71 86 100 100 100 96 89 100 100 100
71 100 94 70 71 70 77 100 100 85 100 96 85 86 94 90 45 23 13 6 5 4 4 3 4 7 7 11 16 21 38 54 58 65 82 100 100 100 99 100 100 100 100 98
98 97 69 76 76 67 92 98 82 92 100 88 100 94 91 85 64 34 12 8 8 6 6 7 9 11 12 13 21 28 39 54 64 74 74 79 97 100 100 100 100 100 100 93
100 81 85 90 94 73 100 91 83 100 100 99 100 90 100 91 98 77 48 34 30 27 24 22 22 22 28 32 33 39 45 50 52 60 87 100 100 100 100 98 90 85 100 100
89 71 91 100 74 98 90 78 80 100 100 96 100 96 89 100 100 91 98 82 67 55 49 46 46 43 40 41 42 50 67 86 98 100 100 100 100 100 100 99 94 83 79 99
71 70 90 94 77 78 79 74 88 94 100 100 100 99 78 100 100 93 83 92 85 75 66 61 60 62 77 86 99 100 100 100 99 100 100 100 100 100 100 100 100 80 100 100
71 88 89 90 89 65 66 84 96 86 95 92 100 100 94 90 100 100 95 89 97 99 97 98 97 98 100 100 100 100 100 100 100 100 100 100 94 86 83 96 100 100 100 97
68 81 82 94 99 71 72 97 90 100 94 94 100 100 100 70 90 100 100 100 79 94 96 99 93 95 99 99 100 100 100 96 81 88 96 94 100 96 97 99 100 99 100 100
78 88 99 88 88 91 90 86 78 78 76 90 100 100 100 83 72 100 95 100 100 95 78 100 100 82 100 99 100 100 100 73 92 70 85 100 100 100 100 100 100 100 100 100
75 87 84 88 84 98 98 92 77 71 72 74 92 96 78 59 65 85 99 96 100 100 100 100 97 96 99 100 93 100 100 100 100 100 100 100 100 100 100 100 100 100 100 99
78 78 84 94 89 94 100 100 86 77 67 73 89 97 86 72 60 64 74 82 85 99 100 99 98 100 100 100 98 98 99 100 100 100 100 100 100 100 100 100 100 97 84 77
80 77 97 87 78 66 69 75 97 70 82 82 82 92 80 88 80 68 71 78 87 88 93 100 100 100 100 100 100 100 100 100 100 100 100 100 100 100 100 91 80 75 68 56

GFSCGP_250_rhum_039.txt.gz
RH
84 82 90 100 100 100 100 100 100 100 100 100 100 100 100 100 100 100 100 96 73 57 63 79 97 78 68 63 66 65 61 54 51 44 36 50 32 29 44 54 57 53 37 33
100 91 99 86 83 95 100 100 100 100 100 100 100 100 100 100 100 100 97 76 77 57 55 62 68 70 69 77 73 70 69 68 71 76 55 51 54 67 58 58 64 67 62 55
95 100 96 81 86 88 80 84 90 98 98 99 100 100 98 99 94 85 83 83 74 61 64 62 63 69 66 76 75 75 72 66 65 74 82 66 58 63 71 77 85 78 49 40
100 100 100 100 100 88 82 77 84 80 69 69 78 77 86 85 91 92 89 78 68 64 61 58 56 61 66 73 73 70 72 71 72 57 66 85 66 71 62 53 45 83 71 86
100 100 100 100 91 91 87 89 82 74 68 68 70 60 100 89 98 98 93 87 74 71 72 75 74 70 73 70 70 67 65 69 67 65 54 69 80 73 70 66 70 77 78 76
100 100 100 100 100 95 85 86 75 78 74 72 82 64 73 97 100 78 67 70 74 75 73 71 68 69 71 71 67 65 65 63 66 65 54 64 89 94 83 68 68 77 73 49
99 100 100 96 98 99 96 100 93 91 98 100 88 75 79 100 93 100 92 76 76 75 74 75 79 76 67 56 51 56 59 65 63 60 62 59 100 100 91 84 79 73 71 66
97 89 85 94 90 96 97 84 82 77 76 81 68 68 89 100 82 83 85 95 93 83 81 81 85 92 81 63 55 46 44 52 61 67 78 67 82 99 77 79 90 90 71 65
70 73 78 79 79 80 89 79 77 70 61 56 56 56 66 88 93 79 58 54 55 54 63 57 54 54 55 53 49 52 49 39 39 46 58 66 77 98 88 93 94 87 77 64
52 60 74 84 71 72 67 79 73 63 63 67 88 99 100 77 66 71 69 71 72 58 56 58 61 56 37 28 25 22 32 34 30 36 32 52 73 87 98 93 82 75 66 64
37 38 37 38 51 62 80 85 82 88 97 100 100 98 86 78 77 76 68 61 47 38 30 30 30 27 24 21 19 21 23 36 27 33 38 43 76 96 90 84 74 68 68 66
87 87 75 90 93 100 95 93 100 94 84 79 70 93 84 64 60 50 45 43 33 27 25 24 21 15 14 11 9 10 13 25 30 34 50 54 64 73 74 70 70 75 65 63
95 95 95 100 96 83 78 80 76 74 76 73 70 65 56 60 59 55 46 41 32 22 19 13 12 6 4 5 5 8 9 18 33 40 48 54 55 58 65 67 71 72 62 73
93 91 81 73 87 94 80 72 74 89 70 84 71 75 79 67 64 63 68 42 16 10 10 10 5 3 6 7 7 6 11 16 27 39 35 43 50 54 56 58 58 61 80 92
65 77 94 99 81 72 66 77 70 73 84 73 84 70 71 72 59 73 59 28 11 8 6 4 4 4 5 5 7 7 12 18 22 32 40 46 50 58 60 63 77 91 92 99
88 86 78 73 67 63 66 65 69 75 74 67 73 79 76 78 64 89 72 50 25 9 5 4 4 3 3 4 5 6 10 19 23 34 51 61 74 74 77 97 100 100 100 100
79 70 68 71 69 67 66 84 74 93 87 92 95 100 99 98 89 90 67 59 47 29 15 9 8 6 8 12 15 14 15 22 30 40 62 76 84 94 98 100 100 100 100 100
74 69 75 72 68 66 74 90 78 94 90 98 100 100 99 85 94 94 81 66 50 39 30 22 18 15 20 29 33 35 36 42 46 52 65 70 85 100 100 100 100 100 100 100
78 84 77 75 77 79 96 85 79 100 100 100 100 100 99 81 96 89 100 97 88 65 46 39 33 32 40 46 52 54 54 53 56 60 73 94 100 95 99 100 100 100 100 100
94 83 74 90 81 98 99 85 82 100 100 92 98 100 97 94 99 100 100 88 100 89 98 96 93 91 92 96 92 96 98 96 90 86 85 95 100 100 100 100 100 100 100 100
94 77 72 79 82 100 97 77 92 97 98 100 99 100 90 75 88 100 98 100 83 98 100 100 100 100 96 93 100 100 96 96 96 100 100 100 100 98 100 100 100 100 97 90
97 73 72 75 86 91 79 69 83 81 84 99 90 100 96 60 68 91 100 100 100 84 85 100 100 92 100 100 90 91 96 91 94 100 100 100 100 97 94 84 74 62 79 96
100 80 78 83 70 86 89 83 73 79 77 67 73 87 77 61 59 86 91 100 100 100 84 92 91 81 81 100 100 81 100 74 77 86 81 78 93 99 98 100 99 95 93 99
94 80 81 81 81 83 85 74 80 65 70 61 78 68 66 78 71 65 78 92 97 99 100 100 100 100 91 89 88 100 100 86 70 87 89 90 100 100 100 100 100 100 100 100
99 92 78 83 89 72 87 88 90 80 67 68 79 69 74 87 80 61 70 81 93 98 94 100 100 100 100 100 100 100 100 100 100 99 100 100 100 100 96 83 84 95 91 79
84 76 83 76 80 80 92 90 86 74 66 89 95 78 84 79 79 68 66 72 84 90 88 88 94 95 94 97 98 96 93 91 92 94 99 100 95 96 99 100 93 81 76 74

GFSCGP_250_rhum_042.txt.gz
RH
93 100 100 100 100 100 100 100 100 100 100 100 100 100 100 100 100 100 100 100 100 100 99 84 72 77 80 78 76 61 54 59 61 65 62 74 69 74 92 86 62 70 76 47
92 97 100 100 100 100 100 100 100 100 100 100 100 100 100 100 100 100 100 100 100 100 100 100 100 100 97 84 67 55 52 52 63 76 69 62 66 62 67 77 96 100 99 92
100 100 94 92 92 100 100 100 100 100 100 100 100 100 100 100 100 100 100 100 100 100 100 100 100 100 100 98 74 58 52 47 54 63 70 66 67 73 71 82 94 100 100 100
92 100 95 90 88 86 88 100 100 100 100 100 100 100 100 100 100 100 100 100 100 100 100 100 97 90 78 79 75 70 63 60 60 63 71 72 64 58 58 75 69 74 87 91
99 98 100 100 100 82 83 92 88 97 100 100 100 100 100 100 100 100 100 100 100 100 99 98 89 75 71 85 85 82 82 71 72 67 70 76 80 77 71 61 63 73 74 91
98 92 94 100 100 100 100 80 77 85 82 83 90 97 100 100 100 100 95 93 90 86 81 76 71 68 65 64 61 61 62 64 67 70 71 71 81 79 78 78 76 72 64 70
98 96 100 97 93 97 97 94 88 70 68 77 80 76 100 79 88 82 74 68 69 71 66 61 60 63 64 67 69 65 60 63 63 67 67 66 72 80 78 80 83 77 68 64
99 90 97 90 99 94 92 89 91 96 96 87 95 87 91 87 82 79 67 60 53 49 51 56 64 68 72 74 74 71 64 63 59 56 56 52 52 55 63 66 69 72 93 92
93 84 96 92 89 88 93 87 92 94 99 96 97 100 94 95 82 63 56 58 64 62 58 62 60 61 69 75 67 66 72 72 67 59 55 49 46 49 49 56 67 74 81 84
77 85 98 94 92 93 93 96 92 82 86 90 90 96 98 71 51 46 42 37 33 32 43 49 48 47 44 46 50 56 54 54 56 49 46 48 39 41 49 60 74 71 72 86
68 68 76 88 96 96 100 99 86 73 71 75 94 88 65 54 56 60 60 56 54 52 46 44 49 53 60 55 49 43 39 40 37 36 40 54 53 49 53 61 62 63 78 98
65 68 79 93 96 99 96 84 80 72 76 77 63 78 72 88 99 97 86 74 56 44 41 34 33 35 32 29 30 30 31 31 29 27 28 30 34 33 39 59 60 66 100 100
45 53 60 68 72 68 72 75 71 82 78 77 87 99 96 92 88 84 70 56 50 45 37 30 22 19 20 17 16 15 21 21 15 20 29 26 31 31 43 58 63 60 87 100
77 89 85 87 82 78 82 97 96 84 94 88 80 77 77 71 63 60 55 51 50 46 45 36 17 6 5 6 7 10 10 9 10 10 11 10 15 24 36 44 53 58 72 94
90 94 94 91 95 94 90 81 85 89 88 80 73 75 88 88 67 60 64 78 73 59 40 22 8 3 4 5 4 4 4 6 8 9 9 9 11 19 27 47 56 73 87 81
100 100 100 90 74 69 73 86 78 77 77 85 70 72 67 68 63 79 80 88 74 41 26 15 9 6 4 4 6 8 8 9 10 9 13 16 20 28 47 63 63 71 74 73
78 84 83 79 81 74 83 74 68 80 78 73 89 90 77 93 80 75 91 86 69 45 30 18 10 8 7 7 10 10 10 11 12 18 28 32 39 61 63 60 73 92 99 91
91 90 78 77 70 68 70 79 79 73 76 97 99 74 90 86 96 87 94 82 79 82 52 36 28 23 22 17 14 17 20 29 30 38 43 49 57 58 72 95 99 100 100 100
82 71 73 70 67 72 74 82 76 92 98 100 85 99 76 77 91 95 76 89 90 90 92 55 49 45 43 40 37 42 45 40 42 51 54 61 76 98 100 100 100 100 100 100
80 73 66 66 73 77 74 70 75 91 100 100 94 87 64 68 83 96 78 98 97 90 98 98 80 66 79 93 95 86 83 89 92 94 100 100 100 100 100 100 100 100 100 100
88 78 76 74 71 77 72 78 88 94 98 97 72 82 89 73 71 93 80 74 100 96 76 99 100 90 89 100 100 100 100 100 100 100 100 100 100 100 100 94 95 100 100 100
88 80 78 70 72 83 78 100 94 88 92 88 79 81 82 66 58 95 92 71 76 96 88 88 100 100 99 80 96 94 98 86 81 91 88 100 100 99 87 80 66 54 64 82
87 86 78 66 68 74 88 100 92 80 82 72 73 70 72 57 66 98 95 76 76 63 79 90 98 93 90 78 84 74 87 96 88 71 56 59 68 77 89 90 91 93 100 100
95 93 79 69 66 73 88 90 86 72 70 75 70 74 63 56 68 97 92 84 82 81 73 70 82 89 95 92 89 81 68 72 90 99 100 100 99 100 94 99 99 96 94 98
86 71 83 81 74 81 78 90 80 74 67 56 73 80 80 69 73 93 92 78 92 90 92 94 94 96 88 76 71 80 97 89 69 63 68 72 80 94 96 96 97 98 88 75
87 80 96 86 78 78 72 70 75 72 67 58 72 87 83 77 71 76 89 86 76 91 94 86 87 100 99 100 100 100 100 100 99 99 100 100 98 97 91 79 73 76 78 82

GFSCGP_250_rhum_045.txt.gz
RH
100 100 100 100 100 100 100 100 100 100 100 100 100 100 100 100 100 100 100 100 100 100 100 100 100 100 100 96 93 78 70 74 81 69 64 65 78 59 46 47 59 79 79 99
98 100 100 100 100 100 100 100 100 100 100 100 100 100 100 100 100 100 100 100 100 100 100 100 100 100 100 100 97 90 78 68 68 67 80 76 68 77 65 55 57 71 77 73
77 100 100 100 100 100 100 100 100 100 100 100 100 100 100 100 100 100 100 100 100 100 100 100 100 100 100 100 100 96 82 84 93 92 93 96 91 78 63 59 69 78 76 77
52 72 96 100 100 100 100 100 100 100 100 100 100 100 100 100 100 100 100 100 100 100 100 100 100 100 100 100 100 100 99 86 94 97 93 95 81 69 66 54 50 61 63 74
84 66 74 86 100 100 100 100 100 100 96 96 100 100 100 100 100 100 100 100 100 100 100 100 100 99 96 95 96 97 97 98 94 87 83 82 76 64 68 67 60 55 63 71
69 64 68 92 93 100 100 100 99 100 100 100 100 100 100 100 100 100 100 99 98 100 100 100 98 96 94 87 80 84 90 90 89 87 83 77 68 67 73 75 68 65 67 77
95 100 100 88 88 88 94 90 91 88 86 96 100 100 100 100 100 99 90 95 98 98 100 99 97 97 98 92 90 93 92 86 81 76 70 65 69 73 76 78 80 73 79 74
91 87 80 90 87 92 76 75 90 94 80 80 82 90 96 98 98 100 100 96 87 85 86 85 84 80 79 83 80 74 66 61 61 63 62 62 61 64 75 81 81 87 99 88
71 83 93 100 100 97 99 100 99 100 100 89 83 78 71 74 73 71 75 77 78 71 64 61 61 63 63 63 58 52 51 51 53 53 50 53 58 69 73 73 78 87 98 100
79 75 85 80 94 96 98 100 100 100 94 92 91 89 85 72 64 63 64 66 62 60 62 60 59 61 59 56 51 50 46 40 40 43 46 50 57 58 58 59 63 66 83 96
60 83 100 89 93 100 100 95 92 85 89 98 99 95 76 72 72 67 57 61 68 65 60 58 49 35 29 27 27 24 21 24 26 25 28 34 39 40 41 49 57 64 78 97
83 97 100 100 99 97 98 95 87 86 89 96 93 92 72 67 66 65 79 69 67 56 37 31 42 44 42 36 32 29 28 26 25 35 44 47 49 46 49 55 51 52 61 68
76 96 99 98 98 92 93 92 90 92 92 78 95 93 90 91 87 87 83 88 88 67 55 39 36 33 25 23 23 20 18 23 26 27 28 29 34 38 38 40 40 40 44 50
90 98 99 93 86 85 88 91 81 87 88 97 92 95 96 85 98 93 86 78 61 57 44 44 43 29 19 13 14 15 17 17 19 23 27 27 26 30 34 27 36 44 51 52
79 91 88 79 76 73 75 82 90 84 91 68 98 90 100 99 92 81 73 58 48 49 72 62 37 25 19 13 11 10 10 10 10 9 10 13 16 22 28 24 30 37 49 58
67 61 58 57 53 63 75 80 78 85 96 100 100 100 90 77 69 66 57 48 52 66 70 65 34 19 13 9 7 6 4 4 5 6 6 7 9 10 12 15 17 22 37 55
96 99 99 94 95 100 99 100 98 94 95 100 96 87 78 74 76 58 49 52 60 77 82 64 41 31 20 12 10 8 8 9 11 13 14 17 19 22 24 24 24 32 48 56
100 100 89 84 93 80 71 73 88 100 97 85 87 83 76 70 65 58 57 62 65 82 82 67 56 46 43 29 21 20 19 18 22 29 32 34 32 29 34 32 43 52 69 88
88 78 61 66 65 75 82 84 77 82 82 100 100 91 81 70 63 66 80 72 76 88 83 67 71 62 50 44 46 42 40 41 39 32 53 57 64 85 87 92 94 97 98 100
57 62 71 81 89 77 77 74 85 87 88 100 96 90 81 75 57 65 75 76 85 100 88 83 84 76 66 68 72 79 79 79 75 82 99 100 100 100 100 100 100 100 100 100
72 79 83 78 74 74 78 90 94 92 100 100 100 75 72 77 65 58 77 72 85 99 95 88 72 95 82 70 68 64 80 96 98 89 93 93 99 100 100 100 100 100 86 85
74 84 75 71 68 75 76 82 82 95 96 100 89 72 74 79 77 65 70 84 90 82 92 97 98 93 100 96 80 93 80 70 79 92 99 96 94 94 95 97 96 94 86 84
79 81 73 68 74 78 81 83 81 88 97 88 82 75 72 73 71 62 60 90 89 88 83 85 90 91 84 97 99 100 90 92 87 90 95 89 95 96 96 96 100 100 100 95
77 79 78 77 76 75 91 84 97 100 99 88 75 69 73 71 79 71 87 92 76 88 97 83 74 79 84 84 86 81 89 99 100 100 88 91 98 98 99 99 98 97 96 92
84 86 86 84 77 75 75 76 79 89 93 85 69 60 59 64 68 71 78 89 80 72 95 96 90 85 77 73 80 80 82 80 84 83 94 99 100 97 91 83 77 81 88 94
98 97 98 91 88 80 76 76 86 79 77 71 66 62 59 70 72 71 73 78 82 73 77 90 88 98 95 88 83 82 87 85 83 83 78 76 77 79 79 80 77 77 78 82

GFSCGP_250_rhum_048.txt.gz
RH
76 100 100 100 100 100 100 100 100 100 100 100 100 100 100 100 100 100 92 89 92 100 100 100 100 100 100 100 100 100 98 100 98 95 100 93 94 85 87 90 82 77 82 76
46 93 100 100 100 100 100 100 100 100 100 100 100 100 100 100 100 96 100 100 93 98 100 100 100 100 100 100 100 100 100 100 100 100 100 100 100 100 94 92 79 72 70 71
35 27 98 100 100 100 100 100 100 100 100 100 100 100 100 100 100 100 100 100 100 96 100 100 100 100 99 99 100 100 100 100 100 100 100 100 100 100 96 87 86 79 66 69
23 22 67 100 100 100 100 100 100 100 100 100 100 100 100 100 100 100 100 100 100 100 100 98 95 100 100 100 100 100 100 100 95 99 100 100 100 100 100 98 95 88 77 81
32 46 52 92 77 100 100 100 100 100 100 100 100 100 100 100 100 100 100 100 100 100 100 100 100 100 100 100 100 100 100 100 97 88 89 97 98 100 98 98 96 92 90 96
41 34 45 59 79 96 100 100 100 100 100 100 100 100 100 100 100 100 100 100 100 99 100 100 100 100 96 95 99 100 100 100 99 98 93 86 84 86 91 100 100 100 93 90
46 54 58 56 76 91 100 100 100 100 100 100 100 100 100 100 100 92 89 88 95 100 100 99 96 93 95 94 88 82 82 85 87 87 88 89 85 83 94 99 98 98 98 95
62 92 93 78 83 92 100 100 100 100 100 100 100 100 100 100 88 92 89 80 74 75 80 86 86 86 89 89 87 89 97 98 94 94 91 88 91 95 89 84 79 77 75 80
48 62 80 83 82 87 100 100 100 100 100 100 100 100 98 86 86 83 88 85 77 72 71 78 75 79 86 89 89 83 77 74 71 68 66 68 71 66 61 61 62 74 81 89
56 64 72 88 89 95 81 93 100 100 97 98 96 92 92 89 81 78 79 75 74 75 76 77 75 73 72 71 65 56 50 46 42 40 41 41 41 39 40 45 58 66 78 89
64 62 73 72 84 96 95 96 89 92 100 98 94 84 83 75 70 64 58 56 54 53 54 57 60 61 59 53 50 49 43 37 34 32 29 24 19 19 24 27 34 44 56 62
62 67 76 82 93 100 99 100 94 83 85 91 80 70 74 66 76 66 69 69 78 82 89 84 73 61 54 51 39 29 22 19 19 23 24 24 27 29 32 35 38 41 47 51
70 81 79 86 85 90 100 98 99 100 98 93 92 84 82 92 90 92 94 85 83 83 78 73 60 45 48 47 36 28 24 19 15 17 19 21 24 25 27 28 30 36 46 52
85 94 88 80 75 80 80 84 81 94 94 92 95 92 90 95 90 82 86 97 86 77 62 63 66 53 41 34 26 23 20 13 12 15 17 19 18 21 27 32 36 40 43 49
88 83 80 82 95 96 100 100 89 80 82 89 82 87 92 92 89 99 99 94 78 78 74 56 40 42 48 38 25 15 12 8 8 7 8 11 16 18 22 26 31 35 37 41
71 86 98 99 98 98 100 99 89 79 84 79 87 97 89 100 100 93 95 91 82 63 44 50 49 56 54 42 27 16 11 8 8 6 6 8 10 14 18 20 21 23 26 34
80 86 86 86 96 96 91 82 76 78 84 86 98 99 100 100 100 96 87 72 51 47 56 58 67 69 62 49 34 28 19 15 12 11 10 10 12 13 13 14 16 16 16 17
58 55 53 59 65 67 59 59 65 85 95 100 100 100 99 99 96 86 74 53 54 60 70 66 88 75 77 69 56 49 41 41 35 28 22 24 24 32 39 37 36 37 35 28
93 92 89 89 91 91 87 92 99 96 99 100 100 100 100 92 86 71 54 60 67 59 84 73 92 84 83 81 76 74 62 61 78 88 86 73 69 71 78 69 64 57 86 80
98 98 88 95 96 89 76 75 81 95 100 100 100 100 100 93 70 59 47 54 59 68 86 79 80 85 80 90 97 82 69 81 68 66 64 68 71 67 67 77 77 98 100 100
85 81 68 63 64 71 82 92 96 98 99 100 97 100 84 74 68 57 62 54 52 77 82 87 79 83 79 87 98 94 91 94 84 88 72 62 73 86 94 87 89 84 76 71
56 63 66 70 77 88 96 94 88 90 100 100 100 100 81 75 58 61 67 59 63 82 77 86 84 79 73 82 79 88 99 100 95 86 81 96 94 90 86 92 98 100 98 99
63 66 70 74 85 75 78 81 82 95 96 100 100 98 87 74 64 69 74 67 74 91 73 85 92 89 80 80 81 88 84 76 72 94 84 84 92 90 96 99 100 100 100 96
70 70 77 85 75 74 77 87 92 99 93 92 100 100 88 69 62 63 67 61 76 79 84 77 88 90 85 79 71 78 91 94 86 78 72 79 78 85 91 90 90 93 94 100
77 74 82 75 74 82 85 85 95 95 94 90 99 90 79 68 60 60 67 67 72 81 80 71 85 91 97 92 86 82 84 80 76 78 91 92 92 91 92 92 92 95 99 100
82 79 79 78 87 79 76 82 91 96 81 88 87 73 63 55 54 62 71 66 63 74 67 79 78 86 94 96 92 92 93 90 90 89 90 94 93 92 91 91 93 95 100 100

GFSCGP_250_rhum_051.txt.gz
RH
17 16 95 100 100 100 100 100 100 100 100 100 100 100 100 100 100 100 100 100 100 100 100 100 99 100 100 100 100 100 100 100 98 93 90 92 98 92 92 96 97 100 99 96
15 16 50 100 100 100 100 100 100 100 100 100 100 100 100 100 100 100 100 100 100 99 100 98 94 83 84 99 100 100 100 98 97 93 99 100 100 100 100 100 95 98 98 95
18 21 26 98 100 100 100 100 100 100 100 99 100 100 100 100 98 100 100 97 93 94 76 72 76 90 75 68 95 100 100 100 100 100 100 100 100 100 100 100 100 100 100 100
21 20 24 27 100 100 100 100 100 100 100 100 99 100 100 91 80 86 83 78 74 79 98 80 69 71 94 79 100 100 100 100 100 100 100 100 100 100 100 100 100 100 100 100
22 17 18 23 36 100 100 100 100 100 100 100 100 100 100 94 92 95 97 92 91 100 87 93 100 100 92 100 100 100 100 99 100 100 100 100 100 100 100 100 100 100 97 92
30 21 18 20 22 78 100 100 100 100 100 100 100 100 100 100 100 100 100 100 100 100 98 92 100 100 98 89 88 90 90 98 93 97 97 96 92 90 99 100 100 100 99 100
35 29 18 18 25 32 95 100 100 100 100 100 100 100 100 100 100 100 100 100 100 99 99 100 98 89 85 87 85 83 84 85 84 85 89 94 100 100 100 99 98 100 100 100
32 25 20 18 19 35 47 100 100 100 100 100 100 100 100 100 100 100 100 100 100 100 100 100 100 100 94 85 86 87 86 88 88 88 87 84 86 84 84 89 90 96 100 100
34 35 32 25 24 30 36 68 99 100 100 100 100 100 100 100 100 97 100 100 90 94 96 98 96 93 89 89 92 89 83 83 77 73 78 71 70 74 76 72 74 80 83 87
31 36 37 37 34 44 47 65 77 78 97 100 100 100 100 100 100 97 94 81 81 82 75 74 77 74 79 87 84 82 77 73 70 65 62 60 63 62 62 60 57 58 61 66
42 43 54 57 60 62 78 68 97 98 94 92 90 96 100 100 100 100 92 82 78 76 74 75 71 68 75 77 71 62 52 45 42 37 35 30 25 22 21 23 25 28 32 38
44 53 61 69 77 81 87 89 96 99 100 92 76 70 74 78 92 87 86 80 77 76 73 71 74 67 59 53 49 51 49 43 39 34 27 20 18 15 13 14 17 20 26 32
51 57 67 71 81 82 79 89 98 100 97 78 83 89 89 90 86 80 79 76 74 80 73 64 64 65 57 52 51 54 48 38 31 26 21 18 15 15 15 15 15 17 20 26
65 63 59 66 75 84 83 84 95 100 96 97 91 93 86 81 79 81 89 89 91 81 93 90 70 67 57 60 48 37 33 32 31 27 18 12 9 8 8 10 12 16 22 28
71 66 58 63 72 78 94 98 96 87 89 84 90 87 91 90 92 92 93 94 92 93 86 69 62 65 49 44 42 44 42 35 27 22 13 8 7 8 8 8 9 13 18 20
79 84 82 78 83 83 87 97 98 98 94 95 96 98 95 99 97 97 93 88 84 72 64 73 63 46 48 51 58 48 41 33 27 20 13 8 10 9 8 8 11 14 17 20
75 77 81 79 85 82 83 87 84 84 84 85 82 91 87 90 94 97 97 79 68 80 74 53 51 56 57 68 67 57 52 50 48 32 25 20 20 18 15 16 14 14 12 14
65 65 70 77 78 79 82 77 80 87 92 94 97 100 97 100 100 88 81 86 85 66 58 69 63 62 63 75 71 75 95 94 92 70 67 51 40 36 41 42 36 31 31 26
58 67 76 86 92 96 100 98 100 100 100 100 100 100 100 100 91 96 94 88 68 48 58 62 62 62 77 83 78 72 96 90 95 90 65 64 70 59 51 46 50 52 53 52
75 69 65 62 59 58 69 80 92 96 100 100 100 100 100 100 98 99 90 76 61 44 53 55 66 72 83 91 81 72 84 92 99 94 92 77 71 64 76 73 78 79 73 78
100 99 95 99 98 98 100 100 100 99 97 95 100 100 100 100 99 97 84 71 54 54 55 61 66 79 80 78 80 65 85 78 75 76 92 84 78 70 65 69 77 81 83 79
97 93 93 100 100 96 91 82 80 84 95 98 99 100 100 100 96 86 68 61 59 67 65 71 74 76 78 84 85 77 69 81 96 89 70 77 86 70 66 66 72 79 82 83
83 80 72 68 70 73 81 90 93 99 100 100 100 99 100 90 79 71 68 60 62 60 65 76 81 72 82 75 79 86 76 77 79 97 80 73 73 75 79 85 91 97 100 100
58 64 68 72 79 87 88 84 87 88 90 95 100 100 97 88 83 70 66 60 61 58 67 74 81 70 82 83 83 82 79 74 82 87 81 81 92 99 100 100 100 100 99 97
66 66 66 73 80 80 76 73 73 74 81 100 99 100 100 96 78 59 58 60 66 65 68 68 72 75 71 88 90 89 93 95 93 86 86 89 93 92 87 82 78 78 84 87
72 68 63 72 76 78 73 76 74 74 84 96 98 90 85 93 77 67 58 56 64 69 64 62 68 68 75 79 86 92 92 96 93 92 90 94 95 90 92 91 87 83 79 78

GFSCGP_250_rhum_054.txt.gz
RH
10 10 17 77 100 100 100 98 100 100 100 100 100 100 100 100 100 100 100 99 100 100 100 100 100 100 91 99 99 98 98 100 88 70 72 77 84 78 80 84 87 88 89 93
12 11 11 31 98 100 100 100 100 100 100 100 100 100 100 100 100 100 100 100 100 100 100 100 100 100 100 100 100 100 100 98 90 69 70 70 67 81 87 97 100 98 87 79
12 12 12 13 59 100 100 100 100 100 100 100 100 100 100 100 100 100 100 100 100 100 100 97 99 100 100 100 100 100 100 96 85 80 75 76 58 62 96 100 100 98 95 99
13 13 14 13 15 80 100 100 100 100 99 100 100 100 100 100 100 100 100 100 100 100 100 99 98 100 100 100 100 97 92 91 86 73 60 80 91 79 87 84 92 99 95 100
15 16 15 15 15 17 87 100 100 100 100 100 100 100 100 100 100 100 100 100 100 100 100 99 98 100 100 100 87 84 70 79 93 76 82 92 100 100 100 100 100 100 100 100
17 16 15 17 16 18 22 94 100 100 100 100 100 100 98 100 100 100 100 100 100 100 100 100 100 89 84 75 59 60 55 74 99 96 80 89 93 98 92 99 98 99 93 90
18 16 15 17 17 18 20 38 96 100 100 100 100 100 97 93 90 96 98 98 94 93 96 95 80 62 53 57 73 93 94 85 64 89 100 99 90 86 87 86 90 95 100 100
20 17 17 13 16 14 19 28 41 97 100 100 100 100 87 80 77 79 75 71 69 68 65 61 62 68 80 87 85 80 75 65 82 97 98 96 91 90 89 97 100 100 100 100
20 18 17 13 16 18 21 32 47 76 100 100 100 100 100 100 90 78 72 71 77 74 80 90 94 98 90 92 93 96 86 86 97 99 100 96 89 88 82 77 77 81 81 83
24 22 19 18 18 23 23 28 43 72 81 100 100 100 100 100 100 100 98 100 99 97 99 99 99 100 92 85 82 84 88 85 79 81 76 70 73 71 67 60 60 60 57 47
28 31 25 25 23 27 33 31 35 65 100 100 100 100 100 100 100 100 100 100 92 86 86 84 87 80 87 81 78 80 80 78 76 66 59 55 47 37 28 23 20 18 17 20
30 30 35 32 30 28 26 39 45 48 100 89 100 100 100 100 100 100 100 100 100 90 96 100 95 97 97 91 86 90 69 71 59 48 43 35 29 24 18 16 16 17 18 18
34 32 39 41 44 37 29 34 44 70 71 85 99 100 98 99 98 100 100 100 100 100 100 100 100 100 99 89 81 76 58 46 44 36 34 29 28 25 22 18 16 14 13 14
39 34 41 49 53 58 66 72 66 67 80 77 83 100 99 99 98 96 94 96 95 90 77 68 76 71 62 62 60 57 54 53 44 40 32 39 38 28 21 14 10 9 9 8
48 46 52 50 61 61 68 89 94 82 91 94 100 100 98 93 94 83 82 87 89 85 79 76 81 77 69 63 66 61 54 43 42 40 42 41 42 26 16 13 12 12 9 6
66 69 65 67 62 70 72 85 94 96 87 93 95 100 100 100 100 100 98 93 96 98 88 80 77 75 74 70 61 49 47 51 50 47 44 42 48 37 35 24 18 12 10 8
70 74 74 71 65 68 78 88 94 90 90 95 93 93 93 97 96 96 96 99 98 88 84 71 71 73 63 54 48 56 56 63 66 69 66 58 66 63 62 59 48 38 22 19
62 63 67 72 77 87 79 84 88 94 92 94 94 95 91 84 91 100 100 93 84 74 68 72 70 62 60 59 55 62 68 67 77 77 72 71 70 70 66 58 54 53 47 40
78 73 79 77 81 83 85 80 85 92 94 94 97 97 96 95 92 94 90 84 81 77 73 69 57 55 56 51 61 72 67 70 74 83 78 72 66 72 61 54 53 57 54 54
72 84 90 87 90 98 100 93 98 97 95 90 88 94 100 98 96 93 94 88 96 83 70 60 52 54 55 51 67 76 68 77 90 79 73 74 66 65 68 66 62 60 60 61
76 76 77 85 91 98 97 99 100 100 97 97 100 100 100 98 98 100 99 98 87 70 66 56 55 62 62 62 72 79 70 77 77 81 81 74 73 68 72 76 76 69 63 60
92 92 92 92 93 94 88 91 90 87 94 94 96 99 96 96 100 98 99 86 77 69 66 58 63 62 73 75 69 76 69 68 74 72 81 92 86 72 75 80 79 85 88 90
99 96 96 95 96 97 96 99 100 98 100 100 98 98 96 96 98 100 100 86 77 66 65 61 60 67 71 75 65 70 65 68 72 68 73 80 93 89 86 88 91 84 81 83
97 90 86 93 92 78 85 87 76 77 86 95 100 96 95 100 100 98 92 84 80 71 66 59 65 68 69 73 65 68 75 77 82 84 84 83 87 92 88 85 82 82 82 86
92 88 75 68 63 67 71 77 83 84 91 100 100 100 100 100 100 98 98 93 93 66 60 60 62 61 61 66 67 66 75 83 88 92 94 96 97 92 89 87 87 85 80 78
88 68 67 66 71 72 80 77 68 72 80 95 93 100 100 98 100 100 100 90 73 70 61 66 69 62 56 58 60 67 76 80 87 90 90 99 100 96 97 93 90 84 78 76

GFSCGP_250_rhum_057.txt.gz
RH
9 9 9 16 100 100 100 100 84 100 100 100 100 100 100 100 100 100 93 100 100 100 100 100 100 100 100 100 97 96 91 88 100 100 90 100 100 100 89 73 73 71 66 57
10 10 10 11 25 95 100 100 97 85 100 100 100 100 100 100 100 100 100 100 100 100 100 100 100 100 100 100 100 100 95 77 96 100 100 100 97 98 96 87 78 64 58 60
13 12 12 10 13 38 100 100 100 87 100 100 100 100 100 100 100 100 100 100 100 100 100 100 100 100 100 100 100 100 100 100 100 100 90 83 85 80 85 74 63 59 62 61
14 13 12 10 10 16 62 100 100 100 86 97 99 100 100 100 100 100 100 100 100 100 100 100 100 100 100 100 100 100 100 100 95 90 93 79 76 72 68 59 52 56 57 70
17 13 13 11 10 12 29 100 100 100 100 81 94 95 100 100 100 100 100 100 100 100 100 100 100 100 100 100 100 100 100 100 100 100 95 84 76 80 80 70 63 81 78 78
18 16 14 11 10 11 14 52 100 100 100 99 90 83 92 100 100 100 100 100 100 100 100 100 100 100 100 100 100 100 100 100 100 100 94 92 87 77 65 61 58 80 81 55
19 17 16 12 11 12 14 16 43 100 100 100 100 85 71 94 100 100 100 100 100 100 100 100 99 98 100 100 100 100 100 100 100 98 94 89 76 60 50 57 67 59 63 71
16 15 14 13 12 12 16 15 18 33 100 100 100 100 78 88 92 97 100 100 100 100 100 100 100 100 100 100 100 100 100 93 88 78 73 62 58 52 58 67 79 91 100 100
18 15 14 12 12 12 12 15 17 19 77 100 100 100 100 100 94 92 95 97 97 100 100 100 100 100 100 100 98 96 88 78 64 58 56 50 64 63 60 94 72 71 74 73
19 18 14 13 12 14 13 14 16 18 20 47 97 100 100 100 100 100 97 90 85 87 90 87 91 92 83 78 77 72 63 59 56 60 75 69 69 74 72 75 73 72 65 59
22 21 20 19 16 16 16 15 18 21 24 24 24 32 80 100 100 100 100 100 97 89 90 81 82 78 67 62 63 57 57 65 64 62 75 72 80 69 68 73 68 34 28 20
27 26 24 23 23 21 19 19 22 26 30 34 41 36 52 80 100 100 100 100 100 100 97 90 84 76 71 69 82 80 67 67 69 84 73 85 75 84 78 41 32 27 22 16
36 33 33 31 30 33 35 39 35 30 29 50 70 69 70 100 100 100 100 100 100 100 100 100 100 98 94 84 84 91 84 96 91 91 82 86 67 36 32 32 30 43 40 29
42 38 38 37 42 41 45 38 53 55 44 47 65 74 70 86 94 100 100 100 100 100 100 100 100 97 89 98 100 99 100 99 87 90 68 40 38 32 34 35 53 46 36 28
34 33 33 36 41 44 45 56 48 60 47 41 59 99 100 100 100 100 100 100 100 100 100 96 100 100 97 97 100 100 86 68 54 42 42 46 39 34 43 54 44 38 37 35
35 36 35 38 40 47 60 67 50 50 54 70 76 90 100 100 100 100 100 100 100 99 93 85 84 95 83 64 64 59 54 60 50 47 48 42 41 47 52 51 50 47 40 38
46 44 42 47 46 50 52 58 69 67 56 55 64 75 79 80 87 100 100 99 100 97 98 96 70 72 73 64 65 65 63 59 50 49 48 52 54 50 60 53 52 51 45 38
60 52 52 56 55 66 56 63 72 90 92 86 89 93 99 100 100 100 100 100 100 93 92 89 85 76 79 73 75 71 67 54 50 54 57 60 56 54 60 56 61 56 58 52
71 74 78 80 76 70 71 71 76 85 84 91 96 100 98 100 99 100 100 96 92 92 93 88 81 73 74 77 76 66 54 48 48 56 65 61 54 66 64 58 63 62 54 48
75 80 86 86 93 90 94 88 82 79 85 84 85 90 99 100 98 84 81 89 94 90 88 79 76 78 80 75 66 57 50 44 48 65 61 60 61 64 65 59 64 67 58 57
71 80 86 87 91 94 86 85 91 95 95 87 93 94 92 91 92 96 98 100 99 96 87 87 81 78 72 60 59 63 52 56 65 66 66 61 64 69 69 70 74 74 62 65
81 74 69 83 84 88 85 88 94 94 87 92 94 97 98 99 99 100 100 100 100 99 95 94 90 74 64 62 61 58 61 67 66 66 63 64 61 64 67 78 79 76 69 71
93 94 89 64 65 70 82 85 85 91 86 89 91 95 94 100 100 100 99 100 100 100 100 89 79 78 68 61 55 60 65 66 63 63 64 59 65 76 78 84 88 88 78 75
89 100 100 96 85 73 76 78 80 78 76 78 78 78 84 89 94 99 100 100 100 100 94 85 89 79 66 58 56 60 60 64 63 58 66 72 79 82 89 95 94 92 82 77
87 93 96 100 100 100 94 86 86 89 94 94 92 92 91 93 100 100 100 100 100 97 84 98 90 71 62 57 56 59 56 59 62 64 65 74 80 84 96 100 98 91 85 82
91 91 94 91 96 95 98 88 81 78 80 83 82 85 90 94 100 100 100 100 99 98 100 99 84 71 69 66 59 54 54 55 58 59 69 73 79 92 95 99 94 92 89 86

GFSCGP_250_rhum_060.txt.gz
RH
9 8 8 10 14 19 47 100 100 92 92 97 100 100 100 100 100 100 96 100 100 100 100 100 100 100 100 93 89 90 83 80 98 100 100 100 100 100 89 75 86 89 93 96
8 9 10 9 10 12 16 88 100 97 78 91 100 100 100 100 100 99 100 100 100 100 100 100 100 100 100 100 100 100 99 98 100 100 100 97 86 100 88 85 100 100 99 86
11 11 10 9 9 10 13 48 100 100 100 93 96 100 100 100 100 100 85 98 100 100 100 100 100 100 100 100 100 100 100 100 100 100 98 100 98 100 100 100 98 84 80 79
11 10 12 11 10 10 11 18 86 100 100 99 85 97 100 100 100 100 100 82 90 100 100 100 100 100 100 100 100 100 100 100 100 100 100 97 86 91 100 97 92 80 81 68
11 12 13 12 11 11 10 13 34 100 100 98 88 78 100 100 100 100 100 100 100 90 94 100 100 100 100 100 100 100 100 100 100 100 100 96 100 92 84 85 88 89 76 72
15 14 14 13 12 11 10 12 17 93 100 100 100 87 81 100 100 100 100 100 100 100 100 100 100 100 100 100 100 100 100 100 100 100 100 100 100 93 100 91 98 88 78 80
14 15 16 15 12 12 12 11 13 45 99 100 100 85 74 85 96 100 100 100 100 100 100 100 100 100 100 100 100 100 100 100 100 100 100 96 100 100 99 100 89 87 88 76
18 18 17 16 13 13 13 12 12 14 82 100 100 100 89 82 81 96 100 96 100 100 100 100 100 100 100 100 100 100 100 99 96 100 100 100 100 100 100 93 96 81 74 65
18 18 18 16 15 14 13 15 14 13 17 100 100 100 100 100 96 80 83 99 100 100 100 100 100 99 98 99 100 100 100 100 100 100 100 100 100 98 96 86 76 70 59 54
17 19 19 18 16 15 14 14 14 13 14 21 78 100 100 100 100 99 85 83 92 99 100 100 100 97 96 94 100 100 100 100 100 100 99 97 98 91 80 73 60 52 55 52
22 21 20 19 17 16 15 15 14 16 14 15 19 26 64 100 100 100 100 98 88 85 86 90 97 97 97 100 100 100 100 100 100 93 88 86 88 78 65 57 50 51 56 54
26 23 22 21 21 20 18 18 15 15 16 16 16 18 21 27 78 100 100 100 100 100 98 96 91 87 89 98 95 95 91 86 89 86 76 64 55 54 49 62 77 62 71 66
30 29 27 28 25 23 23 20 18 16 17 16 16 20 22 21 25 47 87 98 100 100 100 100 100 100 100 100 94 93 87 75 70 64 61 67 63 80 86 87 91 71 66 35
31 29 31 29 31 32 25 22 23 22 20 19 17 21 24 30 32 27 30 43 72 95 98 100 100 99 94 91 88 77 80 75 78 86 81 87 92 95 86 81 63 36 36 34
33 34 33 34 34 44 47 42 37 36 27 25 22 24 22 38 62 38 37 44 47 56 53 48 50 60 67 71 82 94 100 96 95 98 100 95 83 86 56 41 40 36 36 40
33 36 38 41 41 39 45 50 54 49 52 40 34 32 32 38 50 57 56 54 65 94 100 100 98 97 100 100 100 100 100 100 98 93 84 61 45 40 46 45 40 38 44 49
34 30 35 39 34 35 44 47 55 65 61 63 52 43 39 35 47 74 87 98 100 95 100 100 98 97 98 100 100 97 92 88 76 77 62 52 46 46 49 45 43 46 50 52
42 47 42 33 39 46 38 40 42 54 64 67 55 62 64 57 60 68 100 100 100 100 100 100 100 100 100 98 100 94 97 82 73 66 58 48 46 49 46 46 52 56 52 51
65 61 52 55 58 46 47 44 42 45 54 46 52 60 67 72 72 72 92 100 100 100 100 100 100 100 100 88 90 73 68 74 68 61 60 48 46 40 44 55 56 55 53 53
71 76 73 68 71 74 59 54 53 51 58 64 73 78 88 92 94 92 98 94 98 93 94 96 94 90 81 82 82 84 79 76 76 72 60 49 39 44 61 59 55 53 62 63
61 71 73 70 77 80 63 68 67 70 73 68 75 76 83 86 84 86 86 87 84 83 84 75 74 78 82 83 83 88 94 84 68 61 51 46 48 59 63 57 54 54 60 69
62 64 66 73 66 77 71 84 88 72 58 64 67 73 73 77 78 75 86 98 95 86 92 88 89 96 95 97 100 100 89 68 57 52 48 52 62 59 59 57 56 69 72 70
69 70 68 66 75 73 65 72 83 93 84 81 83 90 95 94 92 96 98 99 100 98 97 98 94 99 100 100 100 92 72 56 50 50 51 57 62 56 59 62 67 77 84 84
72 78 80 80 72 68 74 78 79 85 94 100 100 100 99 99 99 100 100 100 99 99 100 100 100 100 100 100 88 86 64 49 49 50 55 56 62 59 58 69 76 80 81 85
82 73 76 88 83 83 69 78 75 77 82 86 90 91 93 93 97 100 100 98 100 100 100 100 100 100 99 92 89 74 56 52 50 53 50 50 56 59 64 69 77 84 94 94
88 82 78 93 98 94 99 92 94 78 66 64 70 76 83 84 86 87 94 98 98 100 100 100 98 98 93 97 82 78 65 52 53 52 49 53 57 57 64 74 84 91 99 98

GFSCGP_250_rhum_063.txt.gz
RH
11 11 16 100 100 59 40 22 30 99 99 85 88 100 100 100 97 89 100 100 100 100 100 90 75 74 74 73 68 67 83 88 84 77 71 76 94 81 74 91 100 88 90 92
12 13 16 41 88 73 45 30 22 48 96 67 88 93 99 100 100 92 99 100 100 100 100 100 100 100 100 98 87 79 74 76 84 93 100 100 97 100 100 100 100 100 100 100
13 14 14 14 25 54 56 51 51 21 65 86 97 99 81 99 100 99 95 98 100 100 100 100 100 100 100 100 100 100 100 99 95 98 100 100 100 100 100 100 99 94 91 96
13 14 13 14 14 24 74 98 38 21 24 67 100 100 92 80 100 100 85 90 100 100 100 100 100 100 100 100 100 100 100 100 100 100 100 100 100 100 100 100 100 98 94 96
14 15 15 14 14 14 16 23 22 39 38 27 65 96 100 91 99 100 100 90 92 100 100 100 100 100 100 100 100 100 100 99 98 98 100 100 100 89 88 94 100 100 100 96
13 13 16 14 13 12 12 11 17 27 29 22 27 61 100 99 100 100 100 100 96 82 99 100 100 100 100 100 100 100 100 100 100 100 100 95 97 99 98 100 94 97 95 100
10 11 14 14 14 13 13 13 14 12 12 20 26 26 91 100 99 100 100 100 100 100 98 98 100 100 100 100 100 100 100 100 100 100 100 100 100 100 100 100 100 100 98 99
9 11 13 12 12 14 14 14 13 13 11 21 92 27 50 94 96 100 100 100 100 100 100 100 100 100 100 92 87 90 95 97 99 100 100 100 100 100 100 100 97 100 100 100
16 15 15 15 15 14 15 15 15 14 13 13 22 50 55 55 96 100 100 100 100 100 100 100 100 100 100 100 100 98 99 100 98 100 100 100 100 100 100 100 100 99 98 90
14 15 18 21 20 18 18 18 17 16 16 14 13 34 82 76 94 99 99 97 100 100 100 100 100 100 100 100 100 100 100 100 100 100 99 99 100 100 100 100 100 100 97 94
26 24 20 18 18 19 18 18 19 18 18 17 15 15 16 61 100 97 98 100 100 100 100 100 100 100 100 100 100 100 100 100 100 100 100 100 100 100 100 100 94 94 89 83
26 26 26 26 24 22 20 18 18 18 20 18 16 15 15 18 37 84 100 91 84 87 92 100 100 100 100 100 100 100 100 100 100 100 100 100 100 100 94 90 87 82 74 68
28 30 30 31 30 28 24 20 17 17 17 17 16 17 16 17 19 21 68 100 99 90 89 90 94 96 96 96 89 92 96 97 98 100 97 89 93 97 80 81 74 63 64 67
26 28 28 26 26 26 25 22 20 17 17 17 17 17 16 16 17 18 30 86 100 100 100 100 100 99 98 98 100 99 96 91 90 95 96 90 89 79 68 54 63 71 87 80
26 27 28 30 30 27 28 28 26 24 19 18 18 18 18 17 17 18 18 20 34 66 94 100 100 97 86 73 79 94 100 95 85 80 70 61 52 51 61 88 89 91 61 51
24 24 24 29 31 39 41 44 43 32 28 21 20 19 19 18 17 18 20 23 24 22 22 24 27 26 22 28 40 40 37 42 64 65 69 78 74 90 84 97 61 58 49 43
26 26 26 24 24 28 40 38 44 36 37 38 33 26 25 21 20 21 23 21 38 38 25 23 24 27 30 36 39 42 67 96 87 89 92 91 77 91 82 81 63 53 49 47
30 27 29 27 29 30 36 42 48 49 47 48 38 44 40 26 25 27 29 26 30 58 64 76 57 53 53 64 79 99 100 100 100 100 100 100 96 94 86 60 51 48 49 42
53 42 37 35 34 38 32 32 34 44 51 55 55 56 59 41 37 38 36 33 39 49 100 95 99 100 100 100 100 100 100 100 100 96 98 100 92 86 62 55 46 49 43 45
56 56 54 46 50 51 31 37 37 36 38 48 53 61 54 51 46 44 49 45 46 48 73 90 94 100 100 100 100 100 100 100 100 99 79 75 74 62 57 52 49 42 50 59
64 61 59 60 59 49 35 57 51 47 42 41 48 53 52 55 62 60 58 65 73 79 79 83 91 96 100 100 100 100 100 94 88 79 73 65 65 62 56 50 47 50 59 59
67 67 65 64 63 60 46 53 56 58 53 52 54 58 68 75 81 86 77 76 86 96 94 96 89 84 89 92 93 92 83 86 91 91 86 81 67 56 49 46 51 58 62 62
62 67 72 72 66 73 66 62 66 76 74 74 67 67 65 70 79 86 91 98 97 95 92 92 93 96 96 97 91 98 99 100 94 85 80 67 55 47 47 50 54 62 63 59
41 61 72 79 72 75 75 85 83 77 82 82 85 83 85 81 81 82 79 83 90 88 93 94 98 97 100 99 100 98 100 88 96 95 71 56 45 47 52 52 52 59 62 64
31 43 77 88 87 82 74 70 80 83 75 74 78 82 85 83 85 89 92 90 87 91 94 92 98 100 100 99 100 100 100 95 90 82 63 52 50 49 51 52 53 56 59 63
31 37 61 96 100 93 85 74 74 77 79 79 76 76 83 86 91 90 90 91 91 96 95 94 99 100 100 100 100 99 96 98 78 73 67 60 54 57 56 54 59 64 64 67

GFSCGP_250_rhum_066.txt.gz
RH
12 10 12 17 20 48 65 61 92 100 92 94 91 100 98 80 51 58 95 100 100 100 100 97 87 96 93 95 100 100 89 81 88 98 100 100 93 86 90 87 81 78 76 93
10 13 14 14 20 61 65 78 78 90 76 51 82 97 84 71 56 54 75 94 91 100 100 100 100 100 100 100 96 92 94 90 76 72 76 81 88 91 82 78 86 92 100 100
10 15 14 16 17 37 64 65 56 64 61 52 63 88 93 80 73 72 63 84 88 91 100 100 100 100 100 100 100 100 98 98 99 89 77 73 74 76 86 90 96 100 100 100
12 16 15 16 16 26 56 46 31 27 26 25 24 61 94 99 95 80 80 76 93 88 83 100 100 100 100 100 100 100 100 100 100 100 100 100 100 100 98 98 99 100 98 97
12 17 17 16 16 18 77 55 56 43 38 42 21 20 51 91 94 99 96 85 77 100 100 100 100 100 100 100 100 100 100 100 100 99 96 100 100 100 100 100 100 100 100 100
11 16 19 17 16 16 48 81 81 60 35 34 41 24 38 52 98 100 100 100 97 96 100 100 100 100 100 100 100 100 100 100 100 100 100 99 100 100 99 96 99 100 100 100
9 12 18 20 18 16 16 54 76 38 24 27 49 34 52 30 53 86 100 98 92 100 100 100 100 100 100 100 100 100 100 100 100 97 96 95 92 89 90 93 92 86 90 96
11 13 16 18 19 18 18 18 26 25 39 80 79 39 62 58 48 77 100 100 100 98 100 98 100 100 100 100 100 100 100 100 100 100 100 100 100 100 94 96 97 96 93 93
13 17 15 17 19 19 18 17 17 17 24 82 97 71 82 74 55 60 71 96 100 100 96 100 100 100 100 100 99 100 100 100 100 100 100 100 100 100 100 97 100 98 90 88
16 17 14 13 15 18 18 17 18 18 20 65 100 100 100 100 100 66 66 86 85 91 99 94 96 100 100 100 100 100 96 92 94 98 99 97 95 98 98 95 95 96 98 100
19 19 18 20 19 17 15 17 18 21 22 20 20 51 100 100 100 100 100 61 51 60 58 79 96 100 100 100 100 100 100 100 100 100 100 100 100 100 100 100 100 100 100 100
18 21 26 32 30 28 26 23 20 22 24 25 22 21 22 64 100 100 100 100 88 38 37 47 62 96 100 100 100 100 100 100 100 100 100 100 100 100 100 100 100 100 100 96
17 19 18 21 24 26 24 27 24 23 23 22 21 20 19 20 19 18 25 60 77 78 60 52 63 60 79 94 99 100 100 100 100 100 100 100 100 100 100 100 100 99 95 97
24 25 23 25 23 23 23 21 20 20 19 18 18 18 17 16 17 17 16 15 14 16 43 60 62 59 48 58 77 92 99 100 100 100 100 100 100 100 100 96 95 96 90 82
24 26 26 27 25 24 24 22 20 18 17 17 17 17 16 16 16 17 17 16 16 16 17 35 60 63 46 38 48 72 94 99 100 100 100 100 100 95 99 98 64 59 48 42
24 27 28 32 30 31 30 26 22 20 20 18 18 19 18 18 17 16 16 16 16 16 17 17 18 26 34 31 30 40 61 85 95 100 100 96 98 98 66 28 29 44 48 55
26 25 26 28 27 28 32 29 25 25 25 24 24 20 22 22 21 19 19 19 18 17 16 16 18 18 18 18 19 23 43 72 86 88 79 61 38 34 32 57 68 74 84 91
25 26 28 28 31 30 32 35 35 33 35 46 38 34 30 25 22 21 21 20 20 21 20 19 19 21 22 21 23 24 31 35 38 34 34 44 46 59 89 99 92 86 79 78
46 35 27 26 28 34 30 38 43 36 37 46 40 42 40 35 34 29 22 20 20 20 21 21 22 27 38 34 32 29 37 52 60 64 66 76 96 100 94 98 83 60 62 58
61 64 58 41 30 27 27 31 34 39 48 50 47 43 47 40 41 39 30 25 23 21 22 25 29 30 46 63 77 90 94 90 100 100 100 100 100 100 88 79 66 62 52 49
51 64 69 69 56 43 29 36 34 34 36 40 44 44 48 48 42 46 37 37 43 40 36 37 36 36 37 53 94 100 100 100 100 100 100 100 95 94 83 68 60 57 63 56
28 42 68 71 69 71 64 60 50 50 45 45 46 48 55 52 50 55 44 48 50 52 57 59 56 53 54 60 94 100 100 100 100 100 100 99 91 81 74 73 68 60 52 46
27 26 36 61 68 70 76 75 72 61 58 59 54 47 45 47 58 72 77 80 75 66 63 75 81 90 98 92 88 94 96 100 100 100 98 98 93 93 85 70 61 52 48 48
25 29 29 44 56 74 79 78 77 76 66 60 64 68 64 61 60 62 71 78 94 93 90 89 93 96 100 100 100 100 100 100 100 100 100 99 98 94 88 69 55 50 51 53
23 28 32 36 46 64 76 90 83 80 85 80 64 74 75 72 70 73 75 80 89 95 94 94 97 95 97 99 99 100 100 100 100 100 100 100 99 99 79 61 55 56 61 57
22 26 32 35 44 53 70 87 99 88 75 81 84 80 75 82 86 82 81 80 84 88 95 98 100 100 100 99 100 100 100 100 100 100 100 100 100 93 72 69 67 62 71 67

GFSCGP_250_rhum_069.txt.gz
RH
9 8 9 14 15 19 19 23 28 50 48 69 100 100 100 90 54 70 82 88 99 100 100 100 100 96 79 73 74 92 97 96 94 92 90 85 88 95 97 96 92 91 93 100
8 10 12 12 16 17 20 21 31 62 51 59 100 100 100 84 61 50 72 85 94 98 100 100 100 100 91 81 84 82 90 98 100 100 100 100 99 100 100 100 100 100 100 100
9 12 11 14 15 17 20 25 44 68 60 41 66 85 100 86 65 56 58 80 89 98 100 100 100 100 100 100 100 100 99 99 100 99 100 100 100 100 100 100 100 100 100 100
10 11 12 16 17 18 19 23 30 43 54 53 46 82 57 88 79 64 58 66 78 80 98 100 100 100 100 100 100 100 100 100 100 100 99 99 100 100 100 100 100 100 100 100
11 11 12 16 19 18 19 20 28 34 52 63 39 32 55 45 47 82 68 58 66 77 66 79 95 100 100 100 100 100 100 100 100 100 100 100 100 100 100 100 100 91 88 86
10 8 11 15 19 19 19 20 22 27 45 40 41 27 44 53 41 63 67 58 53 62 82 76 81 92 97 100 100 100 100 100 100 100 100 100 100 100 100 100 100 100 90 84
9 9 13 16 19 19 19 19 20 22 50 45 35 26 89 46 56 47 54 73 72 69 71 79 85 89 95 93 97 100 100 100 100 100 100 100 100 100 100 100 100 100 100 100
8 13 14 19 20 23 22 18 20 21 26 53 26 21 46 47 40 46 56 77 87 95 94 92 91 97 100 100 95 95 96 100 100 100 100 100 100 100 100 100 100 97 88 96
12 18 15 17 21 21 24 20 19 19 23 23 22 22 44 51 44 47 45 62 93 94 100 92 90 99 100 100 100 100 100 98 98 99 100 100 100 100 100 100 100 100 100 100
18 18 17 16 18 20 24 25 22 20 20 21 28 34 62 83 72 66 57 60 61 68 68 89 94 94 97 99 100 100 100 100 100 100 100 99 100 100 100 100 100 100 99 99
28 31 26 22 20 22 24 24 26 25 21 24 52 76 85 96 76 74 74 67 56 63 65 54 53 80 100 100 96 96 100 100 100 100 100 100 100 100 100 100 100 100 97 99
23 38 37 31 27 26 25 24 23 23 27 27 44 100 100 100 98 85 92 75 65 68 74 75 71 68 63 69 86 97 97 96 96 100 100 100 100 100 100 100 100 100 100 100
10 15 22 27 32 33 27 29 31 30 29 30 29 26 52 100 100 100 100 100 95 74 68 59 61 74 77 73 69 73 76 80 87 86 88 94 100 100 100 100 100 100 100 100
14 13 13 14 19 19 28 28 24 25 28 28 28 30 28 29 73 100 100 100 100 100 95 88 74 66 65 69 59 58 67 65 68 69 68 75 78 94 100 100 100 100 100 100
17 18 18 16 14 15 17 19 20 23 25 23 23 26 29 29 26 24 22 23 44 95 100 97 99 90 73 83 76 80 69 67 56 52 58 56 69 92 100 96 97 94 100 98
19 19 21 20 21 21 20 20 20 19 19 20 18 20 21 23 24 22 21 20 20 19 19 19 19 48 93 100 100 99 89 98 95 57 66 85 100 100 83 76 90 91 67 73
23 24 23 22 20 23 24 21 22 22 22 22 23 20 20 19 20 20 20 20 18 17 17 17 17 18 19 18 17 16 18 17 19 34 57 78 86 85 86 90 46 51 69 66
27 25 26 25 26 26 24 27 26 27 27 32 26 21 21 19 18 18 18 19 19 19 18 18 18 18 18 16 16 16 16 16 18 20 24 29 36 51 66 50 65 70 46 47
47 42 34 32 32 33 29 29 28 26 26 30 28 26 23 23 23 22 20 19 19 18 19 21 22 20 18 18 18 18 20 26 29 34 34 32 31 47 57 47 63 73 86 96
47 56 62 55 45 35 29 31 34 33 32 35 35 35 32 30 29 23 25 22 20 19 21 22 21 20 21 23 24 26 35 32 50 50 53 49 51 58 85 89 100 100 93 85
25 42 56 63 63 63 47 42 46 47 48 47 45 48 48 46 39 38 35 30 28 23 23 22 23 25 26 28 29 30 36 56 70 71 78 86 97 92 97 100 100 99 96 97
21 26 35 58 60 64 61 64 60 45 52 50 51 55 57 65 54 44 44 41 43 36 33 35 30 24 25 27 28 30 41 59 57 80 100 94 100 100 100 100 90 100 100 82
18 18 23 30 44 60 68 63 66 75 69 49 44 45 51 57 55 50 48 58 59 53 46 50 53 53 53 55 54 50 54 57 68 86 100 100 100 100 100 100 100 98 90 74
19 21 19 23 28 38 55 75 74 78 79 80 71 55 51 50 51 53 49 46 59 72 72 77 71 66 70 80 83 82 79 84 95 100 100 100 100 100 100 100 95 93 87 78
16 20 23 24 26 29 34 54 74 78 84 84 86 84 70 66 63 57 55 58 57 69 80 89 92 87 84 83 88 91 92 100 100 100 100 100 97 100 100 99 97 97 90 78
13 16 20 23 27 27 30 32 45 67 83 85 85 82 81 80 72 74 80 76 74 77 89 92 95 97 94 90 93 97 100 100 100 100 100 100 100 100 100 100 100 99 90 86

GFSCGP_250_rhum_072.txt.gz
RH
8 7 8 13 15 16 19 20 21 22 28 18 24 23 24 34 87 91 99 100 100 98 100 92 85 100 100 100 100 98 90 92 88 82 84 85 89 84 86 87 86 88 89 90
8 8 9 11 12 16 18 20 19 20 32 22 23 22 28 33 57 81 83 95 100 98 90 100 100 90 96 100 100 100 100 95 87 85 88 93 96 94 95 96 97 98 98 100
8 9 9 11 12 14 20 20 21 22 22 28 27 26 29 29 55 46 78 88 95 100 100 97 100 100 100 100 100 100 100 100 100 99 96 98 100 100 100 100 100 100 100 100
10 9 11 11 14 16 19 19 19 21 21 32 34 35 32 32 52 36 39 68 99 97 100 100 100 100 100 100 100 100 100 100 100 100 100 100 100 100 100 100 100 100 100 100
10 11 13 11 15 17 20 19 18 19 22 23 37 30 38 49 31 52 49 53 62 92 100 100 97 96 100 100 100 100 100 100 100 100 100 100 100 100 100 100 100 100 100 100
12 13 12 12 12 16 18 19 19 19 21 22 23 30 51 57 62 49 59 32 24 52 81 94 100 100 90 95 100 100 100 100 100 100 100 100 100 100 100 100 100 100 100 100
13 13 12 13 13 14 18 19 20 21 21 25 23 22 100 49 62 45 54 53 27 18 48 78 94 100 96 94 100 100 100 100 100 100 100 100 100 100 100 100 100 100 100 100
13 10 11 13 14 17 20 21 20 23 23 25 27 27 76 64 47 45 34 39 34 17 26 50 73 86 99 100 100 99 99 99 100 100 100 100 100 100 100 100 100 100 100 100
12 12 16 16 14 17 19 20 22 24 23 23 26 25 41 60 58 41 37 32 38 49 24 22 45 62 75 86 95 96 98 98 96 98 100 100 100 100 100 100 100 100 100 100
14 15 18 20 17 20 20 22 22 23 25 23 24 25 43 54 63 41 40 54 44 40 48 39 36 38 63 82 88 94 99 100 100 100 100 100 100 100 100 100 100 100 100 100
19 21 22 25 24 22 25 24 23 25 27 26 24 33 48 64 59 56 38 38 45 45 27 18 32 41 48 62 76 84 88 95 99 100 100 100 100 100 100 100 100 100 100 100
18 25 28 30 25 23 24 24 23 22 27 28 26 27 89 86 70 64 58 39 41 37 37 34 28 37 47 60 78 94 100 100 100 100 100 100 100 100 100 100 99 100 100 100
13 20 26 30 32 34 33 37 31 30 30 31 30 32 29 47 98 61 63 58 39 26 26 30 30 30 45 64 75 82 92 96 93 92 94 98 99 100 99 99 97 100 100 99
11 11 14 18 24 30 33 32 34 31 30 35 36 40 37 30 26 51 49 58 60 45 31 41 54 55 68 74 72 76 76 74 83 80 78 74 66 64 65 70 74 76 77 80
15 15 13 11 13 17 23 25 22 23 30 26 39 33 31 31 30 27 26 41 56 89 79 63 62 84 72 57 69 76 69 69 73 76 79 74 73 64 64 66 64 59 53 56
20 18 17 16 15 12 13 15 20 22 21 25 26 27 27 25 29 28 28 27 26 40 57 81 80 86 56 39 46 53 54 63 65 71 63 61 57 64 67 59 57 73 97 83
22 24 24 22 22 19 20 16 15 15 17 19 21 22 21 23 25 25 25 27 28 26 25 25 37 44 62 66 65 70 72 64 60 77 75 81 78 80 84 92 98 98 55 48
26 27 25 25 28 29 25 21 20 21 21 23 27 20 19 19 19 20 22 24 23 24 24 24 23 22 20 20 19 18 18 18 20 25 35 33 30 53 73 59 33 26 48 63
29 36 37 28 29 29 27 28 27 28 25 25 27 24 23 25 23 21 20 20 20 21 22 23 23 22 21 20 20 20 19 18 18 19 19 20 20 21 22 23 23 39 61 79
24 30 37 45 45 36 29 29 32 33 31 34 32 30 30 32 29 21 25 26 24 21 20 20 21 20 20 20 20 20 21 21 22 21 22 22 22 23 29 36 55 62 73 78
18 21 28 38 55 52 50 49 37 36 42 41 41 38 36 34 31 29 28 29 28 24 20 19 19 20 20 21 21 21 22 23 25 28 32 32 38 39 51 70 70 74 81 98
18 22 25 37 39 54 69 67 67 58 43 36 39 44 47 45 44 43 40 41 39 36 34 33 28 23 25 25 24 25 24 26 32 43 38 45 54 70 81 86 87 100 100 100
18 19 21 24 28 38 57 68 76 83 78 60 48 45 46 50 54 56 49 49 53 51 53 51 48 43 44 42 40 40 38 32 30 37 56 70 79 96 97 96 100 100 100 100
20 20 19 22 23 26 30 44 68 79 82 84 83 79 72 68 61 54 48 48 46 56 64 64 62 65 54 59 62 52 54 58 63 63 68 70 84 87 90 100 100 100 100 100
17 23 24 22 22 31 27 31 34 45 70 86 86 87 95 100 93 82 74 65 56 51 49 51 62 66 72 67 79 76 74 76 85 88 89 95 94 94 94 100 100 100 100 100
15 17 19 19 20 23 22 25 29 34 42 56 77 87 87 94 99 97 88 74 72 69 63 59 62 65 78 77 78 77 87 84 86 92 93 88 95 98 100 100 100 100 100 100

GFSCGP_250_rhum_075.txt.gz
RH
9 7 7 10 12 14 15 17 20 19 18 18 18 16 16 16 15 16 45 90 100 100 100 100 96 98 100 100 100 100 98 100 100 93 82 82 87 88 88 90 92 92 84 80
9 8 8 9 10 14 16 17 16 20 20 17 18 16 14 15 17 16 21 91 100 100 100 100 97 99 99 99 91 99 100 100 100 100 96 88 85 84 79 81 89 94 99 100
10 10 9 10 11 12 15 18 16 19 21 20 17 16 13 13 15 16 18 49 100 100 100 100 100 97 99 100 88 72 77 95 100 100 100 100 100 100 100 98 99 100 100 100
10 13 11 10 11 13 16 16 14 16 20 20 20 18 16 14 15 15 18 32 100 100 100 100 100 100 100 100 100 100 95 76 85 100 100 100 100 100 100 100 100 100 100 100
8 12 11 11 11 13 16 16 15 14 17 19 20 21 20 16 15 18 18 36 58 98 100 100 100 100 100 100 100 99 100 100 100 100 100 100 100 100 100 100 100 100 100 100
9 11 16 14 12 14 14 15 17 17 19 21 23 25 26 20 19 17 15 17 31 51 90 100 100 100 100 100 100 100 98 100 100 100 100 100 100 100 100 100 100 100 100 100
8 9 16 16 13 13 12 13 15 17 20 24 24 26 27 23 19 18 18 18 19 34 44 63 100 100 97 96 99 100 100 100 100 100 100 100 100 100 100 100 100 100 100 100
8 9 14 15 14 12 12 13 16 19 21 25 25 26 30 25 20 18 18 20 24 17 22 48 76 91 96 95 95 99 100 100 100 100 100 100 100 100 100 100 100 100 100 100
7 12 14 17 17 16 16 16 18 21 22 24 24 25 25 28 28 21 18 21 27 35 18 17 32 64 95 94 99 99 97 98 100 100 100 100 100 100 100 100 100 100 100 100
10 11 18 21 20 19 18 16 18 19 20 24 23 25 25 26 29 34 24 22 26 30 33 21 18 20 27 78 96 91 91 94 97 100 100 100 100 100 100 100 100 100 100 100
16 18 19 23 25 19 21 22 20 22 22 23 24 24 25 26 29 28 27 31 30 33 30 35 36 22 16 18 29 80 100 100 100 100 100 100 100 100 100 100 100 100 100 100
16 19 22 29 30 28 23 26 26 23 25 24 25 24 24 27 32 38 40 39 31 32 32 39 44 30 33 22 18 20 31 59 92 100 100 100 100 100 100 100 100 100 100 100
12 15 19 25 30 34 33 28 31 32 32 30 28 35 30 26 29 30 35 45 52 52 44 28 21 24 24 27 22 20 19 22 34 53 74 89 96 100 100 100 100 100 100 100
12 15 16 16 23 27 29 27 26 27 29 31 30 37 36 28 28 31 32 46 50 42 34 34 32 21 23 20 25 30 34 39 44 46 52 56 62 75 87 95 98 100 100 97
13 12 14 18 18 22 26 23 22 27 30 26 39 36 43 27 24 29 29 34 35 29 26 25 28 34 30 24 21 23 24 28 34 41 50 64 68 73 86 92 99 96 92 96
14 16 15 14 13 14 21 22 21 21 20 23 28 26 35 18 19 21 23 23 25 24 24 25 32 30 39 47 30 23 22 31 42 48 63 76 76 85 88 92 88 83 85 79
15 17 18 17 17 18 17 15 21 23 23 23 26 32 19 20 20 22 22 23 25 26 26 26 38 42 53 61 55 40 30 45 46 55 60 70 65 55 56 78 77 74 70 64
14 20 22 20 21 20 18 19 19 16 16 20 24 24 22 21 23 22 23 26 26 27 26 26 26 26 23 22 21 21 19 18 21 31 35 46 52 46 45 44 42 43 46 58
12 15 22 26 25 22 22 22 23 23 21 22 20 21 23 24 25 22 20 21 22 25 27 27 26 25 24 22 20 19 18 18 19 20 21 20 19 21 23 24 24 24 25 37
13 14 16 23 33 31 25 25 26 26 27 32 31 30 29 28 26 19 24 22 20 22 19 20 21 23 22 21 20 21 21 21 21 21 21 22 22 22 25 25 26 28 29 32
12 14 17 20 27 32 44 48 40 31 30 32 35 37 37 37 36 32 32 32 30 31 25 25 22 21 22 22 21 20 21 22 23 24 24 25 27 26 27 29 29 31 32 46
14 16 17 20 23 22 35 48 61 67 60 41 34 34 36 41 44 44 46 46 38 32 37 36 33 29 27 22 24 24 23 23 24 25 26 27 29 30 34 41 46 53 68 77
13 15 18 21 24 28 30 37 46 64 69 66 64 53 37 36 39 41 44 49 53 59 57 62 63 52 51 50 45 45 48 46 38 31 28 28 31 34 47 58 75 81 76 98
12 16 17 20 24 25 30 34 37 37 49 63 68 71 72 68 53 40 39 42 50 60 67 63 58 62 69 73 72 65 54 58 64 66 60 51 47 48 57 66 76 82 83 88
10 13 18 24 21 32 28 28 32 37 39 43 55 73 75 67 74 76 66 58 55 56 58 60 60 55 58 60 61 68 63 61 80 72 67 81 83 83 82 80 80 85 93 90
11 13 16 20 18 27 28 32 28 30 31 33 37 41 62 81 77 78 90 89 86 84 76 67 67 68 61 58 50 55 59 67 80 90 88 84 83 86 89 91 92 95 99 100

GFSCGP_250_rhum_078.txt.gz
RH
7 6 7 10 12 11 13 20 22 17 18 16 17 18 18 18 18 19 41 90 100 100 100 100 100 100 100 99 93 100 100 100 100 100 100 100 98 89 90 90 87 84 86 84
9 8 8 9 11 12 14 17 20 21 17 16 16 16 18 17 17 17 18 38 69 100 100 100 100 100 100 100 100 90 91 100 100 100 100 100 100 100 100 100 91 88 87 89
9 10 10 10 12 13 13 14 17 21 20 16 18 16 16 18 18 18 17 19 29 60 93 100 100 100 100 100 100 100 100 100 100 96 96 100 100 100 100 100 100 99 97 97
10 12 11 11 12 13 15 14 15 14 16 18 17 18 18 16 16 16 17 17 20 22 67 100 100 100 100 100 100 100 99 100 100 100 100 100 100 100 100 100 100 100 100 100
8 11 13 12 12 14 17 15 14 14 13 14 16 19 20 18 16 17 16 17 18 20 21 73 100 99 100 100 100 100 100 100 100 100 90 80 82 87 96 100 100 100 100 100
9 10 14 12 13 14 16 18 16 15 14 14 15 18 22 19 18 16 14 15 17 19 21 22 75 100 100 100 100 100 100 100 100 100 100 94 80 75 78 89 100 100 100 100
5 9 18 15 15 15 18 17 16 16 16 17 16 16 21 20 18 16 14 13 15 18 21 22 24 90 100 100 100 100 100 100 100 100 100 100 100 100 100 100 100 100 100 100
7 10 15 19 17 16 17 18 17 19 21 19 17 17 19 18 20 18 18 15 14 15 18 20 26 30 98 100 100 100 100 100 100 100 100 100 100 100 100 100 100 100 100 100
8 12 18 20 18 16 15 16 17 19 21 19 17 17 16 20 20 22 21 21 19 17 16 20 22 30 35 99 100 100 100 100 100 100 100 100 100 100 99 99 97 100 100 100
8 12 17 20 19 18 16 15 16 17 19 18 18 20 19 19 20 20 23 24 22 22 19 18 20 28 48 59 95 100 100 100 100 100 100 100 100 100 100 100 99 98 100 100
10 11 15 20 23 22 18 16 17 19 20 20 19 20 19 22 22 22 24 27 24 24 24 21 20 20 30 44 46 75 100 100 100 100 100 100 100 100 100 100 100 100 100 100
10 15 20 20 21 22 22 19 18 18 18 17 18 20 18 21 24 26 25 28 29 26 24 27 24 22 20 21 34 44 62 73 78 97 100 100 100 100 100 100 100 100 100 100
10 12 18 24 28 28 30 26 22 21 20 21 20 22 21 20 23 24 25 25 26 26 25 24 25 25 23 21 20 18 34 56 51 46 60 83 91 98 100 100 100 100 100 100
10 10 13 17 20 27 28 29 29 30 31 28 29 24 22 20 18 22 26 29 30 29 28 25 24 24 23 21 22 27 22 19 25 35 44 45 54 66 77 93 100 100 100 100
12 11 12 15 19 25 26 26 24 26 27 28 30 26 24 17 17 20 24 27 28 28 25 24 24 23 23 22 21 20 21 24 28 26 22 23 26 27 32 40 46 58 73 80
12 15 13 13 18 20 26 27 27 26 24 30 26 28 29 13 12 17 21 23 24 24 22 22 22 22 22 21 20 21 21 21 20 21 21 22 26 32 46 41 48 57 53 64
9 10 16 16 15 16 19 20 23 26 26 26 30 42 20 18 13 14 17 21 23 22 23 25 25 24 24 23 22 21 22 22 20 21 22 26 26 25 37 35 35 33 36 43
11 10 10 15 18 17 16 16 16 18 23 29 34 34 34 27 20 22 22 19 18 19 22 23 25 27 27 25 24 24 26 29 29 27 27 26 34 39 47 42 40 40 44 45
11 12 13 12 20 21 19 18 21 20 20 19 20 24 31 34 29 22 21 24 24 25 27 28 28 28 28 29 29 28 28 27 22 20 20 21 24 27 25 24 25 26 31 35
12 12 15 15 17 18 19 26 25 24 25 26 23 22 22 24 23 22 27 28 27 27 27 27 27 27 27 28 28 28 26 24 23 23 24 25 27 26 26 25 24 24 26 26
12 13 15 17 18 19 22 30 33 39 32 27 25 24 24 25 26 25 27 24 25 26 27 27 28 26 26 27 28 27 25 25 27 27 27 28 26 26 26 27 28 27 28 29
12 12 14 18 23 18 24 32 34 38 40 46 39 30 29 28 27 27 32 35 33 34 35 36 36 29 31 30 27 26 27 28 28 28 29 29 29 28 26 27 28 28 29 30
13 12 12 13 17 24 23 28 33 35 35 38 47 55 51 43 35 32 31 34 37 37 39 40 36 37 42 42 43 40 38 33 43 39 33 30 29 26 26 27 28 30 31 36
14 14 13 13 14 19 27 25 27 28 34 37 37 50 66 69 69 64 50 37 37 43 44 44 49 54 51 53 58 58 54 52 47 52 53 55 54 45 37 32 31 37 38 46
14 13 13 14 13 19 20 24 28 30 32 36 34 34 43 54 65 70 70 70 69 58 46 46 52 53 53 53 56 58 59 59 60 58 57 59 70 68 63 59 57 55 57 60
16 12 12 12 12 15 18 21 20 22 26 30 31 32 35 36 40 52 61 69 72 76 77 71 63 56 58 59 60 59 60 54 53 53 56 60 73 79 77 76 73 69 69 72

GFSCGP_250_rhum_081.txt.gz
RH
5 6 7 7 9 12 13 19 19 18 14 15 16 16 18 19 37 89 94 100 100 100 100 100 100 100 100 100 100 89 99 97 95 100 98 100 100 100 100 100 94 91 84 79
5 7 8 7 8 10 13 13 20 20 21 18 16 16 18 19 20 62 84 100 100 100 100 100 100 100 100 100 100 100 100 98 91 98 100 98 88 97 100 100 100 100 100 95
5 6 8 8 8 12 14 14 18 24 23 18 17 19 18 19 19 22 57 94 99 100 100 100 100 100 100 100 100 100 100 100 100 91 100 100 100 96 91 91 98 100 100 100
5 7 12 10 10 12 14 15 20 28 24 20 17 20 19 19 19 18 20 33 66 86 100 100 100 100 100 100 100 100 100 100 100 100 100 100 100 80 83 85 91 100 100 100
7 9 15 12 11 14 16 17 23 23 26 22 19 20 19 21 20 20 19 18 19 25 33 81 100 100 100 100 100 100 100 100 100 100 100 100 100 100 100 94 97 100 100 100
7 12 16 13 12 13 16 16 16 17 20 23 21 20 21 19 18 18 18 19 19 18 19 25 81 100 100 100 100 100 100 100 100 100 100 100 100 100 100 100 100 100 98 88
7 10 16 15 13 13 15 17 17 16 19 24 22 21 21 21 19 17 17 19 19 19 20 19 23 53 91 100 100 100 100 100 100 100 100 100 98 97 98 100 100 98 93 83
5 9 14 15 14 16 16 16 16 17 18 17 18 18 18 18 20 20 19 18 19 20 20 20 21 22 23 31 66 97 100 100 100 100 100 100 100 100 100 100 100 100 100 100
12 15 16 17 16 16 16 14 19 19 20 20 17 16 14 13 16 22 21 21 20 20 19 20 21 22 23 23 24 35 70 90 100 100 100 100 100 100 100 100 100 100 100 100
10 14 20 22 21 18 17 18 20 19 19 17 17 15 12 13 14 16 22 23 24 22 21 20 20 22 21 22 22 24 33 63 85 100 100 100 100 100 100 97 100 100 100 100
8 12 16 22 25 24 20 20 19 19 20 18 16 15 12 13 14 15 16 20 23 24 23 22 22 22 22 22 23 24 25 28 39 77 94 100 100 100 100 100 100 100 100 100
10 12 15 16 20 24 24 21 20 19 18 17 17 16 15 14 16 15 15 16 19 23 25 24 24 23 23 23 22 22 22 23 26 33 44 84 100 100 100 100 100 100 100 100
11 13 16 19 22 23 25 24 22 18 18 19 19 17 18 15 15 14 14 16 17 21 23 22 25 26 26 25 24 23 23 22 21 21 26 32 45 85 99 100 100 100 100 100
12 13 15 15 18 20 24 26 26 25 23 24 23 20 20 15 14 15 15 17 18 19 21 23 24 25 26 27 26 25 26 25 25 24 23 23 28 40 65 90 100 100 100 100
12 16 15 17 18 20 20 22 27 30 28 26 27 25 20 18 15 14 17 18 18 19 21 22 22 22 22 23 25 26 27 26 25 25 25 25 26 26 34 48 55 59 63 83
11 12 16 16 16 22 22 20 22 25 26 24 25 24 20 16 13 16 17 18 19 19 17 18 19 22 21 20 20 21 23 24 27 27 26 24 23 23 23 25 30 41 52 71
10 12 13 15 18 16 24 22 23 25 28 25 27 28 18 21 16 14 14 16 17 16 17 18 17 19 19 19 20 22 23 25 25 25 25 25 25 24 24 24 24 24 26 27
12 11 12 14 20 24 20 17 23 29 30 31 36 33 26 22 20 16 15 15 17 17 16 17 19 21 21 21 21 22 24 24 24 24 25 26 24 24 22 22 24 23 25 25
12 11 13 15 16 23 29 25 24 21 19 22 26 28 31 33 33 25 24 23 22 21 23 22 20 22 22 22 23 23 23 23 23 24 24 24 25 25 24 26 30 28 28 24
15 12 11 12 16 18 18 20 33 31 27 26 22 20 20 24 28 27 26 28 28 30 32 28 26 30 30 30 29 26 24 24 23 23 23 24 24 24 26 26 24 26 27 27
18 14 11 12 13 16 17 18 21 24 40 27 27 24 23 24 24 21 21 22 21 24 28 30 32 33 32 32 31 32 32 32 30 27 26 27 27 26 25 26 27 28 27 26
17 17 13 12 13 13 14 21 24 28 34 34 37 44 36 30 29 28 28 27 25 24 25 26 28 28 30 31 32 31 32 34 34 34 32 33 32 31 30 29 28 30 31 30
27 20 18 11 12 14 16 18 22 27 33 37 37 39 52 53 50 37 31 32 32 31 30 31 34 38 41 43 44 46 46 43 40 36 35 37 39 34 31 29 28 26 26 25
36 26 17 15 10 12 15 16 19 24 32 40 40 44 46 52 58 61 65 58 42 35 35 36 37 39 42 46 52 53 56 57 56 56 53 50 56 56 51 47 42 37 35 32
33 27 28 15 10 9 11 13 15 18 22 33 45 44 43 47 51 56 62 65 74 80 69 49 40 43 46 47 49 52 52 56 65 70 68 62 56 66 65 59 55 52 48 48
38 33 28 18 12 8 8 10 11 14 17 22 25 37 49 42 41 44 48 54 58 62 75 82 80 75 64 50 47 49 55 63 65 61 59 58 56 59 61 63 66 68 69 66

GFSCGP_250_rhum_084.txt.gz
RH
3 5 6 6 9 9 16 21 29 36 33 24 18 13 16 17 17 18 20 52 100 100 99 100 100 100 100 100 100 100 83 77 75 80 86 88 95 89 100 100 100 100 100 100
3 4 7 7 8 8 11 16 23 33 38 24 18 16 14 15 16 18 19 20 24 48 56 95 93 100 100 100 98 100 77 91 83 82 86 89 95 100 100 100 100 100 100 100
3 4 8 9 8 6 9 14 13 17 18 16 17 15 17 16 19 19 20 21 22 35 34 72 92 100 100 100 100 100 96 100 99 79 90 100 100 99 100 100 100 100 99 100
4 5 8 11 9 9 10 13 14 16 17 17 17 19 20 16 17 18 19 18 21 31 47 85 89 100 100 98 100 100 100 100 100 100 99 100 100 100 100 100 95 86 78 78
4 5 7 12 10 8 10 11 12 15 17 16 21 25 22 18 17 21 20 19 22 26 75 67 100 95 100 100 100 100 100 100 100 100 100 100 100 100 100 100 100 99 85 78
4 6 9 14 13 10 10 11 12 13 13 16 25 33 23 20 18 19 20 19 20 23 40 49 100 100 100 100 100 100 99 100 100 100 100 100 100 100 100 100 100 100 100 100
5 8 14 19 16 12 11 13 17 18 16 18 21 30 26 22 22 20 21 20 20 20 23 30 92 100 100 100 100 100 100 100 100 100 100 100 100 100 100 100 100 100 100 100
6 7 11 16 17 14 12 14 16 16 17 18 19 26 30 24 24 21 22 21 21 20 22 23 44 100 100 100 100 100 100 100 100 100 100 100 100 100 100 100 100 100 100 100
6 8 10 15 18 15 12 12 16 18 19 19 18 18 26 19 25 25 22 21 21 21 20 23 21 93 100 100 100 100 100 100 100 100 100 100 100 100 100 100 100 100 100 100
12 11 12 15 16 16 14 16 16 16 17 17 17 15 16 18 21 24 23 22 21 21 21 22 21 24 37 78 94 93 94 96 100 100 100 100 100 100 100 100 100 100 100 100
8 9 13 18 22 20 17 15 15 16 16 18 18 17 18 19 17 19 21 24 22 23 22 23 22 23 26 24 24 25 25 25 26 32 59 98 100 100 100 96 98 100 100 100
10 11 13 16 20 21 21 18 17 18 17 18 19 19 18 18 16 16 15 15 21 24 24 24 23 23 25 25 26 26 26 26 25 25 26 28 34 39 38 38 47 54 57 74
13 12 13 16 21 24 26 23 21 20 22 21 20 18 17 16 17 16 15 14 14 15 18 22 24 25 27 26 25 25 25 26 25 25 26 26 26 27 27 27 28 28 30 35
13 14 15 15 17 21 24 28 26 23 23 21 21 18 17 17 15 14 16 16 15 14 14 15 16 18 20 23 26 28 28 26 24 23 23 23 24 24 24 25 26 27 30 31
11 13 18 19 18 19 17 22 30 35 31 30 25 21 18 17 16 15 15 16 17 16 16 15 15 16 16 16 18 21 24 28 28 26 25 24 22 22 21 21 22 24 24 24
15 11 11 15 20 21 24 25 22 29 28 31 30 32 26 22 20 16 14 15 17 16 16 15 15 15 14 15 16 19 21 23 24 28 28 27 26 26 24 24 23 23 22 23
14 14 13 12 12 20 25 22 24 27 28 23 29 33 25 26 22 19 16 15 16 15 16 14 14 15 14 16 16 17 18 19 21 22 24 26 29 30 29 27 27 26 27 28
19 18 14 13 13 14 17 21 22 21 25 27 29 30 28 27 27 23 19 20 20 19 17 16 15 15 16 16 17 18 17 18 19 20 22 24 25 25 27 29 30 30 30 29
21 16 16 15 12 13 14 15 18 27 27 29 31 33 32 30 29 26 30 29 30 28 24 26 25 21 18 18 19 20 18 19 19 20 22 22 22 23 24 25 27 26 26 26
37 29 24 19 15 12 12 13 17 20 32 36 29 27 27 27 28 25 25 26 29 31 37 37 35 32 28 24 24 20 20 21 20 19 20 21 22 23 25 25 24 24 24 24
33 25 22 18 21 15 10 12 13 15 26 29 30 33 32 28 28 24 22 20 20 20 21 27 34 34 36 32 29 26 27 26 26 24 22 22 22 23 22 22 23 24 25 24
36 25 17 15 16 18 14 10 11 14 18 24 27 28 40 45 40 35 32 30 26 23 22 21 20 22 24 31 37 39 36 35 32 29 29 28 27 26 26 24 24 25 24 24
69 46 41 27 20 17 16 12 9 10 13 16 23 23 24 35 45 49 46 34 35 34 29 27 26 25 24 24 26 28 30 34 37 36 35 35 34 33 33 31 30 28 28 26
73 62 47 48 30 17 16 13 9 8 10 13 16 20 26 29 37 43 46 58 63 51 38 33 32 32 33 32 33 37 41 47 48 48 56 53 56 50 47 50 49 52 44 38
67 60 59 49 29 18 18 12 10 7 8 9 12 14 18 23 33 38 44 50 55 70 80 78 60 45 40 41 43 43 45 51 57 61 57 58 60 62 60 58 56 58 60 61
54 65 60 58 42 18 13 11 8 6 6 7 9 12 14 17 23 34 42 47 47 52 62 72 85 93 90 83 68 52 50 54 54 55 62 63 63 66 62 58 57 64 70 70

GFSCGP_250_rhum_087.txt.gz
RH
2 3 4 5 6 7 13 20 18 27 37 43 34 43 26 17 18 18 19 28 100 100 99 93 88 99 100 100 100 100 100 99 100 100 100 100 100 100 100 100 100 100 100 100
3 4 4 5 7 8 11 14 21 31 52 54 30 30 39 15 20 18 18 22 63 93 100 85 83 80 92 100 100 100 100 100 100 100 100 100 100 100 100 100 100 100 100 100
3 4 6 6 7 7 9 13 17 24 34 38 49 37 18 19 15 21 19 19 20 20 50 100 98 80 79 94 96 99 100 100 100 92 100 100 100 100 100 100 100 100 100 100
3 4 6 8 8 7 9 13 17 22 30 39 42 32 16 18 24 19 23 20 20 21 23 93 100 100 92 91 100 100 100 100 100 100 95 79 100 100 100 100 100 100 100 100
3 4 6 10 9 8 10 11 15 22 27 25 24 25 15 17 20 21 24 25 23 22 21 24 49 98 100 100 100 100 100 100 100 100 99 97 98 100 100 100 100 100 100 95
4 5 8 12 12 10 10 16 13 18 17 18 26 22 16 16 19 18 24 27 24 23 22 22 25 30 72 93 99 100 100 100 100 100 100 80 100 100 100 100 100 100 100 100
6 6 6 10 13 13 13 11 13 9 12 18 26 22 15 21 18 23 27 20 21 23 22 21 24 25 25 36 40 67 98 100 100 100 100 100 78 64 74 91 100 100 100 100
5 8 12 16 15 15 12 11 10 11 11 16 19 24 19 18 18 21 28 27 25 20 20 20 22 24 25 25 31 31 35 50 96 100 100 100 100 100 100 98 87 79 86 91
6 7 9 14 15 15 14 13 12 12 15 16 19 22 25 26 26 27 33 32 26 21 20 20 20 24 24 26 26 37 48 74 87 100 100 100 100 100 100 100 100 100 100 99
7 8 9 12 15 16 16 15 15 15 16 17 18 21 25 18 22 24 26 26 22 22 23 22 21 24 25 23 25 28 78 80 91 100 99 100 100 100 100 100 100 100 100 100
8 9 9 12 15 18 17 16 15 14 16 18 17 16 18 18 16 17 19 23 24 21 24 26 24 24 24 24 24 26 44 100 100 98 99 100 100 100 100 99 100 100 100 100
10 9 11 12 15 17 18 17 16 16 17 17 18 19 19 19 16 17 17 17 20 19 22 25 28 26 26 25 25 24 27 29 71 100 100 100 100 100 100 100 100 97 100 99
10 10 11 11 13 14 20 22 19 17 15 16 17 20 20 20 19 18 18 17 17 17 18 20 25 29 28 27 26 26 27 27 28 27 53 100 100 100 100 100 100 100 100 94
12 12 11 14 15 16 17 20 22 22 21 19 20 19 21 19 19 18 16 18 19 18 19 20 20 25 30 30 28 26 27 27 28 28 28 29 50 79 93 98 93 89 67 43
20 14 13 11 13 17 17 19 21 26 22 23 19 19 18 19 18 17 16 16 19 20 18 17 15 15 19 25 29 28 26 26 28 28 28 28 29 29 29 28 27 28 28 27
16 18 19 14 12 13 17 19 19 21 20 25 25 27 20 19 20 20 18 17 18 20 17 15 16 15 16 16 17 19 24 27 27 27 26 26 26 26 26 26 25 25 25 25
22 21 20 22 18 14 12 12 17 21 21 24 30 27 25 24 22 24 22 18 17 18 17 16 14 14 15 15 14 16 16 17 18 18 18 21 23 24 25 26 27 28 28 29
27 20 20 17 21 21 17 13 13 15 19 19 28 30 23 28 30 28 27 26 23 20 19 18 17 18 15 17 16 15 15 16 16 16 17 17 17 18 20 22 24 26 27 28
45 45 32 29 19 17 19 20 16 14 15 22 24 27 28 25 25 25 27 27 28 29 29 27 22 20 18 17 17 18 17 16 16 16 17 19 21 20 22 23 25 25 25 24
51 56 45 30 26 22 16 16 14 13 16 14 20 25 27 28 24 23 23 24 27 28 31 37 35 37 37 32 28 24 23 24 22 20 19 19 18 19 19 20 20 21 22 23
65 66 55 36 33 22 14 12 12 14 13 14 16 17 23 28 28 27 25 23 22 22 23 24 30 34 38 37 33 36 34 28 25 25 23 22 22 21 20 20 20 20 21 22
59 74 69 49 42 35 22 18 12 11 14 13 13 14 16 21 27 36 36 34 29 26 24 23 21 20 22 27 32 35 34 32 29 27 29 35 30 29 28 25 25 24 24 24
60 58 68 64 63 45 39 24 16 12 10 11 10 10 15 16 19 24 31 33 37 38 32 27 25 25 25 25 23 22 23 24 28 32 35 40 39 37 35 38 34 34 32 31
62 61 74 69 65 50 39 28 24 15 9 8 8 8 9 13 14 17 23 32 42 50 53 47 37 31 30 31 31 29 28 28 27 27 30 34 39 42 43 43 43 41 40 38
64 68 76 76 79 78 70 37 22 9 10 6 6 6 7 8 12 15 18 27 36 41 49 58 65 66 57 44 38 38 39 38 38 37 36 40 43 44 50 52 50 48 52 50
58 69 69 68 81 78 67 61 34 18 7 5 5 5 6 6 8 11 14 18 28 45 53 59 60 68 78 80 72 59 48 47 49 50 53 58 57 50 51 56 58 56 53 56

GFSCGP_250_rhum_090.txt.gz
RH
2 3 4 4 4 4 6 7 6 10 15 11 18 23 17 18 27 28 82 100 100 100 94 95 100 100 100 100 100 93 85 90 95 100 95 77 100 100 100 100 100 100 100 100
2 2 3 4 5 5 6 8 9 11 15 19 31 23 21 16 24 27 27 52 100 100 100 100 100 100 100 100 100 100 97 75 73 69 77 82 100 100 100 100 100 100 100 100
2 3 4 6 6 6 7 9 9 13 21 29 29 21 24 20 20 23 29 25 82 100 100 97 86 100 100 100 100 100 99 68 87 64 79 82 71 84 99 98 100 100 100 100
2 3 5 9 8 7 8 9 11 16 21 30 27 37 33 24 21 22 27 28 23 57 100 100 100 99 90 92 95 98 100 99 100 75 80 77 78 96 93 90 100 100 100 100
3 3 5 7 7 8 9 10 11 16 26 37 34 38 20 24 24 15 21 30 29 24 42 100 100 100 99 100 100 99 100 88 82 100 79 94 100 100 100 92 99 100 100 100
3 5 6 10 9 9 9 10 12 17 31 32 28 29 17 23 24 18 18 22 32 28 26 84 100 100 100 100 100 100 100 100 100 100 95 100 100 100 100 100 98 94 100 100
4 6 7 12 9 9 8 11 15 17 24 33 26 22 21 15 27 23 24 20 24 31 28 27 84 100 100 100 100 100 100 100 100 100 100 100 100 100 100 100 100 100 100 100
5 7 9 13 12 11 10 11 13 15 16 22 28 34 35 26 20 21 22 25 22 23 31 32 25 27 26 38 56 33 92 100 100 100 100 100 100 100 100 100 100 100 100 98
5 5 7 10 14 14 12 13 15 15 15 18 22 28 31 30 26 22 22 17 17 20 21 28 34 35 32 28 25 23 28 29 71 100 100 100 99 100 100 100 100 100 100 100
6 6 6 7 12 13 14 13 12 13 14 19 23 23 24 27 27 20 18 16 15 14 17 25 35 43 39 36 33 26 23 22 23 32 84 99 100 100 100 100 100 100 100 100
6 7 9 9 12 17 14 14 13 12 11 13 18 21 22 24 25 25 23 26 29 34 36 35 37 40 36 33 30 29 25 23 23 25 27 28 52 58 54 53 67 100 100 100
9 9 9 10 11 14 16 17 16 14 12 14 16 20 28 29 33 38 40 44 40 32 28 23 25 30 30 29 28 29 29 25 24 24 26 28 30 32 46 38 32 34 39 64
9 11 10 11 12 13 14 17 19 18 16 15 18 21 23 23 24 25 22 22 23 22 20 20 19 18 22 24 28 30 28 26 24 23 23 27 31 30 30 31 55 72 46 60
9 10 11 11 11 14 14 16 18 20 22 20 17 16 16 16 16 16 18 18 19 20 20 20 18 17 17 19 23 28 30 28 26 25 25 26 28 27 26 29 33 46 79 99
22 15 11 11 12 11 12 15 16 18 19 21 20 19 17 16 14 13 13 14 16 18 19 19 19 18 17 17 19 24 29 31 28 27 28 27 26 26 27 30 34 35 34 39
34 30 20 15 14 14 13 14 13 14 17 21 21 24 18 18 17 16 16 15 16 16 16 15 15 16 18 17 16 16 19 27 32 31 28 28 29 28 28 28 29 30 29 29
43 35 31 26 19 21 15 14 13 13 14 16 18 21 17 22 23 22 20 19 17 17 20 18 16 15 17 17 16 16 16 16 19 26 32 32 30 29 29 29 28 28 28 28
51 44 42 41 42 32 26 16 14 13 12 14 18 18 17 19 21 26 28 28 27 24 20 19 19 18 17 16 15 14 13 14 16 17 19 20 24 28 31 31 30 30 30 31
58 65 60 48 32 22 25 28 17 15 13 13 12 15 18 18 18 20 21 24 27 31 32 33 32 30 25 21 18 18 16 15 15 16 17 17 17 18 19 19 20 20 20 23
50 60 64 68 55 54 31 23 18 21 17 15 14 14 15 19 19 20 21 21 21 23 29 34 36 35 36 36 32 30 28 24 22 21 18 18 18 18 19 21 22 21 20 21
50 57 61 58 56 55 52 37 37 28 22 13 11 14 15 13 15 19 17 21 24 25 26 26 26 31 35 37 42 40 33 30 29 28 26 23 21 19 18 18 20 18 18 18
49 53 55 56 59 59 47 52 32 31 29 21 14 10 10 13 15 16 18 16 19 24 23 25 27 26 25 27 35 39 36 31 31 32 31 28 26 22 20 20 20 18 19 18
48 50 55 60 63 72 76 73 64 43 25 22 16 10 8 8 10 10 12 16 17 18 25 28 30 31 28 26 27 27 26 27 29 30 30 32 32 32 32 33 31 29 27 24
51 50 53 60 66 64 73 82 76 44 29 19 10 8 7 6 6 6 9 9 13 18 20 25 30 35 37 35 32 32 30 28 27 26 25 25 25 26 28 32 35 37 37 37
53 52 55 61 73 74 81 90 88 66 32 22 12 6 5 5 5 5 6 7 8 12 18 25 31 38 44 46 44 42 39 34 34 34 32 29 29 31 30 29 29 30 35 38
67 55 59 69 69 74 94 84 81 83 56 32 27 8 4 4 4 4 5 5 7 8 12 19 32 44 51 54 56 57 58 57 52 45 42 39 41 43 44 46 48 47 49 50

GFSCGP_250_rhum_093.txt.gz
RH
1 1 2 2 3 4 5 8 11 12 13 9 11 14 18 29 44 48 66 51 100 100 98 91 100 100 100 100 87 91 100 100 100 100 60 92 100 82 85 78 95 100 100 100
1 2 2 3 4 4 5 9 14 18 28 14 11 13 14 24 37 52 71 89 75 100 100 100 99 100 100 100 95 94 100 100 100 100 100 94 100 94 100 79 73 100 100 100
2 2 2 4 6 5 6 9 13 16 22 17 9 13 10 18 30 44 54 88 100 95 100 100 100 100 100 98 69 89 100 100 100 100 100 97 80 67 100 97 87 88 100 100
2 2 2 3 5 5 6 8 10 12 12 13 16 9 16 16 23 40 46 48 91 100 100 100 100 100 100 100 71 71 88 100 88 72 93 94 100 83 99 100 98 87 99 100
3 3 4 6 6 6 6 7 10 11 15 18 13 8 7 11 17 28 42 57 48 87 100 100 100 100 100 100 100 100 80 100 100 100 78 81 100 99 100 97 81 94 87 87
3 3 4 6 6 7 7 7 9 8 10 9 10 9 9 15 14 14 28 40 50 41 51 100 100 100 100 100 100 100 100 96 90 100 100 99 88 88 98 98 97 100 100 100
4 4 5 7 9 9 8 8 8 9 9 12 12 14 14 20 21 21 19 30 44 46 40 39 78 100 100 100 100 100 100 100 100 100 100 100 100 94 90 100 100 100 100 100
3 5 7 8 8 9 10 9 10 8 9 10 10 12 14 17 20 21 26 24 34 43 46 43 37 43 91 100 100 100 100 100 100 100 100 100 100 100 100 100 100 100 100 100
5 4 5 8 10 9 8 10 9 9 10 10 12 12 13 15 19 21 29 40 33 36 38 43 44 38 36 45 75 100 100 100 93 95 95 100 100 100 100 100 100 100 100 100
5 7 7 7 9 10 11 11 11 11 11 12 14 15 17 25 20 21 21 25 24 20 26 28 30 37 38 34 31 34 59 95 100 100 100 99 100 100 100 100 100 100 100 100
6 5 8 10 11 12 11 12 13 13 13 14 16 19 23 19 20 18 18 20 23 25 21 22 26 28 34 34 33 28 27 41 50 62 100 100 100 100 98 100 100 100 100 100
9 9 7 8 12 14 16 14 11 10 12 13 19 32 29 27 26 24 23 24 23 24 24 26 24 26 27 30 37 43 42 34 30 34 37 84 100 100 100 100 100 100 100 100
10 10 10 10 10 11 15 19 19 16 14 14 17 18 21 27 32 31 29 27 29 25 22 20 23 28 32 32 34 35 37 39 40 35 28 34 61 79 77 59 48 34 33 34
14 13 12 13 13 12 12 12 15 17 18 17 15 15 17 16 16 20 22 22 22 21 21 21 22 23 24 24 26 28 30 32 34 36 35 27 24 28 30 27 25 26 27 29
27 27 21 18 14 14 14 14 14 15 18 21 18 19 16 13 13 13 15 16 17 20 22 24 25 23 20 18 16 17 18 21 26 30 31 32 32 32 30 30 28 29 29 28
33 32 32 33 34 31 22 15 12 13 14 16 19 23 18 22 20 16 15 17 18 18 17 17 16 15 14 14 14 15 15 14 15 16 18 22 25 29 29 28 25 24 26 28
49 48 42 47 38 33 37 37 26 17 10 12 13 15 18 24 28 27 24 20 17 16 16 16 15 15 17 17 16 14 13 13 12 14 14 16 17 20 24 28 30 30 27 27
50 48 51 53 51 43 37 41 35 28 27 21 13 12 12 13 18 24 31 31 28 25 22 20 19 17 17 16 16 16 14 14 14 14 15 15 15 16 18 20 23 28 32 32
54 54 58 58 57 64 54 46 43 35 42 30 25 18 13 11 13 14 18 25 29 33 32 31 31 30 27 24 20 18 20 20 17 15 14 14 15 17 17 18 19 20 22 27
57 56 60 52 68 61 52 59 54 42 34 34 24 22 19 15 11 9 13 16 21 28 30 33 33 35 38 38 34 29 27 28 25 20 17 16 15 17 18 19 20 20 20 21
56 58 58 55 61 67 70 69 74 65 48 30 28 30 20 16 13 11 8 8 12 16 24 32 37 43 42 39 39 40 37 32 29 30 32 31 29 23 18 18 18 20 20 20
52 59 61 61 55 67 79 83 81 83 65 48 36 26 19 14 12 9 8 6 6 9 12 16 22 26 28 32 35 39 40 34 33 31 32 32 29 28 27 24 21 19 19 18
56 65 63 59 58 70 77 83 96 88 87 76 37 23 16 13 8 8 6 6 5 5 7 10 12 18 24 24 28 35 33 30 34 40 38 36 32 30 30 30 30 28 28 27
50 54 57 56 59 64 75 85 96 82 93 67 44 24 17 10 6 4 5 4 5 4 5 6 9 11 15 20 24 29 32 31 31 32 32 31 30 27 25 26 30 32 32 32
43 48 54 53 65 62 69 85 100 97 65 69 51 27 17 10 8 5 4 3 3 4 4 5 6 8 11 17 21 28 32 35 36 40 37 34 32 30 28 27 26 26 26 26
45 43 52 49 64 58 70 87 96 96 58 93 100 54 29 12 7 4 3 3 3 3 3 4 5 7 8 12 21 28 37 41 40 44 46 45 41 38 36 35 34 36 35 34

GFSCGP_250_rhum_096.txt.gz
RH
1 1 1 1 2 2 3 3 4 6 9 20 30 28 34 31 49 39 41 100 100 100 100 100 100 100 100 100 99 86 100 100 100 77 100 100 100 100 100 78 66 95 94 80
1 1 1 2 2 3 4 4 5 8 13 21 38 44 32 34 65 63 43 83 100 100 100 100 100 100 100 100 100 85 100 100 100 100 100 100 100 77 99 100 100 80 65 56
1 2 2 2 3 4 4 4 5 13 18 26 63 40 21 38 49 98 71 39 100 100 100 100 100 100 100 100 100 100 100 100 100 100 100 100 100 100 100 95 84 76 59 57
2 2 2 3 3 4 4 5 7 14 16 27 28 34 17 23 41 64 100 57 54 100 100 100 100 100 100 88 100 100 100 100 100 100 100 100 100 100 100 100 100 86 79 80
2 2 3 4 5 5 5 6 7 10 18 27 18 25 20 17 35 50 100 99 61 71 100 100 100 100 100 84 100 100 100 100 100 100 100 100 100 100 100 100 100 100 100 100
3 3 3 4 6 6 6 7 9 14 19 26 24 17 23 26 27 46 58 99 80 59 85 100 100 100 100 100 99 100 100 89 96 100 100 100 100 100 100 100 100 100 100 100
3 3 4 6 6 6 7 8 9 11 15 16 18 13 26 26 18 44 49 57 99 92 61 100 100 100 100 100 100 100 100 100 93 91 98 100 100 100 100 100 100 100 100 100
5 4 5 7 7 7 8 8 8 9 12 12 13 13 12 29 14 17 40 52 61 78 100 82 97 100 100 100 86 100 100 100 100 100 100 100 86 100 100 100 98 100 100 100
4 7 7 8 8 8 9 10 9 10 10 10 13 13 14 15 13 10 17 36 47 49 54 99 73 83 100 100 100 100 86 99 99 100 100 100 82 65 96 98 100 99 100 100
5 6 9 10 10 9 9 11 12 11 11 10 12 12 14 12 12 11 10 16 30 40 44 53 97 100 90 99 100 100 100 100 100 100 96 100 100 100 93 99 100 100 100 100
8 7 7 9 12 12 11 11 12 13 13 13 13 14 16 13 14 12 14 17 19 31 46 52 60 73 100 100 100 95 100 100 100 100 100 100 100 100 100 100 100 100 100 100
8 9 10 9 10 10 13 14 11 14 15 14 15 15 15 14 13 14 12 15 18 18 19 34 51 58 59 65 91 100 100 96 99 100 100 100 100 100 100 100 100 100 100 100
12 10 11 12 13 14 14 15 16 18 17 13 12 14 16 17 16 16 15 12 14 14 15 17 22 29 43 53 56 59 69 87 97 100 98 97 97 100 100 100 100 98 90 78
20 18 18 16 14 14 16 18 19 20 23 23 20 16 14 15 17 18 21 23 26 23 23 26 26 31 30 30 34 42 47 53 59 65 68 72 80 84 92 93 98 100 100 100
27 23 22 26 23 22 26 23 18 14 15 15 15 20 21 19 18 20 24 27 28 32 37 36 36 39 40 39 38 34 36 37 41 43 47 52 54 58 59 56 55 54 50 43
40 44 42 42 32 27 25 27 30 31 26 22 20 16 14 19 24 23 20 20 20 20 22 22 21 22 25 29 32 32 33 32 34 37 38 36 36 35 37 39 39 41 43 44
54 56 54 59 65 59 41 32 25 33 34 32 28 23 21 16 16 20 23 24 22 21 21 22 22 19 16 16 14 14 15 17 18 19 21 23 24 25 25 26 28 30 31 33
58 62 60 66 65 67 69 60 46 38 35 37 37 39 33 25 19 15 14 17 19 24 25 23 19 18 17 18 17 16 15 16 15 14 14 15 16 16 17 18 20 22 22 22
54 60 64 67 76 80 76 75 73 49 38 37 45 47 52 51 30 23 16 16 13 16 20 21 22 23 21 19 17 17 16 15 14 14 14 14 13 13 14 15 15 16 17 17
50 52 59 58 68 79 80 74 68 58 80 49 35 30 28 28 32 36 30 18 13 14 10 13 15 20 22 22 22 20 19 18 19 20 17 16 16 16 15 15 15 15 15 16
46 48 57 58 65 72 69 74 67 68 79 70 47 42 37 35 29 21 14 19 17 10 8 10 10 12 14 18 20 23 23 25 23 23 25 26 27 27 27 22 19 15 14 15
47 48 48 50 67 72 71 72 71 77 87 88 57 46 40 39 32 26 16 10 8 9 8 6 6 8 9 12 14 18 24 25 25 24 26 30 34 35 34 28 25 24 21 20
52 51 52 54 55 64 68 67 72 87 80 78 62 57 48 41 32 29 17 10 6 5 5 5 4 5 6 7 10 15 18 23 25 28 31 34 33 34 35 35 34 32 33 30
57 56 54 60 52 57 66 63 65 80 66 79 76 75 55 34 26 29 20 8 5 4 4 3 3 4 4 5 6 10 17 25 29 33 34 41 39 35 36 39 34 35 33 30
60 60 58 62 64 56 62 59 69 82 89 84 86 61 72 42 22 17 22 9 4 3 3 3 3 3 4 4 5 7 12 19 25 30 31 35 36 40 44 38 35 34 32 32
63 61 59 59 61 65 58 59 71 70 83 95 85 70 61 47 28 20 17 10 4 3 3 3 3 3 3 4 4 6 8 14 21 26 35 44 47 51 52 52 50 45 40 40

GFSCGP_250_rhum_099.txt.gz
RH
1 1 1 1 1 1 1 2 2 2 3 4 5 5 7 11 21 32 100 100 100 100 100 100 100 100 100 100 100 100 96 100 100 100 100 100 100 83 70 80 94 84 61 57
1 1 1 1 1 1 1 2 2 2 3 5 5 6 12 14 24 32 64 100 100 100 100 100 100 99 100 100 100 100 100 95 100 100 100 93 100 100 100 74 76 90 100 74
1 1 1 1 1 2 2 2 3 3 5 6 13 16 20 23 27 35 97 100 100 100 100 100 100 99 100 100 100 100 100 100 96 100 100 100 100 100 100 100 100 100 100 100
1 2 2 2 2 2 3 3 4 4 7 10 20 17 22 39 25 43 64 100 100 100 100 100 100 100 100 100 100 100 100 100 100 100 100 100 100 100 100 100 100 100 100 100
2 2 2 2 2 4 4 5 5 5 9 14 19 21 17 61 60 54 48 100 100 100 100 100 100 100 100 100 100 100 100 100 100 93 100 100 100 100 100 100 100 100 100 84
2 2 3 3 4 5 5 5 5 6 11 15 23 22 17 58 94 55 46 49 99 100 100 100 100 100 100 100 98 100 100 100 99 90 100 100 100 100 100 100 100 100 100 100
3 3 5 5 6 6 6 5 6 8 13 17 24 29 27 36 63 69 51 49 71 100 100 100 100 100 100 100 98 100 100 100 95 82 94 100 100 100 100 100 100 100 100 100
3 5 6 6 7 6 7 7 7 10 8 12 22 27 22 37 42 50 78 49 59 100 100 100 100 100 100 100 100 100 100 100 100 94 96 91 100 100 100 100 100 100 100 100
4 6 7 7 6 7 8 10 11 11 8 10 15 19 28 29 28 50 67 85 55 83 100 97 100 100 100 100 100 100 100 100 100 95 100 100 96 100 100 100 100 100 100 100
5 7 8 8 8 7 8 10 12 11 11 15 12 15 18 16 21 30 63 81 94 71 60 100 100 100 100 100 100 100 100 100 100 92 100 100 100 82 100 100 100 98 100 100
6 7 9 9 10 10 11 12 13 12 13 14 14 15 17 22 23 17 37 59 98 93 88 64 90 100 100 100 100 100 100 96 100 100 100 100 100 100 99 98 100 100 100 100
8 7 8 9 12 14 13 14 16 18 16 16 17 16 16 16 19 16 17 32 44 80 88 84 59 54 100 100 100 100 100 100 100 100 100 100 100 100 100 100 100 100 100 100
12 13 12 11 11 14 17 20 22 21 19 17 16 17 20 18 19 20 20 19 26 41 72 98 78 56 51 53 72 95 100 100 100 100 100 99 100 100 100 100 100 100 100 100
21 20 20 18 15 17 18 18 17 18 22 24 24 23 20 18 20 21 21 24 22 21 26 42 64 100 100 100 92 82 75 81 99 100 100 100 100 100 96 94 90 88 85 100
21 26 30 29 31 31 26 29 32 42 31 25 26 24 35 38 37 26 24 22 19 19 19 20 33 58 72 92 100 100 100 100 98 90 91 100 100 100 100 100 100 100 100 100
45 30 33 33 29 29 30 31 31 30 30 31 33 28 33 35 34 38 33 24 22 21 17 14 14 17 20 34 52 64 84 99 100 100 100 100 100 90 91 100 100 100 100 100
61 61 59 67 56 52 43 35 32 30 35 35 36 30 34 33 36 34 29 22 22 23 17 13 13 14 14 15 16 21 35 50 62 66 72 87 97 100 100 100 100 100 100 100
54 60 64 66 72 72 74 62 50 38 34 35 35 36 38 41 33 24 23 29 33 23 16 20 19 16 13 12 13 16 17 18 20 25 33 41 48 55 61 67 75 76 86 87
51 55 60 65 69 74 82 70 66 57 54 43 42 45 39 36 32 30 31 36 36 24 20 23 15 16 22 19 14 12 12 13 16 21 22 22 24 30 36 40 42 42 44 46
59 60 59 63 69 63 74 72 74 72 60 65 53 46 52 42 40 33 31 26 24 25 31 25 13 18 14 10 9 14 15 13 13 11 13 17 22 26 28 30 32 32 31 27
61 65 64 69 63 64 71 59 66 62 66 70 65 67 69 51 45 40 38 34 25 20 19 14 14 10 8 10 10 10 10 14 13 13 13 13 14 15 16 17 18 18 18 18
56 58 63 66 74 71 67 70 68 69 75 66 80 86 81 67 67 58 44 38 30 22 19 12 7 6 7 4 5 7 7 8 10 15 15 18 20 21 22 22 22 21 20 18
58 60 66 66 66 70 71 61 67 66 68 67 76 87 69 90 73 60 51 45 32 28 19 14 7 4 4 4 3 3 4 5 6 8 12 14 17 24 28 29 29 28 29 30
59 60 64 65 68 72 76 71 80 73 72 78 73 85 78 90 74 74 50 42 32 24 21 12 5 3 3 3 3 3 3 4 4 5 6 10 14 20 27 38 47 47 44 51
62 62 63 66 71 70 75 69 75 76 71 67 74 77 71 84 74 65 45 38 34 27 17 11 4 3 3 3 3 3 3 3 4 5 6 8 14 23 32 41 49 44 45 48
60 61 64 66 72 73 77 75 73 80 72 77 78 77 71 96 73 69 57 42 31 19 14 7 4 3 3 3 3 3 3 4 4 5 6 8 14 28 34 57 49 55 56 55

GFSCGP_250_rhum_102.txt.gz
RH
1 1 1 1 1 1 1 1 1 1 1 1 2 2 3 4 5 19 57 100 100 100 100 100 100 100 92 100 100 100 100 98 100 100 100 100 100 100 100 100 100 98 94 100
1 1 1 1 1 1 1 1 1 1 1 2 3 4 4 6 6 13 59 100 100 100 100 100 100 100 100 100 100 100 100 100 100 100 100 100 90 100 100 100 100 100 100 97
1 1 1 1 1 1 1 1 1 2 2 3 3 5 5 6 9 14 93 100 100 100 100 100 98 100 100 100 100 100 100 100 100 99 90 100 100 100 100 100 100 100 100 95
1 1 1 1 1 1 1 1 2 2 3 3 5 6 6 8 14 24 89 100 100 100 100 100 100 98 100 92 100 100 100 100 100 100 100 100 100 100 100 100 100 100 99 100
1 1 2 1 2 2 2 2 3 4 4 4 6 6 6 10 22 42 100 100 100 100 100 100 100 100 100 100 100 100 100 100 100 100 100 100 100 100 100 100 100 100 100 100
2 2 2 2 2 3 3 3 4 4 5 6 9 6 7 11 22 48 100 100 100 100 100 100 99 100 100 100 100 100 99 100 98 100 100 100 100 100 100 100 100 100 100 100
2 2 3 3 4 4 5 4 5 5 6 6 7 6 7 15 23 52 100 100 100 100 100 100 100 100 100 100 100 100 100 100 100 100 100 100 100 100 100 100 100 100 100 100
3 3 4 4 4 5 6 6 5 6 5 4 6 7 9 22 32 51 100 100 100 100 100 100 100 95 100 100 100 99 100 100 100 100 100 100 100 100 100 100 100 100 100 100
3 4 4 5 6 6 6 6 6 6 6 8 9 9 17 27 32 47 100 100 100 100 100 100 100 100 99 100 90 100 100 99 99 100 100 100 100 100 100 99 100 99 90 99
4 5 5 5 6 8 9 10 10 12 10 10 10 10 14 24 34 38 100 100 100 100 100 100 100 100 100 100 100 89 100 100 100 100 100 100 100 99 80 91 100 90 95 95
5 6 6 6 7 8 9 10 10 14 19 16 15 12 10 18 27 37 58 100 100 100 100 100 100 100 100 100 99 100 100 100 100 100 100 100 100 100 100 100 100 73 73 56
6 6 6 7 9 10 10 10 10 14 17 29 30 22 23 18 25 38 46 41 100 100 100 92 100 100 100 100 100 100 100 100 100 100 100 100 100 100 100 100 100 100 100 100
10 10 10 8 9 10 11 12 14 22 18 36 28 47 40 46 43 33 21 30 25 45 88 99 85 100 100 100 100 100 100 100 100 100 100 100 100 100 100 100 100 100 100 100
16 16 15 13 13 15 15 16 15 15 25 54 77 85 70 58 54 43 66 73 41 28 29 62 93 100 100 91 99 100 100 100 100 100 100 100 100 100 100 100 100 100 94 97
22 20 21 24 24 27 24 28 30 34 30 28 26 21 15 14 15 18 28 44 81 100 95 72 63 94 100 100 86 93 100 100 100 100 100 100 100 100 100 100 100 100 100 100
34 33 33 41 41 39 40 41 44 47 46 54 55 44 35 28 24 19 13 12 12 19 36 58 83 92 62 66 98 100 100 100 100 88 82 84 99 100 99 100 100 100 100 95
56 54 50 45 40 44 45 49 52 49 50 54 60 59 53 53 52 48 43 33 25 19 15 15 26 30 35 57 80 77 78 93 99 100 100 100 100 100 100 100 100 100 91 100
58 64 59 60 61 56 55 52 52 45 44 44 46 41 44 44 40 41 43 45 44 44 40 32 23 15 17 28 30 32 39 50 61 73 93 94 100 100 100 100 100 100 100 100
63 66 63 66 57 56 61 56 57 60 63 56 58 59 48 48 46 43 47 37 40 38 35 35 36 32 24 16 12 16 26 31 29 34 34 26 34 60 76 85 95 95 95 100
60 66 69 66 62 63 66 65 66 57 68 75 66 67 60 56 48 43 46 42 32 32 28 29 27 28 25 24 15 11 10 11 15 23 23 27 36 36 37 48 54 68 79 86
63 66 63 71 71 71 63 66 67 76 69 63 66 70 63 59 77 69 59 40 39 32 33 32 31 29 21 15 14 13 8 7 7 8 11 13 16 23 38 56 80 95 99 97
62 62 64 72 72 79 78 69 66 68 66 74 59 62 58 69 72 77 63 55 47 40 36 35 26 29 26 12 7 6 9 6 3 3 5 6 9 13 18 25 31 36 40 44
63 64 64 68 71 85 82 86 79 71 64 59 56 59 64 64 72 73 56 63 49 42 34 31 25 23 19 15 5 4 3 3 3 2 3 4 5 6 7 11 14 16 18 21
58 59 62 62 69 72 79 84 75 78 65 59 54 57 63 62 64 72 66 60 50 42 34 27 21 16 12 12 5 3 2 2 2 2 3 3 3 4 6 8 8 9 12 18
64 59 57 61 66 68 69 76 74 69 66 61 60 57 59 63 71 70 57 67 54 54 44 28 22 12 7 7 3 3 2 2 2 2 2 3 3 4 4 7 9 10 11 13
68 68 61 61 62 68 66 72 68 66 65 65 60 56 57 57 71 68 80 74 58 47 34 29 21 11 5 4 3 2 2 2 2 2 3 3 3 4 4 7 11 13 15 18

GFSCGP_250_rhum_105.txt.gz
RH
2 1 1 1 1 1 1 1 1 1 1 1 1 1 1 1 2 3 4 5 7 13 33 85 99 100 100 100 100 100 100 95 97 90 100 100 100 100 95 94 100 100 100 100
1 1 1 1 1 1 1 1 1 1 1 1 1 1 1 1 2 2 3 4 7 41 100 100 100 100 100 100 100 100 100 100 100 98 99 100 100 100 100 100 100 100 100 100
1 1 1 1 1 1 1 1 1 1 1 1 1 1 2 2 2 2 3 4 12 100 100 100 100 100 100 100 100 100 100 100 100 100 92 97 100 100 100 100 100 100 100 100
1 1 1 1 1 1 1 1 1 1 1 1 2 2 2 3 3 4 4 5 62 100 100 100 100 100 100 100 87 100 100 100 100 100 100 100 100 100 100 100 100 100 100 100
1 1 2 2 1 1 1 1 1 2 2 2 2 2 3 4 5 6 12 35 100 100 100 100 100 100 100 100 100 100 100 100 100 100 100 95 100 100 98 98 99 100 100 100
2 2 2 2 2 2 2 2 2 2 3 3 3 4 4 6 7 9 66 99 100 100 100 100 100 100 100 100 100 100 100 100 100 100 100 100 100 100 100 100 100 98 88 100
2 2 2 2 3 3 3 4 3 4 4 4 5 6 6 9 9 13 98 100 100 100 100 100 100 100 100 100 100 100 100 100 100 100 100 100 100 100 100 90 100 100 94 100
3 3 3 3 3 4 4 4 5 5 4 4 5 6 7 9 16 85 100 100 100 100 100 100 100 98 100 100 100 100 100 100 100 100 100 100 100 100 100 100 99 100 83 100
3 3 3 4 4 5 7 7 6 5 5 6 6 6 8 11 96 100 100 100 100 100 100 100 98 100 100 100 100 100 100 100 100 100 100 88 100 100 100 100 100 100 100 80
4 3 4 5 6 8 9 10 9 9 8 9 8 7 11 14 100 100 100 100 100 100 100 100 100 91 100 100 100 100 100 100 100 100 100 94 100 100 100 100 100 100 99 100
4 4 4 5 6 9 11 16 19 25 19 18 21 9 14 18 81 100 100 100 100 100 100 100 100 100 100 100 100 100 100 100 100 100 100 100 94 100 100 100 100 100 100 100
5 5 6 6 7 7 12 21 32 40 46 46 46 45 24 16 24 100 100 100 100 100 94 100 100 100 100 100 100 100 95 100 100 100 100 100 100 100 100 100 100 100 100 100
6 6 9 10 8 11 16 23 45 57 72 85 81 68 41 29 23 82 100 100 98 100 100 99 100 100 100 100 100 100 91 98 100 99 95 100 100 100 100 96 100 100 100 100
11 9 12 14 13 13 17 19 23 32 44 45 62 61 72 54 46 29 90 100 100 100 100 97 93 100 100 100 100 100 100 100 100 100 92 100 100 96 89 100 100 100 100 96
15 13 17 22 26 29 29 32 37 41 39 36 28 22 23 38 44 70 42 78 100 100 97 89 99 100 99 99 100 96 100 100 100 100 100 100 100 100 100 100 100 100 100 100
23 22 27 26 30 29 30 32 39 43 46 38 34 34 32 20 25 35 100 100 100 100 100 100 94 100 100 84 99 93 100 100 100 100 100 100 100 100 100 100 100 100 100 100
26 36 38 40 41 37 34 32 35 40 40 39 44 46 40 32 31 31 34 40 68 100 100 99 92 92 78 71 64 78 97 100 100 100 100 97 90 97 100 97 100 100 100 100
51 43 44 48 46 43 47 48 54 63 54 45 39 38 37 40 41 41 35 28 28 32 52 82 95 98 84 84 80 76 70 83 100 100 100 100 100 100 99 95 100 100 100 100
69 68 65 67 74 69 58 56 55 52 52 44 47 40 45 31 33 33 30 27 32 33 32 32 34 39 43 51 56 80 100 99 88 88 95 97 93 97 100 100 100 98 88 89
71 76 76 76 71 71 67 60 58 53 52 53 50 48 49 43 44 45 36 31 28 30 28 27 25 25 25 27 33 36 33 31 26 36 68 71 64 61 74 83 99 100 100 100
71 77 76 76 85 76 77 61 65 63 61 55 53 51 56 53 54 51 44 44 40 35 35 29 24 25 19 15 15 16 19 22 22 20 15 12 9 13 28 35 43 57 73 95
66 69 70 70 68 66 68 64 74 73 63 56 58 57 61 61 61 61 52 50 47 42 33 35 41 37 26 21 15 9 8 8 8 7 8 10 10 8 7 6 7 13 38 69
63 62 64 70 69 67 65 64 72 74 67 61 60 60 60 55 61 58 62 60 58 58 54 51 43 32 27 21 12 5 4 4 4 3 3 3 4 5 5 7 8 7 7 8
74 73 70 66 68 66 68 65 66 62 61 61 64 58 58 57 58 57 61 64 63 60 60 50 42 38 30 21 7 4 4 4 3 3 2 2 3 4 4 5 6 8 10 12
89 90 89 81 74 71 67 70 65 61 63 65 63 59 55 57 56 61 58 57 66 63 59 48 40 32 26 13 5 3 3 3 3 2 2 2 2 2 3 3 4 6 9 16
90 97 100 100 96 81 73 77 69 61 62 66 61 62 57 53 55 51 51 54 52 52 56 45 35 28 25 8 4 3 3 2 2 2 2 2 2 2 2 3 3 4 5 8

GFSCGP_250_rhum_108.txt.gz
RH
2 2 2 2 2 2 2 2 2 1 1 1 1 1 2 2 2 4 5 7 10 11 10 8 12 18 23 98 100 100 100 100 100 100 100 100 99 100 100 100 100 100 100 100
2 2 2 2 2 2 2 2 1 1 1 1 1 1 1 1 2 2 4 6 8 10 7 9 14 20 100 100 100 100 97 100 94 100 100 98 100 98 100 100 100 100 100 99
2 2 2 1 1 1 1 1 1 1 1 1 1 1 1 1 1 1 2 4 7 7 7 12 15 74 100 100 100 100 100 100 100 100 100 100 91 100 96 90 93 86 100 100
1 1 1 1 1 1 1 1 1 1 1 1 1 1 1 1 1 2 2 3 5 6 9 12 16 69 100 100 100 100 100 100 100 100 100 100 100 100 100 98 99 100 100 100
1 1 1 1 1 1 1 1 1 1 1 1 1 1 1 1 2 2 2 3 4 7 10 14 20 76 100 100 100 100 100 100 100 100 100 100 100 100 100 100 100 100 100 100
1 1 1 1 2 2 1 1 1 1 1 1 2 2 2 2 2 2 3 4 6 11 20 77 89 100 100 100 100 100 100 100 100 100 100 100 100 100 100 100 100 100 86 100
2 2 2 2 2 2 2 2 2 2 2 2 2 2 2 2 2 3 4 6 19 15 92 100 100 100 100 100 100 100 100 100 100 100 100 100 100 100 100 100 100 100 100 98
3 3 3 2 2 3 2 3 2 2 3 3 3 3 3 3 3 5 6 9 55 99 100 100 100 100 100 100 100 100 100 100 100 100 100 100 100 100 100 100 99 100 100 100
4 3 3 4 4 4 4 4 4 4 4 4 4 4 4 6 5 8 12 75 100 100 100 100 100 100 100 100 100 100 100 100 100 100 100 100 100 100 100 100 100 100 100 100
4 4 3 4 4 4 6 10 11 16 16 9 9 8 8 8 8 10 16 100 100 100 100 100 100 100 100 100 100 100 100 100 100 100 100 100 100 100 100 100 96 100 99 100
5 5 4 6 6 8 14 23 31 42 44 46 48 16 12 14 15 14 19 100 100 100 100 100 100 100 100 100 100 100 100 100 100 100 100 100 100 100 100 100 100 100 100 100
5 6 7 7 11 18 31 60 81 65 75 60 54 58 19 17 17 23 26 100 100 100 100 100 100 100 100 100 100 100 100 100 100 100 100 100 100 100 100 100 100 100 100 100
6 6 8 10 14 19 20 48 55 74 78 63 62 58 50 21 24 98 81 100 98 100 100 100 100 100 100 100 100 100 100 98 100 100 100 100 100 100 100 100 100 100 100 100
9 9 12 13 14 14 17 26 32 34 36 42 40 45 46 21 31 100 100 100 100 100 100 100 100 100 99 100 100 100 100 100 100 100 100 100 100 100 100 100 100 100 100 100
19 24 24 18 22 27 30 31 32 31 28 24 23 20 23 29 26 100 100 100 100 100 96 97 100 100 99 91 100 100 100 100 97 100 100 100 100 100 100 99 100 100 100 100
24 27 28 25 26 30 32 34 34 36 36 28 18 18 22 21 28 58 100 100 100 100 100 100 100 100 97 100 100 100 100 100 100 100 100 92 100 100 100 100 100 100 94 100
33 31 28 29 33 31 31 31 33 33 34 31 33 31 21 22 28 100 97 100 100 100 100 100 100 96 91 97 100 100 100 100 100 100 100 100 100 90 88 94 100 100 100 100
51 46 42 42 44 40 38 36 35 37 36 34 34 34 31 29 19 49 100 100 100 100 100 100 100 100 100 100 100 100 100 100 100 100 100 95 100 100 96 100 94 96 100 100
58 58 51 51 55 56 58 58 54 52 50 47 44 35 32 30 34 32 25 79 100 100 100 100 100 100 100 100 94 92 100 100 99 100 99 100 100 100 100 100 100 100 100 100
64 61 61 58 56 55 51 46 45 47 47 47 45 43 38 33 30 26 24 28 25 29 43 77 93 100 90 97 100 100 95 88 88 80 78 84 75 91 76 91 100 100 86 99
67 68 68 63 61 58 59 58 57 53 52 52 51 50 47 43 44 37 35 31 30 26 22 27 27 36 39 35 35 42 54 64 76 86 85 84 73 62 62 55 61 56 67 68
66 63 62 63 63 64 62 62 59 54 51 52 55 55 50 48 43 40 37 40 38 37 34 31 26 18 22 18 15 14 15 17 20 20 22 25 35 41 36 25 21 51 51 35
86 84 79 74 71 71 71 73 73 66 65 62 58 59 56 49 46 48 46 41 43 46 42 40 36 32 32 33 24 16 12 10 7 6 7 6 7 9 13 14 14 15 15 12
90 95 95 89 90 90 89 85 79 80 80 70 64 56 52 49 48 49 50 43 42 38 42 40 38 35 34 32 22 16 10 6 5 4 3 3 3 3 3 3 3 4 5 6
82 87 88 88 86 86 88 93 96 95 95 85 73 62 57 53 50 47 49 47 45 39 39 41 35 36 32 25 20 12 7 4 3 3 3 3 3 2 2 2 2 3 3 3
82 79 77 77 81 81 78 86 92 96 99 94 77 70 63 59 53 52 49 49 45 44 38 40 33 28 28 19 14 10 5 3 3 4 4 4 4 4 2 2 2 2 2 2

GFSCGP_250_rhum_111.txt.gz
RH
2 2 2 2 2 2 2 1 2 2 2 2 2 2 2 2 3 3 3 3 4 5 7 7 6 11 10 10 15 20 100 100 100 100 100 100 100 91 100 100 100 100 100 100
2 2 2 2 2 1 2 2 2 2 2 2 2 2 2 2 2 3 3 3 4 5 6 6 8 13 14 11 17 21 99 100 100 100 100 100 100 100 100 100 94 100 100 100
3 3 3 2 2 2 2 2 2 2 2 2 2 2 2 2 2 3 3 4 4 5 5 5 12 20 14 14 19 22 96 100 100 100 100 100 100 100 100 93 100 100 100 100
3 2 2 2 2 2 1 1 1 1 1 1 1 1 1 1 1 2 2 3 4 6 7 10 18 25 19 16 21 27 91 100 100 98 100 100 100 100 100 93 100 100 100 100
2 2 2 2 1 1 1 1 1 1 1 1 1 1 1 1 1 1 2 2 3 6 10 13 24 28 23 19 22 21 100 100 100 100 100 100 100 100 100 100 100 90 88 100
1 1 2 2 1 1 1 1 2 1 1 1 1 1 1 1 1 1 1 2 2 5 11 18 24 26 19 24 24 36 100 100 100 100 100 100 100 100 100 100 100 100 100 100
2 3 2 2 2 2 2 2 2 2 1 1 1 1 1 1 1 2 2 2 2 3 10 18 28 24 26 25 74 100 100 100 100 100 100 100 100 100 100 100 100 100 100 100
3 3 3 3 3 2 3 3 3 2 2 2 2 2 2 2 2 2 2 3 4 5 9 21 23 23 27 83 100 100 100 100 100 100 100 100 100 100 100 100 100 100 100 100
4 3 3 3 4 4 3 4 3 4 3 4 4 4 3 4 3 4 4 6 6 6 10 14 29 34 91 100 100 100 100 100 100 100 100 100 100 100 100 100 100 100 100 100
5 5 5 4 5 8 8 5 6 7 6 7 7 7 6 6 7 7 8 13 11 13 14 21 100 99 100 100 100 100 100 100 100 100 100 100 100 100 100 100 100 100 100 100
6 5 5 8 6 8 11 9 9 13 13 8 10 9 9 11 14 16 16 27 30 21 26 48 68 100 100 100 100 100 100 100 100 100 100 100 100 100 100 100 100 98 100 100
5 5 6 9 18 15 16 23 22 26 24 20 42 22 24 19 16 29 48 56 39 32 36 78 99 100 100 100 100 100 100 100 100 100 100 100 100 100 100 100 100 100 100 100
10 10 15 19 21 23 28 27 26 34 35 40 46 28 26 20 19 100 100 80 72 70 34 100 100 100 100 100 100 100 100 100 100 100 100 100 100 100 100 100 100 100 100 100
12 13 16 17 16 14 18 20 20 22 22 26 22 27 35 17 18 94 100 100 100 99 100 100 100 97 100 100 100 100 100 100 100 100 100 100 100 100 100 100 100 100 100 100
25 25 25 24 26 24 32 36 28 18 22 24 21 22 16 19 18 21 100 100 100 93 100 100 100 100 100 100 100 100 100 100 100 100 100 100 100 100 100 100 100 100 100 100
29 32 28 28 34 35 42 44 44 41 39 33 34 39 36 25 18 20 46 100 100 100 100 100 100 100 100 100 100 100 100 100 100 100 100 100 100 100 100 100 100 100 100 100
34 35 35 35 37 37 38 39 38 40 38 37 38 38 32 25 21 19 22 97 100 99 90 100 99 100 100 100 100 100 100 100 100 100 100 100 100 100 100 100 93 92 89 96
45 47 49 44 46 45 45 42 44 42 40 41 44 40 38 33 26 19 20 28 67 100 100 100 100 100 100 100 99 100 100 100 100 100 100 100 100 100 100 97 100 100 100 99
53 51 48 51 49 46 44 42 42 42 41 41 38 37 37 37 32 34 39 60 83 100 100 100 100 100 100 100 100 100 100 100 100 100 100 99 99 100 83 88 86 87 87 77
61 62 62 58 56 54 52 51 48 44 42 39 38 36 38 35 37 45 42 67 98 100 100 100 100 100 100 100 100 85 88 99 96 78 72 90 94 95 92 96 93 82 86 86
61 58 55 55 59 61 62 62 58 53 51 44 39 38 38 38 41 39 34 30 36 70 95 94 90 84 80 81 80 81 82 82 87 80 79 71 64 70 68 59 69 65 75 70
74 70 66 65 65 64 60 59 60 54 55 54 48 50 50 47 42 38 35 37 27 28 30 30 28 26 25 26 25 25 26 24 24 27 31 31 27 20 20 21 35 50 44 44
72 75 74 69 66 67 66 65 64 64 66 59 57 54 59 56 58 56 48 40 36 33 34 33 31 31 30 26 25 24 25 24 21 16 12 12 11 8 8 10 12 16 18 15
70 70 72 74 73 71 71 72 70 73 72 68 61 63 64 66 65 60 56 51 41 38 38 36 36 37 39 40 37 35 35 29 19 14 7 5 4 3 3 3 3 3 3 3
71 72 70 71 68 72 70 70 69 73 81 74 79 78 73 73 72 70 70 56 49 46 47 46 43 45 44 48 43 39 36 27 16 10 6 4 3 3 3 4 4 4 4 3
81 78 79 68 67 68 72 73 74 77 72 82 84 86 83 83 84 82 69 55 52 56 52 51 52 48 48 51 49 42 36 31 17 10 5 3 3 4 4 4 4 4 4 4

GFSCGP_250_rhum_114.txt.gz
RH
4 3 3 3 2 2 2 2 2 1 1 1 2 2 2 2 2 2 3 3 3 4 4 5 7 8 8 10 12 10 10 10 8 15 21 20 100 100 88 100 100 100 100 95
4 3 3 2 2 2 2 2 2 1 1 1 2 2 2 2 2 2 3 3 3 4 4 6 7 6 6 9 11 11 8 8 8 18 22 25 58 98 89 99 100 100 100 100
3 3 3 3 2 2 2 2 2 2 2 2 1 1 2 2 2 2 2 2 2 3 3 4 6 6 7 8 11 11 8 9 10 21 24 26 98 99 81 100 100 100 100 100
4 4 4 4 3 3 2 2 2 2 2 2 2 2 2 2 2 2 2 2 2 2 3 3 4 6 7 9 10 9 8 8 15 23 24 70 100 100 100 100 100 100 100 100
5 4 3 3 2 2 2 2 2 2 1 1 1 1 1 1 2 2 2 2 2 2 3 3 4 6 6 8 10 9 9 9 21 22 27 29 100 100 100 100 100 100 100 100
2 2 2 2 2 2 2 2 1 1 1 1 1 1 1 1 1 1 2 2 3 3 4 4 5 6 6 9 10 11 10 10 23 27 32 53 100 100 100 100 100 98 100 100
2 2 2 2 2 2 2 2 2 2 1 1 1 1 1 1 1 1 1 2 2 4 6 10 11 10 9 9 10 11 12 15 26 29 90 86 100 100 100 98 99 100 100 100
5 4 3 3 3 3 2 2 2 2 2 2 1 1 1 1 1 2 2 2 2 3 5 11 21 19 17 15 18 21 24 24 30 33 97 100 100 100 100 100 89 100 100 100
6 4 4 4 3 3 3 3 3 3 2 2 2 2 2 2 2 2 2 2 3 3 4 7 25 34 33 62 40 56 34 35 32 52 90 100 100 100 100 100 100 100 100 100
6 5 4 3 5 4 4 4 3 3 3 4 3 4 5 4 4 4 5 6 6 9 8 7 19 40 59 57 59 58 38 37 37 100 100 100 100 100 100 100 100 100 100 100
8 8 6 9 7 8 6 7 5 8 7 6 8 7 6 6 10 8 25 22 29 25 27 13 19 29 41 53 50 51 41 35 33 75 100 100 100 100 100 100 100 100 100 100
11 11 12 14 14 14 15 13 11 13 16 12 14 20 28 28 27 38 54 40 49 35 40 33 47 86 37 38 40 44 39 43 46 44 89 100 100 100 100 100 100 100 100 100
12 11 13 14 15 18 16 16 16 19 17 16 18 36 46 44 62 40 45 50 55 40 75 97 100 100 87 59 49 48 43 37 37 100 100 100 100 100 100 100 100 100 100 100
18 17 15 16 19 18 18 20 22 26 30 24 23 32 46 48 53 51 46 39 46 32 59 100 100 100 100 98 76 64 78 81 100 100 100 100 100 100 100 100 100 100 100 100
28 27 28 28 30 31 28 25 28 31 37 33 30 23 23 58 46 41 40 43 58 38 60 84 100 100 100 100 100 100 100 100 100 100 100 100 100 100 100 100 100 100 100 100
34 33 34 36 39 40 43 40 35 36 36 34 31 28 26 25 31 48 50 32 40 56 46 71 96 87 82 100 100 100 100 100 100 100 100 100 100 100 100 100 100 100 100 100
46 47 50 50 46 47 43 47 48 43 43 45 43 38 37 29 25 34 87 94 68 59 69 43 63 73 88 100 100 100 100 100 100 100 100 100 100 100 100 100 100 100 100 91
55 53 55 55 52 48 46 44 41 41 39 38 37 40 44 46 50 43 48 64 92 94 79 93 90 90 75 82 94 91 75 100 100 100 100 100 100 100 100 100 100 100 100 100
54 54 56 59 60 59 58 54 52 48 47 46 43 42 46 46 44 47 52 66 68 65 83 94 90 100 100 100 100 98 80 100 100 100 100 89 98 100 99 100 98 92 93 84
52 54 58 61 66 71 71 70 70 68 66 63 56 50 48 49 45 52 53 57 78 99 99 99 100 100 100 100 100 93 100 100 100 89 99 100 93 75 76 80 86 63 62 74
57 56 55 53 54 56 60 62 64 66 68 64 64 65 61 53 46 45 41 46 46 43 51 72 90 100 100 100 100 97 95 84 76 72 77 73 65 60 38 30 30 42 42 43
68 65 64 65 65 65 59 59 56 54 52 48 49 50 59 61 54 50 41 39 40 38 39 44 45 48 44 43 42 40 39 36 34 33 27 28 28 26 24 18 17 15 10 11
70 68 65 63 61 62 62 63 63 57 52 55 53 53 55 52 55 56 52 48 47 42 39 37 37 34 32 33 33 34 34 35 34 26 25 26 23 17 12 7 5 4 3 3
78 72 69 64 63 59 57 54 54 52 52 51 50 49 50 49 51 49 45 40 39 36 33 31 30 27 24 27 34 43 52 50 50 35 27 23 19 12 7 4 3 2 3 2
88 79 72 67 62 61 62 60 56 58 58 61 63 64 61 59 53 50 48 41 39 32 32 31 30 34 42 48 53 51 52 52 47 34 27 22 14 8 5 3 2 2 3 4
97 82 90 77 74 70 67 66 68 64 60 58 58 59 61 59 58 54 49 45 44 44 43 41 43 45 46 52 56 52 52 51 45 36 25 19 9 5 3 2 3 3 4 3

GFSCGP_250_rhum_117.txt.gz
RH
9 8 7 5 4 3 2 2 2 2 2 2 2 2 2 2 2 2 3 4 4 5 4 4 4 6 8 8 7 8 10 14 19 20 15 15 13 15 14 16 53 77 79 88
8 5 3 3 3 3 2 2 2 2 2 2 2 2 1 2 1 1 2 2 2 2 2 3 4 4 6 7 7 8 9 10 11 16 19 16 15 14 18 19 47 77 86 81
4 4 3 3 3 3 2 2 2 2 2 2 2 1 1 1 1 1 1 2 2 2 2 3 4 4 5 6 6 7 8 9 12 16 17 17 17 12 14 24 41 100 86 75
5 4 4 4 4 4 3 3 2 2 2 1 1 1 1 1 1 1 1 2 2 2 2 2 3 4 6 6 6 9 11 10 12 16 14 17 17 14 16 18 30 100 93 100
8 7 6 5 5 5 4 3 3 3 2 2 2 2 2 2 1 1 2 2 2 2 2 2 3 3 4 5 8 10 13 15 15 16 14 16 14 15 16 21 25 32 99 100
7 6 5 4 4 3 3 2 2 2 1 1 1 1 1 1 1 2 2 2 2 2 2 2 3 4 4 6 7 8 8 8 11 13 13 14 16 14 22 24 21 33 98 100
4 3 3 3 3 2 2 2 2 2 2 1 1 1 1 1 1 1 1 1 2 2 3 4 4 5 5 5 6 6 7 7 8 9 12 14 15 15 31 30 25 72 100 100
4 3 3 4 4 3 3 3 2 2 2 2 2 1 1 1 1 1 1 1 1 2 3 5 7 8 8 7 6 7 7 7 8 9 10 13 17 20 33 30 49 91 100 100
10 9 9 8 8 8 6 5 4 3 3 2 2 2 2 2 1 2 2 2 2 2 2 4 9 13 14 13 8 10 9 9 11 11 12 15 17 32 34 35 35 97 100 100
17 16 14 12 11 12 10 8 6 4 4 3 3 3 2 2 2 2 2 2 2 3 4 4 9 18 22 31 21 18 14 16 21 18 17 17 27 58 38 50 99 100 100 100
17 14 13 12 11 10 10 12 9 8 6 5 5 5 5 4 4 4 4 5 5 6 7 6 10 35 25 50 70 49 44 47 34 30 25 32 53 59 100 100 100 100 100 100
14 14 15 16 14 16 20 29 20 16 9 8 11 9 8 8 9 8 10 19 20 16 17 17 14 42 65 57 77 87 74 84 85 68 52 47 60 61 89 100 100 100 100 100
16 16 18 20 21 21 19 23 34 28 23 21 19 17 19 12 20 19 24 22 22 48 51 48 36 37 80 54 78 100 100 98 90 88 74 68 60 49 52 100 100 100 100 100
31 31 28 28 28 29 30 31 28 28 29 26 28 25 23 26 29 39 34 35 31 70 81 69 87 83 82 71 96 100 100 100 98 71 68 54 60 50 51 96 100 100 100 100
42 43 42 37 39 43 44 40 39 42 40 36 42 43 43 44 41 42 45 44 54 51 98 100 94 88 92 100 89 100 100 100 100 99 93 60 50 46 78 100 100 100 100 100
54 53 48 46 44 43 48 49 48 43 40 39 38 40 48 66 82 78 74 68 70 64 71 99 96 99 100 97 100 94 84 100 100 100 99 88 73 51 57 100 100 100 100 100
58 58 60 63 60 58 52 53 54 57 54 53 53 51 46 52 72 88 99 100 94 84 67 81 93 100 98 100 100 100 93 91 91 92 97 100 100 98 99 74 80 79 99 100
53 54 54 59 58 59 64 61 60 53 58 59 58 58 59 71 82 96 100 100 100 100 100 98 86 76 80 84 73 71 100 100 100 100 100 100 100 100 100 100 100 87 89 98
51 51 51 53 55 56 56 62 64 61 60 59 59 56 52 53 58 66 78 100 100 100 100 100 100 100 92 84 92 96 94 95 94 99 91 100 100 100 100 97 87 87 92 91
60 59 60 62 63 63 61 59 62 62 63 68 67 62 55 55 58 59 59 61 68 82 89 95 98 99 100 100 100 98 100 100 97 97 96 87 96 100 88 78 69 72 76 71
70 70 70 67 67 67 67 67 70 66 64 64 64 68 68 67 66 64 61 64 58 54 62 71 77 99 99 96 100 100 98 85 79 71 79 81 81 75 63 45 40 47 40 32
66 64 61 61 61 59 59 59 63 64 66 68 71 71 69 68 65 62 58 56 55 48 45 44 42 45 45 43 43 44 42 44 46 43 40 39 39 37 36 29 23 19 17 17
66 67 63 62 58 56 53 53 50 51 53 53 57 60 69 70 72 69 60 56 56 55 56 54 47 40 39 39 39 40 35 37 36 34 35 35 35 29 26 20 17 12 8 5
64 59 64 69 66 61 60 59 59 56 52 56 57 58 63 66 65 63 63 65 60 57 54 49 46 41 38 34 35 38 35 33 37 36 40 36 34 32 31 23 14 7 3 3
82 94 78 65 79 71 67 60 59 61 58 54 56 58 57 59 61 63 60 50 45 39 38 36 34 34 35 33 32 31 30 36 41 37 42 52 48 39 31 21 10 3 2 2
66 99 84 64 75 81 73 73 64 62 64 61 55 52 51 48 47 44 42 40 40 41 42 42 41 39 34 32 30 32 33 39 50 53 47 49 44 35 25 16 9 3 3 3